[[{"header":{"parameterUnit":"m.s-1","parameterCategory":1,"la1":30.6,"la2":28.766,"lo1":-90.7593,"lo2":-88.6598,"dy":0.0162,"dx":0.0183,"nx":116,"ny":114,"refTime":"2023-09-05T06:00:00:Z","depth":0,"parameterNumber":2,"parameterNumberName":"U-component_of_WINDS"},"data":[0.0,0.0,0.0,0.0,0.0,0.0,0.0,0.0,0.0,0.0,0.0,0.0,0.0,0.0,0.0,0.0,0.0,0.0,0.0,0.0,0.0,0.0,0.0,0.0,0.0,0.0,0.0,0.0,0.0,0.0,0.0,0.0,0.0,0.0,0.0,0.0,0.0,0.0,0.0,0.0,0.0,0.0,0.0,0.0,0.0,0.0,0.0,0.0,0.0,0.0,0.0,0.0,0.0,0.0,0.0,0.0,0.0,0.0,0.0,0.0,0.0,0.0,0.0,0.0,0.0,0.0,0.0,0.0,0.0,0.0,0.0,0.0,0.0,0.0,0.0,0.0,0.0,0.0,0.0,0.0,0.0,0.0,0.0,0.0,0.0,0.0,0.0,0.0,0.0,0.0,0.0,0.0,0.0,0.0,0.0,0.0,0.0,0.0,0.0,0.0,0.0,0.0,0.0,0.0,0.0,0.0,0.0,0.0,0.0,0.0,0.0,0.0,0.0,0.0,0.0,0.0,0.0,0.0,0.0,0.0,0.0,0.0,0.0,0.0,0.0,0.0,0.0,0.0,0.0,0.0,0.0,0.0,0.0,0.0,0.0,0.0,0.0,0.0,0.0,0.0,0.0,0.0,0.0,0.0,0.0,0.0,0.0,0.0,0.0,0.0,0.0,0.0,0.0,0.0,0.0,0.0,0.0,0.0,0.0,0.0,0.0,0.0,0.0,0.0,0.0,0.0,0.0,0.0,0.0,0.0,0.0,0.0,0.0,0.0,0.0,0.0,0.0,0.0,0.0,0.0,0.0,0.0,0.0,0.0,0.0,0.0,0.0,0.0,0.0,0.0,0.0,0.0,0.0,0.0,0.0,0.0,0.0,0.0,0.0,0.0,0.0,0.0,0.0,0.0,0.0,0.0,0.0,0.0,0.0,0.0,0.0,0.0,0.0,0.0,0.0,0.0,0.0,0.0,0.0,0.0,0.0,0.0,0.0,0.0,0.0,0.0,0.0,0.0,0.0,0.0,0.0,0.0,0.0,0.0,0.0,0.0,0.0,0.0,0.0,0.0,0.0,0.0,0.0,0.0,0.0,0.0,0.0,0.0,0.0,0.0,0.0,0.0,0.0,0.0,0.0,0.0,0.0,0.0,0.0,0.0,0.0,0.0,0.0,0.0,0.0,0.0,0.0,0.0,0.0,0.0,0.0,0.0,0.0,0.0,0.0,0.0,0.0,0.0,0.0,0.0,0.0,0.0,0.0,0.0,0.0,0.0,0.0,0.0,0.0,0.0,0.0,0.0,0.0,0.0,0.0,0.0,0.0,0.0,0.0,0.0,0.0,0.0,0.0,0.0,0.0,0.0,0.0,0.0,0.0,0.0,0.0,0.0,0.0,0.0,0.0,0.0,0.0,0.0,0.0,0.0,0.0,0.0,0.0,0.0,0.0,0.0,0.0,0.0,0.0,0.0,0.0,0.0,0.0,0.0,0.0,0.0,0.0,0.0,0.0,0.0,0.0,0.0,0.0,0.0,0.0,0.0,0.0,0.0,0.0,0.0,0.0,0.0,0.0,0.0,0.0,0.0,0.0,0.0,0.0,0.0,0.0,0.0,0.0,0.0,0.0,0.0,0.0,0.0,0.0,0.0,0.0,0.0,0.0,0.0,0.0,0.0,0.0,0.0,0.0,0.0,0.0,0.0,0.0,0.0,0.0,0.0,0.0,0.0,0.0,0.0,0.0,0.0,0.0,0.0,0.0,0.0,0.0,0.0,0.0,0.0,0.0,0.0,0.0,0.0,0.0,0.0,0.0,0.0,0.0,0.0,0.0,0.0,0.0,0.0,0.0,0.0,0.0,0.0,0.0,0.0,0.0,0.0,0.0,0.0,0.0,0.0,0.0,0.0,0.0,0.0,0.0,0.0,0.0,0.0,0.0,0.0,0.0,0.0,0.0,0.0,0.0,0.0,0.0,0.0,0.0,0.0,0.0,0.0,0.0,0.0,0.0,0.0,0.0,0.0,0.0,0.0,0.0,0.0,0.0,0.0,0.0,0.0,0.0,0.0,0.0,0.0,0.0,0.0,0.0,0.0,0.0,0.0,0.0,0.0,0.0,0.0,0.0,0.0,0.0,0.0,0.0,0.0,0.0,0.0,0.0,0.0,0.0,0.0,0.0,0.0,0.0,0.0,0.0,0.0,0.0,0.0,0.0,0.0,0.0,0.0,0.0,0.0,0.0,0.0,0.0,0.0,0.0,0.0,0.0,0.0,0.0,0.0,0.0,0.0,0.0,0.0,0.0,0.0,0.0,0.0,0.0,0.0,0.0,0.0,0.0,0.0,0.0,0.0,0.0,0.0,0.0,0.0,0.0,0.0,0.0,0.0,0.0,0.0,0.0,0.0,0.0,0.0,0.0,0.0,0.0,0.0,0.0,0.0,0.0,0.0,0.0,0.0,0.0,0.0,0.0,0.0,0.0,0.0,0.0,0.0,0.0,0.0,0.0,0.0,0.0,0.0,0.0,0.0,0.0,0.0,0.0,0.0,0.0,0.0,0.0,0.0,0.0,0.0,0.0,0.0,0.0,0.0,0.0,0.0,0.0,0.0,0.0,0.0,0.0,0.0,0.0,0.0,0.0,0.0,0.0,0.0,0.0,0.0,0.0,0.0,0.0,0.0,0.0,0.0,0.0,0.0,0.0,0.0,0.0,0.0,0.0,0.0,0.0,0.0,0.0,0.0,0.0,0.0,0.0,0.0,0.0,0.0,0.0,0.0,0.0,0.0,0.0,0.0,0.0,0.0,0.0,0.0,0.0,0.0,0.0,0.0,0.0,0.0,0.0,0.0,0.0,0.0,0.0,0.0,0.0,0.0,0.0,0.0,0.0,0.0,0.0,0.0,0.0,0.0,0.0,0.0,0.0,0.0,0.0,0.0,0.0,0.0,0.0,0.0,0.0,0.0,0.0,0.0,0.0,0.0,0.0,0.0,0.0,0.0,0.0,0.0,0.0,0.0,0.0,0.0,0.0,0.0,0.0,0.0,0.0,0.0,0.0,0.0,0.0,0.0,0.0,0.0,0.0,0.0,0.0,0.0,0.0,0.0,0.0,0.0,0.0,0.0,0.0,0.0,0.0,0.0,0.0,0.0,0.0,0.0,0.0,0.0,0.0,0.0,0.0,0.0,0.0,0.0,0.0,0.0,0.0,0.0,0.0,0.0,0.0,0.0,0.0,0.0,0.0,0.0,0.0,0.0,0.0,0.0,0.0,0.0,0.0,0.0,0.0,0.0,0.0,0.0,0.0,0.0,0.0,0.0,0.0,0.0,0.0,0.0,0.0,0.0,0.0,0.0,0.0,0.0,0.0,0.0,0.0,0.0,0.0,0.0,0.0,0.0,0.0,0.0,0.0,0.0,0.0,0.0,0.0,0.0,0.0,0.0,0.0,0.0,0.0,0.0,0.0,0.0,0.0,0.0,0.0,0.0,0.0,0.0,0.0,0.0,0.0,0.0,0.0,0.0,0.0,0.0,0.0,0.0,0.0,0.0,0.0,0.0,0.0,0.0,0.0,0.0,0.0,0.0,0.0,0.0,0.0,0.0,0.0,0.0,0.0,0.0,0.0,0.0,0.0,0.0,0.0,0.0,0.0,0.0,0.0,0.0,0.0,0.0,0.0,0.0,0.0,0.0,0.0,0.0,0.0,0.0,0.0,0.0,0.0,0.0,0.0,0.0,0.0,0.0,0.0,0.0,0.0,0.0,0.0,0.0,0.0,0.0,0.0,0.0,0.0,0.0,0.0,0.0,0.0,0.0,0.0,0.0,0.0,0.0,0.0,0.0,0.0,0.0,0.0,0.0,0.0,0.0,0.0,0.0,0.0,0.0,0.0,0.0,0.0,0.0,0.0,0.0,0.0,0.0,0.0,0.0,0.0,0.0,0.0,0.0,0.0,0.0,0.0,0.0,0.0,0.0,0.0,0.0,0.0,0.0,0.0,0.0,0.0,0.0,0.0,0.0,0.0,0.0,0.0,0.0,0.0,0.0,0.0,0.0,0.0,0.0,0.0,0.0,0.0,0.0,0.0,0.0,0.0,0.0,0.0,0.0,0.0,0.0,0.0,0.0,0.0,0.0,0.0,0.0,0.0,0.0,0.0,0.0,0.0,0.0,0.0,0.0,0.0,0.0,0.0,0.0,0.0,0.0,0.0,0.0,0.0,0.0,0.0,0.0,0.0,0.0,0.0,0.0,0.0,0.0,0.0,0.0,0.0,0.0,0.0,0.0,0.0,0.0,0.0,0.0,0.0,0.0,0.0,0.0,0.0,0.0,0.0,0.0,0.0,0.0,0.0,0.0,0.0,0.0,0.0,0.0,0.0,0.0,0.0,0.0,0.0,0.0,0.0,0.0,0.0,0.0,0.0,0.0,0.0,0.0,0.0,0.0,0.0,0.0,0.0,0.0,0.0,0.0,0.0,0.0,0.0,0.0,0.0,0.0,0.0,0.0,0.0,0.0,0.0,0.0,0.0,0.0,0.0,0.0,0.0,0.0,0.0,0.0,0.0,0.0,0.0,0.0,0.0,0.0,0.0,0.0,0.0,0.0,0.0,0.0,0.0,0.0,0.0,0.0,0.0,0.0,0.0,0.0,0.0,0.0,0.0,0.0,0.0,0.0,0.0,0.0,0.0,0.0,0.0,0.0,0.0,0.0,0.0,0.0,0.0,0.0,0.0,0.0,0.0,0.0,0.0,0.0,0.0,0.0,0.0,0.0,0.0,0.0,0.0,0.0,0.0,0.0,0.0,0.0,0.0,0.0,0.0,0.0,0.0,0.0,0.0,0.0,0.0,0.0,0.0,0.0,0.0,0.0,0.0,0.0,0.0,0.0,0.0,0.0,0.0,0.0,0.0,0.0,0.0,0.0,0.0,0.0,0.0,0.0,0.0,0.0,0.0,0.0,0.0,0.0,0.0,0.0,0.0,0.0,0.0,0.0,0.0,0.0,0.0,0.0,0.0,0.0,0.0,0.0,0.0,0.0,0.0,0.0,0.0,0.0,0.0,0.0,0.0,0.0,0.0,0.0,0.0,0.0,0.0,0.0,0.0,0.0,0.0,0.0,0.0,0.0,0.0,0.0,0.0,0.0,0.0,0.0,0.0,0.0,0.0,0.0,0.0,0.0,0.0,0.0,0.0,0.0,0.0,0.0,0.0,0.0,0.0,0.0,0.0,0.0,0.0,0.0,0.0,0.0,0.0,0.0,0.0,0.0,0.0,0.0,0.0,0.0,0.0,0.0,0.0,0.0,0.0,0.0,0.0,0.0,0.0,0.0,0.0,0.0,0.0,0.0,0.0,0.0,0.0,0.0,0.0,0.0,0.0,0.0,0.0,0.0,0.0,0.0,0.0,0.0,0.0,0.0,0.0,0.0,0.0,0.0,0.0,0.0,0.0,0.0,0.0,0.0,0.0,0.0,0.0,0.0,0.0,0.0,0.0,0.0,0.0,0.0,0.0,0.0,0.0,0.0,0.0,0.0,0.0,0.0,0.0,0.0,0.0,0.0,0.0,0.0,0.0,0.0,0.0,0.0,0.0,0.0,0.0,0.0,0.0,0.0,0.0,0.0,0.0,0.0,0.0,0.0,0.0,0.0,0.0,0.0,0.0,0.0,0.0,0.0,0.0,0.0,0.0,0.0,0.0,0.0,0.0,0.0,0.0,0.0,0.0,0.0,0.0,0.0,0.0,0.0,0.0,0.0,0.0,0.0,0.0,0.0,0.0,0.0,0.0,0.0,0.0,0.0,0.0,0.0,0.0,0.0,0.0,0.0,0.0,0.0,0.0,0.0,0.0,0.0,0.0,0.0,0.0,0.0,0.0,0.0,0.0,0.0,0.0,0.0,0.0,0.0,0.0,0.0,0.0,0.0,0.0,0.0,0.0,0.0,0.0,0.0,0.0,0.0,0.0,0.0,0.0,0.0,0.0,0.0,0.0,0.0,0.0,0.0,0.0,0.0,0.0,0.0,0.0,0.0,0.0,0.0,0.0,0.0,0.0,0.0,0.0,0.0,0.0,0.0,0.0,0.0,0.0,0.0,0.0,0.0,0.0,0.0,0.0,0.0,0.0,0.0,-1.1551,-1.001,0.0,0.0,0.0,0.0,0.0,0.0,0.0,0.0,0.0,0.0,0.0,0.0,0.0,0.0,0.0,0.0,0.0,0.0,0.0,0.0,0.0,0.0,0.0,0.0,0.0,0.0,0.0,0.0,0.0,0.0,0.0,0.0,0.0,0.0,0.0,0.0,0.0,0.0,-1.0958,-1.2351,-1.3867,-1.3321,-1.2809,-1.2347,0.0,0.0,0.0,0.0,0.0,0.0,0.0,0.0,0.0,0.0,0.0,0.0,0.0,0.0,0.0,0.0,0.0,0.0,0.0,0.0,0.0,0.0,0.0,0.0,0.0,0.0,0.0,0.0,0.0,0.0,0.0,0.0,0.0,0.0,0.0,0.0,0.0,0.0,0.0,0.0,0.0,0.0,0.0,0.0,0.0,0.0,0.0,0.0,0.0,0.0,0.0,0.0,0.0,0.0,0.0,0.0,0.0,0.0,0.0,0.0,0.0,0.0,0.0,0.0,0.0,0.0,0.0,0.0,0.0,0.0,-1.3953,-1.2722,0.0,0.0,0.0,0.0,0.0,0.0,0.0,0.0,0.0,0.0,0.0,0.0,0.0,0.0,0.0,0.0,0.0,0.0,0.0,0.0,0.0,0.0,0.0,-0.9775,-0.9914,-0.9372,-0.9049,-0.8872,0.0,0.0,0.0,0.0,0.0,0.0,0.0,-1.0179,-1.0315,-1.0403,-1.2358,-1.424,-1.5949,-1.5778,-1.5108,-1.4041,-1.3864,0.0,0.0,0.0,0.0,0.0,0.0,0.0,0.0,0.0,0.0,0.0,0.0,0.0,0.0,0.0,0.0,0.0,0.0,0.0,0.0,0.0,0.0,0.0,0.0,0.0,0.0,0.0,0.0,0.0,0.0,0.0,0.0,0.0,0.0,0.0,0.0,0.0,0.0,0.0,0.0,0.0,0.0,0.0,0.0,0.0,0.0,0.0,0.0,0.0,0.0,0.0,0.0,0.0,0.0,0.0,0.0,0.0,0.0,0.0,0.0,0.0,0.0,0.0,-1.6698,-1.6698,-1.6563,-1.7288,-1.7684,-1.7746,-1.7,-1.6428,-1.5905,-1.4606,0.0,0.0,0.0,0.0,0.0,0.0,0.0,0.0,0.0,0.0,0.0,0.0,0.0,0.0,0.0,0.0,0.0,0.0,0.0,0.0,0.0,-1.0319,-1.061,-1.0653,-1.0447,-1.0351,-1.0412,0.0,0.0,0.0,0.0,0.0,-1.0186,-1.1237,-1.1734,-1.1578,-1.415,-1.5814,-1.6592,-1.707,-1.7631,-1.8156,-1.7058,-1.6584,-1.6542,0.0,0.0,0.0,0.0,0.0,0.0,0.0,0.0,0.0,0.0,0.0,0.0,0.0,0.0,0.0,0.0,0.0,0.0,0.0,0.0,0.0,0.0,0.0,0.0,0.0,0.0,0.0,0.0,0.0,0.0,0.0,0.0,0.0,0.0,0.0,0.0,0.0,0.0,0.0,0.0,0.0,-1.1855,-1.3646,0.0,0.0,0.0,0.0,0.0,0.0,0.0,0.0,0.0,0.0,0.0,0.0,0.0,-1.6548,-1.7178,-1.8818,-1.9558,-1.9377,-2.03,-2.032,-1.9562,-2.046,-2.0891,-2.0909,-2.0953,0.0,-1.7483,-1.6155,0.0,0.0,0.0,0.0,0.0,0.0,0.0,0.0,0.0,0.0,0.0,0.0,0.0,0.0,0.0,0.0,0.0,0.0,0.0,0.0,0.0,-1.1564,-1.2289,-1.2041,-1.2987,-1.3074,-1.19,-1.2162,0.0,0.0,0.0,-1.1419,-1.1264,-1.2179,-1.3289,-1.4546,-1.5911,-1.7408,-1.8969,-1.9401,-2.0043,-2.076,-1.9985,-1.8983,-1.7896,-1.7913,0.0,0.0,0.0,0.0,0.0,0.0,0.0,0.0,0.0,0.0,0.0,0.0,0.0,0.0,0.0,0.0,0.0,0.0,0.0,0.0,0.0,0.0,0.0,0.0,0.0,0.0,0.0,0.0,0.0,0.0,0.0,0.0,0.0,0.0,0.0,0.0,0.0,0.0,0.0,-1.2171,-1.33,-1.3493,-1.3951,-1.3908,0.0,0.0,0.0,0.0,0.0,0.0,0.0,0.0,0.0,-1.7467,-1.8099,-1.8934,-1.9986,-2.0825,-2.136,-2.1595,-2.1784,-2.1817,-2.1697,-2.2368,-2.2548,-2.2344,-2.3222,-2.2265,-1.9992,-1.8641,-1.7808,-1.7272,0.0,0.0,0.0,0.0,-1.4994,-1.5007,0.0,0.0,0.0,0.0,0.0,0.0,0.0,0.0,0.0,0.0,0.0,0.0,-1.1396,-1.3149,-1.428,-1.4121,-1.5231,-1.522,-1.3499,-1.3583,-1.3039,-1.156,-1.1662,-1.1823,-1.1931,-1.3306,-1.4898,-1.6697,-1.7868,-1.9301,-2.1026,-2.1815,-2.2473,-2.3001,-2.3108,-2.1757,-1.939,-1.9547,-1.8966,-1.7861,0.0,0.0,0.0,0.0,0.0,0.0,0.0,0.0,0.0,0.0,0.0,0.0,0.0,0.0,0.0,0.0,0.0,0.0,0.0,0.0,0.0,0.0,0.0,0.0,0.0,0.0,0.0,0.0,0.0,0.0,0.0,0.0,0.0,0.0,0.0,0.0,0.0,-1.3541,-1.4451,-1.3657,-1.5093,-1.559,0.0,0.0,0.0,0.0,0.0,0.0,-1.6972,-1.7697,-1.875,-2.0192,-2.0602,-2.1281,-2.2323,-2.2564,-2.2946,-2.3436,-2.3072,-2.3104,-2.3452,-2.3856,-2.3824,-2.3499,-2.462,-2.4363,-2.302,-2.13,-1.9986,-1.9028,-1.8377,-1.7761,-1.7197,-1.7026,-1.6962,-1.6961,0.0,0.0,0.0,0.0,0.0,0.0,0.0,0.0,0.0,0.0,0.0,-1.2013,-1.3303,-1.5018,-1.6419,-1.7292,-1.6578,-1.5849,-1.5305,-1.4099,-1.2842,-1.156,-1.2104,-1.2167,-1.1542,-1.4808,-1.6574,-1.6691,-2.0098,-2.1798,-2.1884,-2.3882,-2.4919,-2.5216,-2.6721,-2.5173,-2.1381,-2.04,-1.9749,-1.9311,-1.8309,0.0,0.0,0.0,0.0,0.0,0.0,0.0,0.0,0.0,0.0,0.0,0.0,0.0,0.0,0.0,0.0,0.0,0.0,0.0,0.0,0.0,0.0,0.0,0.0,0.0,0.0,0.0,0.0,0.0,0.0,0.0,0.0,0.0,0.0,0.0,0.0,0.0,0.0,-1.5056,-1.7228,0.0,0.0,0.0,0.0,-1.701,-1.7863,-1.8732,-1.9484,-2.016,-2.0869,-2.166,-2.3004,-2.373,-2.3793,-2.4495,-2.4843,-2.4894,-2.4859,-2.4859,-2.491,-2.5118,-2.5102,-2.491,-2.523,-2.5923,-2.6625,-2.3879,-2.2135,-2.1202,-2.0788,-2.0815,-2.0998,-1.9986,-1.961,-1.9515,0.0,0.0,0.0,0.0,0.0,0.0,0.0,0.0,-1.1927,-1.1555,-1.1876,-1.2977,-1.5154,-1.7061,-1.8829,-2.0431,-2.0505,-1.9798,-1.8212,-1.6804,-1.5207,-1.3321,-1.3009,-1.3349,-1.4315,-1.6052,-1.776,-1.9399,-2.1279,-2.2781,-2.3919,-2.5088,-2.5956,-2.6476,-2.6836,-2.6444,-2.5404,-2.3615,-2.2602,-2.2102,-2.0086,-1.8883,0.0,0.0,0.0,0.0,0.0,0.0,0.0,0.0,0.0,0.0,0.0,0.0,0.0,0.0,0.0,0.0,0.0,0.0,0.0,0.0,0.0,0.0,0.0,0.0,0.0,0.0,0.0,0.0,0.0,0.0,0.0,0.0,0.0,0.0,0.0,0.0,0.0,-1.8175,-1.9317,0.0,-1.9028,-1.906,-1.9217,-1.9436,-2.0648,-2.1881,-2.3035,-2.3335,-2.3999,-2.5167,-2.4808,-2.4808,-2.525,-2.5215,-2.5182,-2.5197,-2.5847,-2.6134,-2.6104,-2.6651,-2.6305,-2.5314,-2.6457,-2.6654,-2.6269,-2.7155,-2.6034,-2.362,-2.2562,-2.254,-2.3006,-2.2441,-2.213,-2.1882,0.0,0.0,0.0,0.0,0.0,0.0,0.0,0.0,-1.1697,-1.1999,-1.2441,-1.389,-1.6905,-1.8962,-2.078,-2.2455,-2.2346,-2.117,-1.8697,-1.7269,-1.5305,-1.2659,-1.3092,-1.4431,-1.6638,-1.7996,-1.9752,-2.194,-2.3077,-2.4358,-2.5789,-2.6981,-2.7682,-2.8025,-2.8468,-2.8702,-2.867,-2.6854,-2.565,-2.4742,-2.2067,-2.0751,-2.0178,0.0,0.0,0.0,0.0,0.0,0.0,0.0,0.0,0.0,0.0,0.0,0.0,0.0,0.0,0.0,0.0,0.0,0.0,0.0,0.0,0.0,0.0,0.0,0.0,0.0,0.0,0.0,0.0,0.0,0.0,0.0,0.0,0.0,0.0,-1.7836,-1.9157,-2.0148,-2.1521,-2.2211,-2.1725,-2.1764,-2.2022,-2.2447,-2.362,-2.4713,-2.5665,-2.5713,-2.6181,-2.7179,-2.6311,-2.5954,-2.6217,-2.617,-2.6024,-2.5783,-2.6691,-2.7114,-2.7084,-2.7432,-2.71,-2.6257,-2.6955,-2.728,-2.7385,-2.8371,-2.7456,-2.5346,-2.4515,-2.4351,-2.4535,-2.4388,-2.4161,-2.3781,0.0,0.0,0.0,0.0,0.0,0.0,0.0,-1.1199,-1.0625,-1.2251,-1.2911,-1.4702,-1.8536,-2.059,-2.2163,-2.3327,-2.1789,-1.9562,-1.6714,-1.5227,-1.2952,-0.9593,-1.2466,-1.5441,-1.8219,-2.0619,-2.2559,-2.4067,-2.5508,-2.6601,-2.7398,-2.9516,-3.0258,-2.9935,-3.1858,-3.2054,-3.093,-2.9943,-2.8721,-2.7232,-2.4232,-2.2911,-2.2455,0.0,0.0,0.0,0.0,0.0,0.0,0.0,0.0,0.0,0.0,0.0,0.0,0.0,0.0,0.0,0.0,0.0,0.0,0.0,0.0,0.0,0.0,0.0,0.0,0.0,0.0,0.0,0.0,0.0,0.0,0.0,0.0,0.0,-1.8577,-2.0762,-2.1951,-2.0952,-2.3845,-2.5413,-2.4064,-2.521,-2.604,-2.6072,-2.6735,-2.7146,-2.7184,-2.7146,-2.7243,-2.7464,-2.7432,-2.7178,-2.6753,-2.7441,-2.7441,-2.6743,-2.7494,-2.7835,-2.7855,-2.7463,-2.7528,-2.7806,-2.6683,-2.7774,-3.0141,-2.7377,-2.6219,-2.6231,-2.6623,-2.6312,-2.5635,-2.5766,-2.5624,-2.5081,0.0,0.0,0.0,0.0,0.0,0.0,0.0,-1.0739,-1.0934,-1.1477,-1.2938,-1.5529,-1.9751,-2.0927,-2.2115,-2.3889,-2.1534,-1.9159,-1.7342,-1.488,-1.3305,-1.2875,-1.5687,-1.8141,-1.9973,-2.1716,-2.357,-2.559,-2.5987,-2.7114,-2.8853,-2.9959,-3.0724,-3.1161,-3.2221,-3.2794,-3.2945,-3.2139,-3.1868,-3.1624,-2.7114,-2.4943,-2.4282,0.0,0.0,0.0,0.0,0.0,0.0,0.0,0.0,0.0,0.0,0.0,0.0,0.0,0.0,0.0,0.0,0.0,0.0,0.0,0.0,0.0,0.0,0.0,0.0,0.0,0.0,0.0,0.0,0.0,0.0,0.0,-2.1178,-2.2122,-2.2254,-2.2488,-2.3481,-2.5654,-2.6409,-2.6803,-2.6919,-2.6841,-2.7004,-2.7478,-2.7699,-2.8186,-2.9016,-2.8277,-2.823,-2.9108,-2.787,-2.7338,-2.7705,-2.7722,-2.7644,-2.745,-2.8473,-2.8959,-2.8975,-2.9391,-2.9655,-2.9617,-2.7241,-2.6649,-2.7361,-2.7261,-2.6814,-2.6201,-2.6319,-2.6235,-2.6041,-2.6094,-2.5261,-2.4089,0.0,0.0,0.0,0.0,0.0,0.0,0.0,-0.9996,-1.0398,-1.1477,-1.2777,-1.5263,-1.9605,-2.0431,-2.1118,-2.2232,-2.0122,-1.7855,-1.5796,-1.3764,-1.3639,-1.5907,-1.8191,-2.0257,-2.2029,-2.3222,-2.4746,-2.6651,-2.6651,-2.7595,-2.943,-3.0791,-3.1653,-3.2116,-3.3143,-3.3673,-3.3756,-3.3326,-3.3226,-3.3116,-3.0444,-2.8572,-2.7179,-2.5401,-2.3933,-2.2654,-2.1471,-2.1006,-2.0687,-1.9176,0.0,0.0,0.0,0.0,0.0,0.0,0.0,0.0,0.0,0.0,0.0,0.0,0.0,0.0,0.0,0.0,0.0,0.0,0.0,0.0,0.0,0.0,0.0,0.0,-2.3532,-2.5123,-2.6246,-2.5847,-2.6183,-2.8178,-2.8397,-2.8426,-2.8521,-2.8335,-2.8387,-2.8786,-2.9,-2.9307,-2.9777,-2.9181,-2.9083,-2.9677,-2.8658,-2.8247,-2.8517,-2.8681,-2.8637,-2.8408,-2.9411,-2.986,-2.9877,-3.0307,-3.0506,-3.034,-2.7443,-2.6202,-2.6235,-2.6781,-2.6699,-2.6235,0.0,0.0,0.0,0.0,-2.4645,-2.3408,0.0,0.0,0.0,0.0,0.0,0.0,0.0,-0.9171,-0.947,-1.1812,-1.2449,-1.4279,-1.8467,-1.9232,-1.9438,-1.9437,-1.8025,-1.5945,-1.3168,-1.2754,-1.4367,-1.834,-2.0158,-2.2029,-2.4083,-2.4862,-2.5955,-2.7415,-2.7415,-2.8144,-2.9562,-3.1702,-3.2702,-3.2768,-3.4319,-3.4601,-3.3922,-3.4005,-3.3657,-3.3133,-3.3773,-3.268,-3.0336,-2.7742,-2.6482,-2.5837,-2.3761,-2.2763,-2.2209,-2.0799,0.0,0.0,0.0,0.0,0.0,0.0,0.0,0.0,0.0,0.0,0.0,0.0,0.0,0.0,0.0,0.0,0.0,0.0,0.0,0.0,0.0,0.0,0.0,0.0,-2.5462,-2.7399,-3.0062,-2.988,-2.9398,-2.924,-2.9801,-2.9919,-2.9231,-2.9566,-2.9815,-2.9881,-3.0267,-3.0351,-2.9968,-2.9903,0.0,0.0,0.0,-2.9496,-2.9239,-2.9946,-3.0029,-2.9509,-3.0195,-3.0547,-3.0506,-3.039,-3.0307,-3.0108,-2.7561,-2.6533,-2.6649,-2.6372,-2.6274,-2.6375,-2.7048,-2.5259,-2.2492,-2.405,-2.395,-2.3106,0.0,0.0,0.0,0.0,0.0,0.0,0.0,-0.8953,-0.9435,-1.1307,-1.1805,-1.3325,-1.6801,-1.7196,-1.7561,-1.8395,-1.6231,-1.4086,-1.234,-1.4814,-1.6999,-1.8439,-2.1632,-2.3835,-2.4862,-2.5624,-2.6717,-2.8177,-2.8177,-2.8923,-3.0323,-3.1934,-3.2702,-3.2801,-3.4866,-3.5379,-3.4717,-3.5313,-3.5495,-3.5363,-3.5512,-3.3905,-3.1399,-3.1399,-2.9477,-2.6803,-2.6772,-2.5492,-2.3663,-2.2655,-2.2436,-2.2189,-2.0254,-1.8667,0.0,0.0,0.0,0.0,0.0,0.0,0.0,0.0,0.0,0.0,0.0,0.0,0.0,0.0,0.0,0.0,0.0,0.0,0.0,-2.6193,-2.811,-2.9983,-3.1659,-3.177,-3.1263,-3.0101,-3.0109,-3.0061,-2.9697,-2.9766,-2.9968,-3.033,-3.0456,-3.0601,-3.0828,-3.0543,-3.0497,-3.0767,-3.0522,-3.0264,-2.9976,-3.0612,-3.0633,-3.0039,-3.0625,0.0,-3.0472,-2.9711,-2.9168,-2.879,-2.8227,-2.8622,-2.9499,-2.7458,-2.6708,-2.6758,-2.5913,-2.549,-2.5242,-2.4431,-2.3984,-2.3719,0.0,0.0,0.0,0.0,0.0,0.0,0.0,-0.8595,-0.9023,-1.0632,-1.0909,-1.1927,-1.4517,-1.4713,-1.4769,-1.507,-1.3873,-1.3267,-1.3624,-1.6337,-1.877,-2.0621,-2.3172,-2.4911,-2.5623,-2.6003,-2.6733,-2.7845,-2.821,-2.9118,-3.0522,-3.2,-3.2917,-3.3292,-3.4783,-3.5032,-3.4386,-3.5131,-3.523,-3.4965,-3.5694,-3.4899,-3.3292,-3.3657,-3.194,-2.9222,-2.8657,-2.7212,-2.5387,-2.4012,-2.3624,-2.3503,-2.2361,-2.0576,-1.8838,0.0,0.0,0.0,0.0,0.0,0.0,0.0,0.0,0.0,0.0,0.0,0.0,0.0,0.0,-2.269,-2.3749,0.0,-2.701,-2.841,-3.0109,-3.1611,-3.2655,-3.3029,-3.2791,-3.1742,-3.159,-3.137,-3.0762,-3.0917,-3.1021,-3.0918,-3.1103,-3.1184,-3.1201,-3.1004,-3.0885,-3.0848,-3.0485,-3.0418,-3.0658,-3.0804,-3.0697,-3.0246,-3.0929,-3.1098,-3.0767,-2.9797,-2.9379,-2.944,-2.9316,-2.9637,-3.0113,-2.7794,-2.6924,-2.6888,-2.563,-2.543,-2.5697,-2.4464,-2.3768,-2.3421,0.0,0.0,0.0,0.0,0.0,0.0,0.0,-0.8348,-0.8616,-0.9954,-0.9976,-1.051,-1.2232,-1.2323,-1.2069,-1.1604,-1.2224,-1.3343,-1.4977,-1.7623,-2.0274,-2.2791,-2.4448,-2.559,-2.6185,-2.6202,-2.6568,-2.7298,-2.7895,-2.8969,-3.0522,-3.1868,-3.2878,-3.3624,-3.4651,-3.4618,-3.3839,-3.4584,-3.4551,-3.4104,-3.5313,-3.5346,-3.4684,-3.4684,-3.3408,-3.1378,-2.9704,-2.7915,-2.6155,-2.4768,-2.4048,-2.3772,-2.3989,-2.228,-2.0177,-2.0273,-1.9253,0.0,0.0,0.0,0.0,0.0,0.0,0.0,0.0,-2.1946,-2.3114,-2.4116,-2.4855,-2.5656,-2.6814,-2.8047,-2.9303,-3.0425,-3.1675,-3.2713,-3.3371,-3.3822,-3.3948,-3.3557,-3.3175,-3.2606,-3.1819,-3.1937,-3.1879,-3.1462,-3.1711,-3.1766,-3.1468,-3.1449,-3.1278,-3.0908,-3.0592,-3.069,-3.122,-3.1103,-3.0855,-3.054,-3.1095,-3.1225,-3.0908,-2.9941,-2.9768,-3.0199,-2.9816,-2.9632,-2.9513,-2.7843,-2.7151,-2.7049,-2.6082,-2.5737,-2.5678,-2.4447,-2.3818,-2.3487,0.0,0.0,0.0,0.0,0.0,0.0,0.0,0.0,-0.8565,-0.9387,-0.9227,-0.9454,-1.0557,-1.0677,-1.0479,-1.0083,-1.3037,-1.4761,-1.4351,-1.8783,-2.1864,-2.2857,-2.4944,-2.6119,-2.6202,-2.6202,-2.6568,-2.7298,-2.7365,-2.8492,-3.0522,-3.1333,-3.2133,-3.2895,-3.4965,-3.5098,-3.3839,-3.4584,-3.4849,-3.4783,-3.4965,-3.4584,-3.3905,-3.3905,-3.2961,-3.1394,-2.9699,-2.6929,-2.4144,-2.4567,-2.3506,-2.229,-2.4127,-2.3194,-2.1495,-2.1973,-2.057,-1.8886,-1.8905,-1.9381,-1.9856,-1.9703,-2.0684,-2.2295,0.0,-2.593,-2.7051,-2.9002,-2.9911,-3.0425,-3.0607,-3.127,-3.188,-3.2038,-3.2718,-3.3381,-3.3933,-3.405,-3.4399,-3.5205,-3.3745,-3.2541,-3.2259,-3.1627,-3.1402,-3.1803,-3.1876,-3.193,-3.2019,-3.2019,-3.2001,-3.193,-3.1948,-3.1875,-3.1727,-3.2054,-3.193,-3.1348,-3.1023,-3.0711,-3.0367,-2.9531,-2.9188,-2.9222,-2.8334,-2.7964,-2.7947,-2.7727,-2.7627,-2.7609,-2.7472,-2.7259,-2.6778,-2.4728,-2.4779,-2.5457,0.0,0.0,0.0,0.0,0.0,0.0,0.0,0.0,0.0,-0.8494,-0.8475,-0.8589,-0.9016,-0.9208,-0.9396,-0.9657,-1.1943,-1.379,-1.4785,-1.8419,-2.1052,-2.221,-2.3967,-2.5127,-2.554,-2.5574,-2.612,-2.7298,-2.7298,-2.8194,-2.9877,-3.0605,-3.135,-3.2133,-3.3475,-3.3491,-3.258,-3.3309,-3.3607,-3.3657,-3.4087,-3.3921,-3.3311,-3.2433,-3.0998,-2.9219,-2.7505,-2.5111,0.0,-2.3069,-2.254,-2.2083,-2.4012,-2.267,-2.0535,-2.1359,-2.0195,-1.9012,-2.0627,-2.1197,-2.1664,-2.3045,-2.446,-2.6009,-2.7984,-2.9334,-3.0464,-3.1729,-3.2472,-3.3017,-3.3402,-3.3402,-3.3338,-3.3338,-3.3312,-3.3477,-3.4025,-3.3974,-3.3985,-3.4276,-3.3464,-3.3028,-3.3365,-3.2715,-3.2212,-3.2072,-3.2037,-3.2073,-3.2144,-3.2108,-3.2108,-3.2144,-3.2179,-3.2179,-3.2161,-3.2319,-3.2039,-3.1324,-3.1603,-3.1185,-3.0161,-2.9832,-2.9173,-2.8253,-2.7859,-2.7701,-2.7736,-2.821,-2.8122,-2.7701,-2.7701,-2.7609,-2.727,-2.5491,-2.4893,-2.4712,0.0,0.0,0.0,0.0,0.0,0.0,0.0,0.0,0.0,0.0,-0.8005,-0.8061,-0.8087,-0.8299,-0.8657,-0.9202,-1.0705,-1.2487,-1.4513,-1.7384,-1.9664,-2.1135,-2.2808,-2.3951,-2.4481,-2.4696,-2.5325,-2.6387,-2.6387,-2.7114,-2.8519,-2.9065,-2.981,-3.0737,-3.147,-3.162,-3.1317,-3.1653,-3.1901,-3.21,-3.2232,-3.1981,-3.1336,-2.9903,-2.7969,-2.5879,-2.4808,-2.3031,-2.1154,-2.0921,-2.0492,-2.0362,-2.2063,-2.078,-1.8877,-2.0194,-1.987,-1.9536,-2.1549,-2.2637,-2.3713,-2.5794,-2.7778,-2.9564,-3.0789,-3.2149,-3.3288,-3.3767,-3.427,-3.4649,-3.4684,-3.4288,-3.3941,-3.3917,-3.3627,-3.3716,-3.4456,-3.4038,-3.3666,-3.3693,-3.2971,-3.2799,-3.3581,-3.3146,-3.2645,-3.2231,-3.2144,-3.2161,-3.2249,-3.2214,-3.2214,-3.2249,-3.2267,-3.2302,-3.2406,-3.2177,-3.1879,-3.1528,-3.1458,-3.0966,-3.0088,-2.965,-2.8807,-2.7719,-2.8017,-2.7964,-2.7771,-2.8807,-2.8754,-2.8052,-2.828,-2.8087,-2.7543,-2.6226,-2.5185,-2.4334,0.0,0.0,0.0,0.0,0.0,0.0,0.0,0.0,0.0,0.0,0.0,0.0,0.0,-0.8229,-0.8315,-0.8331,-0.9816,-1.1376,-1.2878,-1.5852,-1.8187,-1.9601,-2.1764,-2.294,-2.2957,-2.3669,-2.405,-2.41,-2.41,-2.4862,-2.6301,-2.6318,-2.7114,-2.8525,-2.9201,-2.9877,-3.0489,-2.9777,-2.991,-3.0439,-2.9105,-2.813,-2.7336,-2.5981,-2.3751,-2.1386,-2.1992,-2.0783,-1.8798,-1.8149,-1.6934,-1.5946,-1.7367,-1.7164,-1.681,-1.8933,-2.0155,-2.0902,-2.1239,-2.3365,-2.575,-2.6793,-2.965,-3.2355,-3.304,-3.4288,-3.53,-3.5315,-3.5655,-3.5476,-3.3924,-3.3624,-3.3564,-3.3432,-3.3624,-3.4213,-3.5486,-3.4478,-3.3782,-3.4326,-3.2367,-3.1307,-3.2179,-3.2178,-3.2161,-3.2197,-3.2197,-3.2249,-3.2388,-3.2388,-3.2388,-3.2388,-3.2388,-3.2406,-3.2406,-3.1616,-3.1616,-3.2335,-3.0071,-2.9386,-3.0053,-2.8473,-2.7736,-2.7754,-2.8807,-2.8667,-2.7824,-2.9421,-2.9597,-2.8947,-2.972,-2.907,-2.7613,-2.6827,-2.6055,-2.5242,0.0,0.0,0.0,0.0,0.0,0.0,0.0,0.0,0.0,0.0,0.0,0.0,0.0,0.0,0.0,0.0,-0.9382,-1.0437,-1.1506,-1.4288,-1.638,-1.7425,-2.0022,-2.1448,-2.1448,-2.216,-2.2526,-2.2526,-2.2526,-2.2791,-2.3305,-2.4282,-2.5011,-2.5524,-2.675,-2.741,-2.7625,-2.7377,-2.7711,-2.829,-2.733,-2.6311,-2.5162,-2.3182,-2.0758,-1.8204,0.0,-1.6211,-1.6001,-1.6349,-1.5731,-1.5066,-1.639,-1.6047,-1.5701,-1.8389,-2.0081,-2.1824,-2.511,-2.7048,-2.8809,-3.1763,-3.3721,-3.5256,-3.6419,-3.7219,-3.7427,-3.6421,-3.5564,-3.4372,-3.2309,-3.1004,-3.0425,-3.1052,-3.171,-3.2823,-3.4763,-3.4669,-3.4037,-3.3066,-3.2702,-3.2092,-3.0918,-3.071,-3.1113,-3.2249,-3.2249,-3.2477,-3.309,-3.309,-3.3072,-3.3125,-3.2651,-3.2142,-3.1598,-3.1335,-3.1089,-3.0861,-2.9527,-2.9035,-2.9263,-2.8193,-2.7701,-2.7736,-2.8649,-2.8825,-2.8594,-2.9759,-3.007,-2.9856,-3.0141,-2.9894,-2.9382,-2.9064,-2.8421,-2.7388,0.0,0.0,0.0,0.0,0.0,0.0,0.0,0.0,0.0,0.0,0.0,0.0,0.0,0.0,0.0,0.0,0.0,-0.9509,-1.038,-1.2419,-1.4077,-1.5166,-1.7503,-1.8891,-1.916,-1.989,-2.0271,-2.0271,-2.0489,-2.0621,-2.0655,-2.1864,-2.2576,-2.2857,-2.3818,-2.4381,-2.463,-2.463,-2.4431,-2.41,-2.3636,-2.2517,-2.0965,-1.9273,-1.7202,0.0,-1.3863,-1.3183,-1.2973,-1.3812,-1.4049,-1.4151,-1.4981,-1.5681,-1.6578,-1.8732,-2.0785,-2.3296,-2.752,-2.9551,-3.1303,-3.4755,-3.6313,-3.7302,-3.8181,-3.816,-3.7359,-3.5337,-3.3759,-3.2049,-2.9729,-2.819,-2.7825,-2.9513,-3.0123,-3.1393,-3.4232,-3.4229,-3.3727,-3.3158,-3.3054,-3.2582,-3.1423,-3.1004,-3.125,-3.2318,-3.2827,-3.3195,-3.3494,-3.3739,-3.3879,-3.3933,-3.3178,-3.2546,-3.2037,-3.1475,-3.0685,-2.9667,-2.9158,-2.8754,-2.8456,-2.7929,-2.7701,-2.7754,-2.886,-2.9031,-2.8705,-3.0374,-3.0787,-3.0432,-3.094,-3.096,-3.0676,-3.0319,-2.9626,-2.8579,0.0,0.0,0.0,0.0,0.0,0.0,0.0,0.0,0.0,0.0,0.0,0.0,0.0,0.0,0.0,0.0,0.0,0.0,-0.9486,-1.0365,-1.1471,-1.2878,-1.442,-1.5558,-1.6221,-1.6989,-1.7387,-1.7387,-1.7988,-1.829,-1.8307,-1.8989,-1.9697,-2.037,-2.0403,-2.0801,-2.1481,-2.1481,-2.0257,-1.834,-1.8307,-1.7044,-1.5114,-1.4502,-1.3285,-1.2,-1.284,-1.1761,-1.0075,-1.0882,-1.2073,-1.327,-1.3452,-1.6086,-1.9265,-2.0128,-2.2479,-2.5478,-2.8606,-3.1019,-3.325,-3.5838,-3.7437,-3.8399,-3.8379,-3.7151,-3.5244,-3.24,-3.0514,-2.8665,-2.6323,-2.5397,-2.5888,-2.8731,-2.9033,-3.0222,-3.3979,-3.344,-3.3143,-3.4548,-3.3441,-3.2827,-3.3441,-3.2932,-3.2564,-3.2511,-3.3863,-3.439,-3.367,-3.4355,-3.4776,-3.4776,-3.3986,-3.3529,-3.3511,-3.1967,-3.044,-2.8965,-2.893,-2.8473,-2.7701,-2.7701,-2.7719,-2.7841,-2.9421,-2.9374,-2.8407,-3.1223,-3.1654,-3.0677,-3.2049,-3.2125,-3.1432,-3.0707,-2.9839,-2.8928,0.0,0.0,0.0,0.0,0.0,0.0,0.0,0.0,0.0,0.0,0.0,0.0,0.0,0.0,0.0,0.0,0.0,0.0,-0.8674,-0.981,-1.0487,-1.0558,-1.2984,-1.4216,-1.3946,-1.5209,-1.5856,-1.5856,-1.5487,-1.5294,-1.5311,-1.5493,-1.5675,-1.5884,-1.6426,-1.6785,-1.6967,-1.6967,-1.6636,-1.6061,-1.552,-1.4632,-1.3591,-1.2889,-1.1667,-1.0413,-1.0771,-1.0804,-1.0936,-1.2763,-1.4085,-1.5296,-1.7151,-1.8918,-2.0974,-2.4538,-2.7105,-2.954,-3.3128,-3.4988,-3.6406,-3.8478,-3.8619,-3.8197,-3.7952,-3.5892,-3.3378,-3.1113,-2.8284,-2.5579,-2.3381,-2.316,-2.3971,-2.602,-2.861,-3.1359,-3.4229,-3.5337,-3.5549,-3.4794,-3.4846,-3.4565,-3.3582,-3.4372,-3.4723,-3.4144,-3.4495,-3.4846,-3.5197,-3.5425,-3.5511,-3.5511,-3.4793,-3.4108,-3.3511,-3.1967,-3.072,-2.979,-2.9193,-2.8473,-2.7701,-2.7701,-2.8017,-2.8649,-2.9667,-3.029,-3.0672,-3.1535,-3.1684,-3.1436,-3.1908,-3.1898,-3.1696,-3.2088,-3.1637,-3.0733,0.0,0.0,0.0,0.0,0.0,0.0,0.0,0.0,0.0,0.0,0.0,0.0,0.0,0.0,0.0,0.0,0.0,0.0,0.0,-0.9017,-0.9485,-0.9644,-1.1157,-1.2003,-1.2057,-1.2865,-1.3286,-1.3286,-1.3257,-1.3225,-1.3242,-1.3517,-1.3665,-1.3738,-1.4097,-1.4106,-1.3873,-1.4188,-1.3591,0.0,0.0,-1.1918,-1.0685,-1.0586,-1.0288,-0.9894,-0.9982,-1.1045,-1.2748,-1.5086,-1.6633,-1.8008,-2.0465,-2.2328,-2.4398,-2.8284,-3.0386,-3.2188,-3.5683,-3.7337,-3.8354,-3.9598,-3.9001,-3.7842,-3.6658,-3.4087,-3.1043,-2.7861,-2.524,-2.305,-2.1574,-2.1045,-2.184,-2.4847,-2.683,-2.9328,-3.3161,-3.4724,-3.5532,-3.569,-3.6057,-3.611,-3.5565,-3.6303,-3.6654,-3.6215,-3.5901,-3.5741,-3.5792,-3.6145,-3.6338,-3.6338,-3.5583,-3.4811,-3.4038,-3.2809,-3.1668,-3.058,-3.0124,-2.9316,-2.8228,-2.8652,-2.9087,-2.9563,-3.0419,-3.0754,-3.0761,-3.1798,-3.189,-3.1469,-3.2092,-3.2284,-3.2259,-3.2626,-3.2407,-3.1835,0.0,0.0,0.0,0.0,0.0,0.0,0.0,0.0,0.0,0.0,0.0,0.0,0.0,0.0,0.0,0.0,0.0,0.0,0.0,0.0,-0.8577,-0.9262,-0.9285,-0.9636,-1.0415,-1.0536,-1.0634,-1.074,-1.139,-1.171,-1.1727,-1.2139,-1.2401,-1.2505,-1.2392,-1.204,-1.1603,-1.2249,-1.0983,-0.8672,-1.0047,-0.9402,-0.7697,0.0,-0.9267,-0.9893,-1.0137,-1.1941,-1.46,-1.7211,-1.912,-2.0828,-2.3448,-2.5919,-2.8408,-3.1236,-3.2811,-3.4229,-3.7063,-3.8629,-3.9515,-3.9808,-3.8839,-3.7206,-3.4849,-3.1793,-2.8252,-2.4022,-2.2042,-2.0942,-2.0489,-1.9524,-2.0251,-2.4682,-2.5046,-2.6539,-3.1668,-3.3143,-3.446,-3.6603,-3.7025,-3.7391,-3.8041,-3.8111,-3.8111,-3.8111,-3.7409,-3.6708,-3.6004,-3.6619,-3.7007,-3.7007,-3.632,-3.5653,-3.5022,-3.4196,-3.2967,-3.1352,-3.1352,-3.0492,-2.893,-2.9859,-3.0325,-3.0497,-3.1326,-3.105,-3.0204,-3.2153,-3.2224,-3.1251,-3.2483,-3.2892,-3.2773,-3.2702,-3.259,-3.2456,0.0,0.0,0.0,0.0,0.0,0.0,0.0,0.0,0.0,0.0,-0.7991,-0.8026,0.0,0.0,0.0,0.0,0.0,0.0,0.0,0.0,0.0,-0.7706,-0.8309,-0.8782,-0.9037,-0.964,-1.0241,-1.0869,-1.0418,-1.0177,-1.0177,-0.9666,-0.9445,-0.9465,-0.9445,-0.9363,-0.9283,-0.9415,-0.8821,-0.7863,-0.8738,-0.849,-0.7752,-0.9161,0.0,0.0,-1.1199,-1.2675,-1.4213,-1.7473,-1.9988,-2.24,-2.6092,-2.8612,-3.056,-3.2363,-3.475,-3.7041,-3.8198,-3.9358,-4.0141,-3.9932,-3.8082,-3.5604,-3.2988,-2.8853,-2.4861,-2.2352,-2.0199,-1.8992,-1.972,-2.0142,-2.1498,-2.4857,-2.6349,-2.8351,-3.1897,-3.3599,-3.4863,-3.5899,-3.7128,-3.797,-3.8093,-3.8111,-3.8111,-3.8111,-3.7409,-3.6937,-3.6814,-3.6919,-3.7007,-3.7007,-3.6867,-3.6744,-3.6603,-3.5811,-3.4318,-3.2195,-3.2195,-3.1036,-2.893,-2.9769,-3.055,-3.1292,-3.1466,-3.1905,-3.2526,-3.2909,-3.2595,-3.1931,-3.2928,-3.2847,-3.2239,-3.2806,-3.293,-3.2715,0.0,0.0,0.0,0.0,0.0,0.0,0.0,-0.7723,-0.7928,-0.7991,-0.8068,-0.8054,-0.7914,-0.8082,-0.8169,0.0,0.0,0.0,0.0,0.0,0.0,0.0,0.0,0.0,-0.8587,-0.895,-0.9301,-0.9652,0.0,-0.923,-0.9213,-0.8805,-0.8634,-0.8699,-0.8628,-0.8634,-0.8666,-0.8286,-0.7923,-0.7631,-0.7989,-0.7907,-0.7719,0.0,0.0,0.0,0.0,-1.173,-1.2776,-1.5539,-1.7927,-2.0508,-2.4828,-2.822,-3.0815,-3.1988,-3.4552,-3.724,-3.8222,-3.9732,-4.0857,-4.0089,-3.7577,-3.4411,-3.1098,-2.6963,-2.308,-2.0483,-1.9094,-1.8623,-1.9528,-1.9654,-2.0497,-2.319,-2.4576,-2.6542,-3.0071,-3.2265,-3.4073,-3.5617,-3.7143,-3.8269,-3.869,-3.9094,-3.9182,-3.8778,-3.8392,-3.7848,-3.7042,-3.7007,-3.7007,-3.7007,-3.7007,-3.7007,-3.7007,-3.6619,-3.5074,-3.2406,-3.3599,-3.2546,-2.9579,-3.1338,-3.2175,-3.2252,-3.2406,-3.2526,-3.2661,-3.3094,-3.3039,-3.2802,-3.3578,-3.3604,-3.324,-3.3508,-3.3303,-3.2846,0.0,0.0,0.0,0.0,0.0,0.0,0.0,-0.7455,-0.7882,-0.7848,-0.7846,-0.7867,-0.7899,-0.8047,-0.8128,0.0,0.0,0.0,0.0,0.0,0.0,0.0,0.0,0.0,0.0,0.0,0.0,-0.8551,-0.8646,0.0,0.0,0.0,0.0,0.0,-0.8563,-0.8569,-0.8632,-0.7885,-0.749,0.0,0.0,-0.7495,0.0,0.0,0.0,0.0,0.0,-1.0673,-1.1541,-1.3515,-1.5415,-1.7653,-2.1593,-2.5738,-2.933,-3.0272,-3.2881,-3.5797,-3.7463,-3.9319,-4.0543,-3.9516,-3.6719,-3.3178,-2.9299,-2.5528,-2.2019,-1.9109,-1.8495,-1.8758,-1.9538,-1.9039,-1.9257,-2.1598,-2.2317,-2.3949,-2.7844,-3.0422,-3.2757,-3.5038,-3.697,-3.8427,-3.9213,-3.9708,-3.9796,-3.9319,-3.9006,-3.8286,-3.706,-3.7007,-3.7007,-3.7007,-3.7007,-3.7007,-3.7007,-3.7007,-3.562,-3.2915,-3.4881,-3.4038,-3.0896,-3.2959,-3.3622,-3.3132,-3.3255,-3.3081,-3.2741,-3.3212,-3.3502,-3.3686,-3.398,-3.4096,-3.4081,-3.3942,-3.3484,-3.293,0.0,0.0,0.0,0.0,0.0,0.0,0.0,-0.7126,-0.7689,-0.7096,-0.7006,-0.7246,-0.7839,-0.8128,-0.8236,0.0,0.0,0.0,0.0,0.0,0.0,0.0,0.0,0.0,0.0,0.0,0.0,-0.8687,-0.8693,0.0,0.0,0.0,0.0,0.0,0.0,-0.8551,-0.8567,-0.7829,0.0,0.0,0.0,0.0,0.0,0.0,0.0,0.0,0.0,-1.0651,-1.1591,-1.3002,-1.4118,-1.5168,-1.6872,-2.0933,-2.5318,-2.6741,-2.9466,-3.2726,-3.5838,-3.7345,-3.7941,-3.7399,-3.4915,-3.1598,-2.7686,-2.4366,-2.1428,-1.9004,-1.8495,-1.8758,-1.9538,-1.9039,-1.9247,-2.154,-2.1394,-2.2347,-2.6188,-2.8794,-3.116,-3.3441,-3.6301,-3.8427,-3.9213,-3.8725,-3.8602,-3.9231,-3.7988,-3.7148,-3.7007,-3.7007,-3.7007,-3.7007,-3.7007,-3.7007,-3.7007,-3.7007,-3.6164,-3.4513,-3.5371,-3.488,-3.3195,-3.3442,-3.3687,-3.3867,-3.3219,-3.3497,-3.4335,-3.3665,-3.3828,-3.441,-3.3758,-3.3487,-3.3457,-3.3255,-3.3158,-3.307,0.0,0.0,0.0,0.0,0.0,0.0,-0.5976,-0.6706,-0.7144,-0.687,-0.684,-0.6808,-0.6706,-0.7124,-0.7581,-0.8056,0.0,0.0,0.0,0.0,0.0,0.0,0.0,0.0,0.0,0.0,-0.8457,-0.8457,-0.8538,0.0,0.0,0.0,0.0,0.0,0.0,-0.8634,-0.8603,-0.7835,0.0,0.0,0.0,0.0,0.0,0.0,0.0,0.0,0.0,0.0,-1.0006,-1.1056,-1.1914,-1.2656,-1.3265,-1.5795,-1.9149,-2.2279,-2.6276,-3.0231,-3.2835,-3.5389,-3.7236,-3.7058,-3.432,-3.0791,-2.7385,-2.3839,-2.0743,-1.8881,-1.8495,-1.86,-1.8916,-1.8683,-1.8583,-1.9063,-1.9629,-2.087,-2.3322,-2.61,-2.9101,-3.2389,-3.5069,-3.7156,-3.8441,-3.8743,-3.874,-3.8582,-3.7584,-3.7007,-3.7007,-3.7007,-3.7007,-3.7007,-3.7007,-3.7007,-3.7007,-3.7007,-3.6234,-3.4705,-3.5934,-3.546,-3.3529,-3.4712,-3.4799,-3.3992,-3.3966,-3.3906,-3.3846,-3.3538,-3.3882,-3.4555,-3.4262,-3.4117,-3.4102,-3.4042,-3.3704,-3.3271,0.0,0.0,0.0,0.0,0.0,-0.5145,-0.5422,-0.6072,-0.646,-0.6262,-0.6232,-0.6155,-0.5927,-0.6107,-0.6571,-0.7376,-0.7909,0.0,0.0,0.0,0.0,0.0,0.0,0.0,0.0,0.0,-0.8289,-0.8338,-0.8419,-0.8482,0.0,0.0,-0.8616,-0.864,0.0,0.0,0.0,0.0,0.0,0.0,0.0,0.0,0.0,0.0,0.0,0.0,0.0,0.0,0.0,0.0,0.0,-1.0948,-1.1241,0.0,0.0,-1.8288,-2.2466,-2.6528,-2.9231,-3.2175,-3.4542,-3.4881,-3.2371,-2.9088,-2.6212,-2.2926,-2.0093,-1.8776,-1.8495,-1.8495,-1.8495,-1.828,-1.7969,-1.7644,-1.8306,-1.9453,-2.1202,-2.4098,-2.7173,-3.0186,-3.2773,-3.5049,-3.6895,-3.8213,-3.8638,-3.783,-3.7306,-3.7007,-3.7007,-3.7007,-3.7007,-3.7007,-3.7007,-3.7007,-3.7007,-3.7007,-3.6463,-3.5391,-3.648,-3.6023,-3.4214,-3.5367,-3.5207,-3.3992,-3.4069,-3.3972,-3.3737,-3.3502,-3.3882,-3.4588,-3.4353,-3.4262,-3.4262,-3.4262,-3.3737,-3.3085,0.0,0.0,0.0,0.0,0.0,0.0,-0.4315,-0.5183,-0.5669,-0.5,-0.4922,-0.5168,-0.5823,-0.5322,-0.5198,-0.5858,-0.7195,0.0,0.0,0.0,0.0,0.0,0.0,0.0,0.0,0.0,-0.8267,-0.8389,-0.8396,-0.8438,-0.8497,-0.8431,-0.8438,-0.8497,0.0,0.0,0.0,0.0,0.0,0.0,0.0,0.0,0.0,0.0,0.0,0.0,0.0,0.0,0.0,0.0,0.0,0.0,0.0,0.0,0.0,0.0,-1.7805,-2.1063,-2.5062,-2.731,-2.8756,-2.9885,-2.8403,-2.602,-2.3668,-2.1364,-1.9468,-1.867,-1.8495,-1.8495,-1.8495,-1.7843,-1.7543,-1.8171,-1.7747,-1.8089,-2.0292,-2.3271,-2.5523,-2.6353,-2.918,-3.1987,-3.4402,-3.6738,-3.7812,-3.7077,-3.7007,-3.7007,-3.7007,-3.7007,-3.7007,-3.7007,-3.7007,-3.7007,-3.7007,-3.7007,-3.6989,-3.6989,-3.6989,-3.6566,-3.574,-3.5039,-3.4465,-3.3974,-3.3239,-3.3555,-3.4534,-3.3737,-3.3882,-3.4519,-3.3719,-3.3411,-3.3411,-3.3411,-3.2904,-3.2325,0.0,0.0,0.0,0.0,0.0,0.0,0.0,-0.5125,-0.5281,-0.5066,-0.5037,-0.4886,-0.4512,-0.4675,-0.492,-0.5135,-0.6017,0.0,0.0,0.0,0.0,0.0,0.0,0.0,0.0,0.0,-0.8157,-0.8191,-0.8292,-0.8341,-0.8364,-0.8428,-0.8482,-0.8498,-0.8463,-0.8447,0.0,0.0,0.0,0.0,0.0,0.0,-0.8681,0.0,0.0,0.0,0.0,0.0,0.0,0.0,0.0,0.0,0.0,0.0,0.0,-1.354,-1.5791,-1.8773,-2.1534,-2.3498,-2.5013,-2.5914,-2.48,-2.2979,-2.1188,-1.9784,-1.8643,-1.7843,-1.8116,-1.8495,-1.8495,-1.8253,-1.7776,-1.6935,-1.789,-1.8794,-1.8938,-2.2096,-2.548,-2.8431,-3.2546,-3.5386,-3.6178,-3.6917,-3.7253,-3.7025,-3.7007,-3.7007,-3.7007,-3.7206,-3.7243,-3.7007,-3.7225,-3.7225,-3.6989,-3.7225,-3.7225,-3.6989,-3.6443,-3.6057,-3.5775,-3.5187,-3.457,-3.3992,-3.3888,-3.3826,-3.3755,-3.3502,-3.3556,-3.3755,-3.3502,-3.3393,-3.3393,-3.3393,-3.2886,-3.2234,0.0,0.0,0.0,0.0,0.0,0.0,0.0,-0.4729,-0.4687,-0.4687,-0.4351,-0.4046,-0.3825,-0.4178,-0.4425,-0.4425,-0.484,0.0,0.0,0.0,0.0,0.0,0.0,0.0,-0.6568,-0.7232,-0.7618,-0.7682,-0.8018,-0.8223,-0.8299,-0.8383,-0.8431,-0.8428,-0.8431,-0.8422,0.0,0.0,0.0,0.0,0.0,0.0,-0.8751,0.0,0.0,0.0,0.0,0.0,0.0,0.0,0.0,0.0,0.0,0.0,0.0,0.0,-1.4056,-1.6046,-1.8268,-2.0094,-2.1557,-2.2359,-2.1604,-2.0357,-1.9072,-1.8415,-1.7914,-1.7396,-1.7931,-1.8495,-1.8495,-1.8218,-1.7749,-1.7057,-1.8058,-1.8776,-1.8262,-2.1502,-2.5276,-2.891,-3.3034,-3.5612,-3.5612,-3.6459,-3.7007,-3.7007,-3.7007,-3.7007,-3.7007,-3.7204,-3.7281,-3.7186,-3.7394,-3.7469,-3.743,-3.7468,-3.7413,-3.7186,-3.6409,-3.5804,-3.5355,-3.471,-3.411,-3.3598,-3.3727,-3.363,0.0,-3.3393,-3.3393,-3.3393,-3.3393,-3.3393,-3.3393,-3.3393,-3.2886,-3.2234,0.0,0.0,0.0,0.0,0.0,0.0,0.0,-0.4133,-0.3989,-0.3928,-0.3149,-0.2906,-0.3723,-0.3803,-0.3796,-0.3796,0.0,0.0,0.0,0.0,0.0,0.0,0.0,0.0,-0.565,-0.6347,-0.6813,-0.6992,-0.7665,-0.8082,-0.8253,-0.826,-0.8267,-0.8289,-0.8273,-0.828,-0.8268,-0.7706,-0.7873,-0.8461,-0.7967,-0.8177,0.0,0.0,0.0,0.0,0.0,0.0,0.0,0.0,0.0,0.0,0.0,0.0,0.0,0.0,0.0,0.0,0.0,-1.7081,-1.8354,-1.9099,-1.8741,-1.7976,-1.722,-1.7088,0.0,-1.7141,-1.7808,-1.8397,-1.8415,-1.7832,-1.7557,-1.8126,-1.8291,-1.8332,-1.8297,-2.1699,-2.5281,-2.816,-3.148,-3.3501,-3.3379,-3.5556,-3.6952,-3.69,-3.69,-3.6884,-3.6851,-3.6925,-3.7154,-3.7488,-3.7542,-3.7738,-3.8101,-3.7756,-3.7542,-3.7434,-3.6702,-3.5776,-3.4656,-3.3847,-3.3295,-3.2963,-3.2948,-3.3119,-3.3408,-3.3411,-3.3393,-3.3393,-3.3393,-3.3393,-3.3393,-3.3393,-3.2886,-3.2288,0.0,0.0,0.0,0.0,0.0,0.0,0.0,0.0,0.0,0.0,-0.3325,-0.3612,-0.3915,-0.3862,-0.3805,0.0,0.0,0.0,0.0,0.0,0.0,0.0,0.0,0.0,-0.5155,-0.6269,-0.688,-0.6915,-0.7604,-0.7899,-0.7846,-0.7948,-0.8012,-0.8076,-0.8066,-0.8153,-0.8293,-0.8154,-0.8252,-0.8487,-0.8419,-0.8592,0.0,0.0,0.0,0.0,-0.9166,-0.9154,0.0,0.0,0.0,0.0,0.0,0.0,0.0,0.0,-1.2665,-1.2871,-1.4053,0.0,-1.5027,-1.5212,-1.5124,-1.4923,0.0,-1.5108,-1.5537,-1.5479,-1.6579,-1.7579,-1.7505,-1.7854,-1.7974,-1.7468,-1.8832,-1.9733,-1.9142,-2.4389,-2.8601,-2.9395,-3.3272,-3.5431,-3.4267,-3.5734,-3.6521,-3.5893,-3.5955,-3.5848,-3.5491,-3.6396,-3.7077,-3.7419,-3.8015,-3.8263,-3.8101,-3.8263,-3.7887,-3.6958,-3.6215,-3.5407,-3.4519,-3.371,-3.3412,-3.3502,-3.3294,-3.3368,-3.3619,-3.3466,-3.3393,-3.3393,-3.3393,-3.3393,-3.3393,-3.3393,-3.2886,-3.2144,0.0,0.0,0.0,0.0,0.0,0.0,0.0,0.0,0.0,0.0,0.0,-0.3876,-0.3858,-0.3795,0.0,0.0,0.0,0.0,0.0,0.0,0.0,0.0,0.0,-0.4363,-0.4397,-0.5623,-0.6285,-0.6357,-0.7302,-0.779,-0.7841,-0.7921,-0.7992,-0.809,-0.8096,-0.8162,-0.8273,-0.7938,-0.8027,-0.8383,-0.8185,0.0,0.0,0.0,0.0,0.0,-0.9204,-0.9196,0.0,-0.9206,-0.9412,-0.9709,0.0,0.0,0.0,0.0,-1.1574,-1.1799,-1.2941,-1.3793,-1.4368,-1.4368,-1.4368,-1.4343,-1.4302,0.0,-1.5041,-1.5332,0.0,-1.7347,-1.7658,-1.8056,-1.8315,-1.8184,-1.9457,-2.0804,-2.178,-2.5774,-2.914,-3.0543,-3.358,-3.5372,-3.4903,-3.5638,-3.5832,-3.5048,-3.5054,-3.5054,-3.5013,-3.5645,-3.6457,-3.7359,-3.7463,-3.7649,-3.8001,-3.8395,-3.79,-3.6534,-3.6109,-3.543,-3.4482,-3.3668,-3.3455,-3.3684,-3.3408,-3.3437,-3.3684,-3.3495,-3.3393,-3.3393,-3.3393,-3.3393,-3.3393,-3.3393,-3.3121,-3.2687,0.0,0.0,0.0,0.0,0.0,0.0,0.0,0.0,0.0,0.0,0.0,0.0,0.0,0.0,0.0,0.0,0.0,0.0,0.0,0.0,0.0,0.0,-0.3693,-0.3735,-0.3833,-0.4918,-0.5601,-0.5835,-0.7012,-0.7709,-0.7935,-0.7949,-0.8034,-0.8157,-0.8193,-0.8234,-0.8249,-0.7627,-0.7756,-0.8316,-0.7859,0.0,0.0,0.0,0.0,0.0,0.0,0.0,0.0,-0.9191,-0.9204,-0.9194,-0.9196,0.0,0.0,0.0,0.0,0.0,-1.2175,-1.3636,-1.4706,-1.4714,-1.4888,-1.5045,-1.4906,0.0,0.0,0.0,0.0,0.0,-1.8158,-1.8378,-1.8745,-1.96,-2.0511,-2.2147,-2.5109,-2.6851,-2.8678,-3.1007,-3.2876,-3.4179,-3.4629,-3.4829,-3.4731,-3.421,-3.4072,-3.4191,-3.457,-3.4764,-3.5494,-3.6978,-3.6494,-3.6633,-3.7522,-3.805,-3.757,-3.6089,-3.608,-3.5512,-3.4418,-3.376,-3.3524,-3.361,-3.3439,-3.3454,-3.3561,-3.3441,-3.3393,-3.3393,-3.3393,-3.3393,-3.3393,-3.3393,-3.3393,-3.3375,0.0,0.0,0.0,0.0,0.0,0.0,0.0,0.0,0.0,0.0,0.0,0.0,0.0,0.0,0.0,0.0,0.0,0.0,0.0,0.0,0.0,-0.3612,-0.3668,-0.3945,-0.4453,-0.5091,-0.5766,-0.6467,-0.7164,-0.756,-0.7665,-0.7775,-0.7877,-0.7947,-0.8118,-0.8209,-0.8211,-0.8158,-0.8335,-0.8634,-0.855,0.0,0.0,0.0,0.0,0.0,0.0,0.0,0.0,-0.9206,-0.9204,-0.9196,-0.9194,0.0,0.0,0.0,0.0,0.0,-1.2182,-1.3184,-1.3809,-1.3864,-1.4871,-1.5653,-1.4968,-1.5349,0.0,0.0,0.0,0.0,0.0,-1.8765,-1.9675,-2.1034,-2.297,-2.5126,-2.754,-2.9213,-2.9886,-2.9023,-3.1404,-3.2647,-3.1526,-3.201,-3.2581,-3.308,-3.2603,-3.244,-3.2772,-3.3611,-3.4433,-3.5268,-3.5885,-3.609,-3.5882,-3.661,-3.6528,-3.5601,-3.5614,-3.5125,-3.424,-3.4111,-3.3777,-3.3278,-3.3587,-3.3435,-3.2956,-3.3261,-3.3393,-3.3393,-3.3393,-3.3393,-3.3393,-3.3393,-3.3393,-3.3302,0.0,0.0,0.0,0.0,0.0,0.0,0.0,0.0,0.0,0.0,0.0,0.0,0.0,0.0,0.0,0.0,0.0,0.0,0.0,0.0,-0.4314,-0.4713,-0.4761,-0.4747,-0.4661,-0.5608,-0.6285,-0.665,-0.6891,-0.7243,-0.7709,-0.7885,-0.797,-0.8018,-0.8096,-0.8175,-0.8209,-0.8314,-0.8441,-0.8602,0.0,0.0,0.0,0.0,0.0,0.0,0.0,0.0,0.0,0.0,-0.9173,-0.9204,-0.9204,0.0,0.0,0.0,0.0,0.0,-1.1006,-1.2134,-1.3112,-1.354,-1.4501,-1.5358,-1.5392,-1.5358,-1.5574,0.0,0.0,0.0,-1.8579,-1.9101,-2.0096,-2.2406,-2.437,-2.6109,-2.7592,-2.8747,-2.9334,-2.9023,-3.0231,-3.0972,-3.0731,-3.1007,-3.1334,-3.1679,-3.144,-3.1603,-3.2368,-3.2907,-3.3625,-3.46,-3.481,-3.5009,-3.5235,-3.4878,-3.4729,-3.4791,-3.5268,-3.5045,-3.4197,-3.4197,-3.4041,-3.3794,-3.3907,-3.3807,-3.3506,-3.309,-3.3162,-3.3512,-3.2962,-3.3013,-3.3393,-3.3393,-3.3393,-3.3357,0.0,0.0,0.0,0.0,0.0,0.0,0.0,0.0,0.0,0.0,0.0,0.0,0.0,0.0,0.0,0.0,0.0,0.0,0.0,0.0,-0.4863,-0.5579,-0.58,-0.567,-0.515,-0.5994,-0.6532,-0.673,-0.6512,-0.6818,-0.7624,-0.7952,-0.8106,-0.8096,-0.8109,-0.8139,-0.8181,-0.8138,-0.8274,-0.8513,0.0,0.0,0.0,0.0,0.0,0.0,0.0,0.0,0.0,0.0,0.0,0.0,0.0,0.0,0.0,-0.919,-0.9147,-0.9294,-1.0221,-1.1343,-1.2455,-1.338,-1.4468,-1.5512,-1.627,-1.6262,-1.6496,-1.7821,-1.8086,-1.8482,-1.9855,-2.0251,-2.1101,-2.3422,-2.5249,-2.6661,-2.7437,-2.8196,-2.8868,-2.9437,-2.9351,-2.9627,-3.061,-3.0231,-3.0214,-3.0886,-3.0455,-3.0699,-3.1933,-3.1947,-3.2475,-3.3653,-3.3444,-3.3643,-3.433,-3.3197,-3.3042,-3.3918,-3.4395,-3.4284,-3.3652,-3.3826,-3.3743,-3.3466,-3.3715,-3.3611,-3.3215,-3.2524,-3.2556,-3.2995,-3.2214,-3.2415,-3.3121,-3.3121,-3.3248,-3.3393,0.0,0.0,0.0,0.0,0.0,0.0,0.0,0.0,0.0,0.0,0.0,0.0,0.0,0.0,0.0,0.0,0.0,0.0,0.0,0.0,-0.4692,-0.5308,-0.61,-0.6515,-0.6468,-0.595,-0.6054,-0.6795,-0.6162,-0.6273,-0.7077,-0.7772,-0.8092,-0.8099,-0.8096,-0.8109,-0.807,-0.7527,-0.7797,-0.8544,-0.7988,0.0,0.0,0.0,0.0,0.0,0.0,0.0,0.0,0.0,0.0,0.0,0.0,0.0,-0.9196,-0.912,-0.9109,-0.9415,-1.0907,-1.1391,-1.1816,-1.3242,-1.5219,-1.7053,-1.7855,-1.9051,-2.0251,-2.1096,-2.1268,-2.1509,-2.2302,-2.3009,-2.356,-2.3767,-2.573,-2.7471,-2.8213,-2.8954,-2.9455,-2.9506,-2.8903,-2.9058,-3.0559,-2.8782,-2.8696,-3.1507,-2.9765,-2.923,-3.0732,-3.0248,-3.043,-3.1574,-3.1716,-3.1978,-3.2395,-3.1764,-3.198,-3.3083,-3.2388,-3.2035,-3.1998,-3.276,-3.2315,-3.1022,-3.2398,-3.207,-3.0614,-3.1163,-3.13,-3.1193,-3.1107,-3.1582,-3.2288,-3.2288,-3.2759,-3.3393,0.0,0.0,0.0,0.0,0.0,0.0,0.0,0.0,0.0,0.0,0.0,0.0,0.0,0.0,0.0,0.0,0.0,0.0,0.0,-0.5012,-0.5337,-0.6013,-0.6716,-0.6921,-0.6551,-0.6489,-0.6413,-0.6305,-0.6469,-0.67,-0.7013,-0.7665,-0.8027,-0.8107,-0.8106,-0.8144,-0.822,-0.8115,-0.8317,-0.8718,-0.8565,-0.8717,0.0,0.0,0.0,0.0,0.0,0.0,0.0,0.0,-0.9229,-0.9162,-0.9204,-0.9186,-0.9043,-0.8563,-0.909,-0.987,-0.9956,-1.1332,-1.301,-1.4022,-1.5277,0.0,0.0,-1.8581,-1.9889,-2.0687,-2.1613,-2.2371,-2.2647,-2.2923,-2.3422,-2.4388,-2.5298,-2.6126,-2.6868,-2.7213,-2.723,-2.6764,-2.6454,-2.6506,-2.7092,-2.6385,-2.673,-2.8834,-2.8196,-2.8368,-2.9868,-2.9781,-2.9916,-3.0392,-3.071,-3.0936,-3.1128,-3.0119,-2.9923,-3.0522,-3.0873,-3.1329,-3.1812,-3.2128,-3.1946,-3.1421,-3.2054,-3.1968,-3.1332,-3.0998,-3.107,-3.1352,-3.1093,-3.1487,-3.2198,-3.2198,-3.2705,-3.3393,0.0,0.0,0.0,0.0,0.0,0.0,0.0,0.0,0.0,0.0,0.0,0.0,0.0,0.0,0.0,0.0,0.0,0.0,-0.5281,-0.5498,-0.5902,-0.6587,-0.7121,-0.7004,-0.6176,-0.6618,-0.6607,-0.6057,-0.646,-0.6728,-0.6885,-0.7581,-0.7956,-0.8041,-0.8126,-0.8214,-0.8293,-0.829,-0.8483,-0.8788,-0.8697,-0.88,0.0,0.0,0.0,0.0,0.0,0.0,0.0,0.0,-0.9334,-0.9265,-0.9306,-0.9234,-0.9034,-0.8519,-0.9116,-0.9904,-0.9852,-1.1498,-1.3493,-1.4486,0.0,0.0,-1.7542,-1.8702,-1.9934,-2.1221,-2.2513,-2.324,-2.2785,-2.2875,-2.3223,-2.3819,-2.4729,-2.5454,-2.5697,-2.5939,-2.6023,-2.5764,-2.5298,-2.5281,-2.6006,-2.5643,-2.6092,-2.7851,-2.7558,-2.7833,-2.9092,-2.9021,-2.9087,-2.9395,-2.9697,-2.9895,-2.997,-2.895,-2.8583,-2.8838,-2.9403,-3.002,-3.0641,-3.092,-3.1043,-3.1054,-3.1169,-3.1158,-3.1046,-3.0464,-3.0439,-3.0704,-3.0368,-3.0731,-3.1451,-3.1451,-3.1944,-3.2632,0.0,0.0,0.0,0.0,0.0,0.0,0.0,0.0,0.0,0.0,0.0,0.0,0.0,0.0,0.0,0.0,0.0,0.0,-0.5219,-0.5705,-0.6273,-0.6868,-0.7227,-0.6771,-0.5435,-0.619,-0.645,-0.6171,-0.5974,-0.6123,-0.6622,-0.7501,-0.7906,-0.7918,-0.8178,-0.8294,-0.8267,-0.7818,-0.8072,-0.8755,-0.8148,-0.8354,-0.9022,0.0,0.0,0.0,0.0,0.0,0.0,0.0,-0.9399,-0.9399,-0.9399,-0.9311,-0.9211,-0.9194,-0.9181,-0.9467,-1.101,-1.1954,-1.2904,-1.4425,0.0,0.0,-1.912,-1.9872,-2.1046,-2.3323,-2.4382,-2.4454,-2.2978,-2.3265,-2.3237,-2.1854,-2.4112,-2.5801,-2.5092,-2.5609,-2.6368,-2.7161,-2.5902,-2.5868,-2.8127,-2.6971,-2.7023,-2.9299,-2.8092,-2.7592,-2.8351,-2.7678,-2.764,-2.8445,-2.8595,-2.8692,-2.8784,-2.8308,-2.8215,-2.8467,-2.7956,-2.7833,-2.8133,-2.9006,-2.9409,-2.9402,-2.9472,-2.9341,-2.9112,-2.931,-2.9203,-2.8893,-2.8675,-2.9101,-2.9802,-2.9802,-3.031,-3.0998,0.0,0.0,0.0,0.0,0.0,0.0,0.0,0.0,0.0,0.0,0.0,0.0,0.0,0.0,0.0,0.0,0.0,0.0,-0.6054,-0.627,-0.6436,-0.6615,-0.7129,-0.7025,-0.6197,-0.567,-0.4905,-0.3874,-0.4288,-0.5339,-0.6972,-0.7708,-0.8032,-0.8053,-0.8267,-0.8454,-0.8573,-0.8439,-0.856,-0.8858,-0.872,-0.8803,-0.9018,0.0,0.0,0.0,0.0,0.0,0.0,0.0,0.0,0.0,-0.9473,-0.9741,-0.9925,-0.9369,-1.0662,-1.2251,-1.2132,-1.385,-1.5631,-1.5463,-1.6744,-1.8078,-1.8328,-1.9795,-2.1619,-2.3433,-2.4411,-2.4666,-2.365,-2.365,-2.3636,-2.3233,-2.3457,-2.3802,-2.4112,-2.3905,-2.3802,-2.4026,-2.3646,-2.3646,-2.4319,-2.3974,-2.4439,-2.6195,-2.5937,-2.6247,-2.7558,-2.6885,-2.6603,-2.6868,-2.6457,-2.6531,-2.7195,-2.6532,-2.6592,-2.7355,-2.7261,-2.7832,-2.9025,-2.9285,-2.9407,-2.9409,-2.9481,-2.9401,-2.9229,-2.9093,-2.8991,-2.8893,-2.8675,-2.9101,-2.9802,-2.9802,-3.031,-3.0998,0.0,0.0,0.0,0.0,0.0,0.0,0.0,0.0,0.0,0.0,0.0,0.0,0.0,0.0,0.0,0.0,0.0,0.0,0.0,-0.6723,-0.6857,-0.6857,-0.7255,-0.735,-0.7062,-0.6135,-0.529,-0.4571,-0.489,-0.5899,-0.7546,-0.8013,-0.82,-0.8174,-0.8087,-0.8274,-0.8642,-0.8431,-0.8555,-0.8902,-0.8981,-0.8997,-0.9029,0.0,0.0,0.0,0.0,0.0,0.0,0.0,0.0,0.0,-0.92,-0.9542,-0.9938,-0.9388,-1.0919,-1.2778,-1.2822,-1.465,-1.6507,-1.6245,-1.7339,-1.8454,-1.841,-2.0179,-2.22,-2.3453,-2.4099,-2.4302,-2.3804,-2.3718,-2.3632,-2.3368,-2.3467,-2.3636,-2.377,-2.3422,-2.3147,-2.3147,-2.2888,-2.2819,-2.3112,-2.3147,-2.3646,-2.4919,-2.5005,-2.5402,-2.6333,-2.5937,-2.5675,-2.5717,-2.5354,-2.5439,-2.5981,-2.5565,-2.5879,-2.6934,-2.6978,-2.7723,-2.9034,-2.8809,-2.896,-2.9396,-2.9328,-2.9318,-2.9307,-2.894,-2.8834,-2.8893,-2.8675,-2.8889,-2.9318,-2.9318,-2.9626,-3.0043,0.0,0.0,0.0,0.0,0.0,0.0,0.0,0.0,0.0,0.0,0.0,0.0,0.0,0.0,0.0,0.0,0.0,0.0,0.0,0.0,-0.7446,-0.7446,-0.7575,-0.7746,-0.7935,-0.7283,-0.7033,-0.7203,-0.7036,-0.7359,-0.8144,-0.8326,-0.8374,-0.8303,-0.7814,-0.7981,-0.8585,-0.8103,-0.8288,-0.8897,-0.8974,-0.9013,-0.904,-0.9314,0.0,0.0,0.0,0.0,0.0,0.0,0.0,0.0,-0.8846,-0.9121,-0.9694,-0.9581,-1.0623,-1.2106,-1.3376,-1.4796,-1.6079,-1.6734,-1.8055,-1.919,-1.9193,-2.0896,-2.2641,-2.3184,-2.3508,-2.3676,-2.3525,-2.3557,-2.34,-2.2801,-2.3824,-2.4488,-2.3891,-2.3736,-2.3698,-2.3698,-2.3112,-2.2957,-2.3629,-2.3698,-2.4026,-2.4818,-2.4902,-2.4919,-2.5005,-2.4936,-2.4902,-2.4902,-2.4884,-2.4951,-2.5091,-2.516,-2.5764,-2.6863,-2.6863,-2.7346,-2.8238,-2.7956,-2.8396,-2.9376,-2.9119,-2.9134,-2.932,-2.8815,-2.8712,-2.8839,-2.8675,-2.86,-2.86,-2.86,-2.86,-2.86,0.0,0.0,0.0,0.0,0.0,0.0,0.0,0.0,0.0,0.0,0.0,0.0,0.0,0.0,0.0,0.0,0.0,0.0,0.0,0.0,-0.7797,-0.7797,-0.7969,-0.8108,-0.8216,-0.8058,-0.7998,-0.8049,-0.8058,-0.791,-0.7671,-0.8215,-0.8472,-0.846,-0.8446,-0.855,-0.8747,-0.8644,-0.8712,-0.8908,-0.9022,-0.908,-0.9111,-0.9367,-0.9469,0.0,0.0,0.0,0.0,0.0,0.0,0.0,-0.9496,-1.033,-1.1378,-1.1353,-1.2806,-1.4556,-1.521,-1.5714,-1.6173,-1.6689,-1.7939,-1.934,-2.0467,-2.1573,-2.2061,-2.1126,-2.2863,-2.4169,-2.2962,-2.3257,-2.3596,-2.3431,-2.3275,-2.3295,-2.3666,-2.3261,-2.294,-2.294,-2.2802,-2.275,-2.2923,-2.294,-2.325,-2.4008,-2.406,-2.4336,-2.4971,-2.4405,-2.406,-2.406,-2.3559,-2.3636,-2.4338,-2.4405,-2.4883,-2.5742,-2.5742,-2.5972,-2.6439,-2.8019,-2.8946,-2.9312,-2.9096,-2.8998,-2.898,-2.8724,-2.8625,-2.8662,-2.8612,-2.86,-2.86,-2.86,-2.86,-2.86,0.0,0.0,0.0,0.0,0.0,0.0,0.0,0.0,0.0,0.0,0.0,0.0,0.0,0.0,0.0,0.0,0.0,0.0,0.0,0.0,-0.7884,-0.794,-0.8101,-0.8238,-0.8293,-0.8358,-0.8396,-0.8396,-0.8491,-0.8345,-0.7987,-0.8407,-0.8587,-0.8577,-0.8296,-0.8414,-0.8776,-0.8427,-0.8516,-0.892,-0.9043,-0.9093,-0.9124,-0.9399,-0.9495,-0.9516,-0.9649,0.0,0.0,0.0,0.0,0.0,0.0,0.0,-1.0903,-1.1239,-1.2651,-1.441,-1.5584,-1.6261,-1.6652,-1.6765,-1.7878,-1.9065,-1.9481,-2.0703,-2.1563,-2.0836,-2.2249,-2.3397,-2.2558,-2.2767,-2.3081,-2.3039,-2.2781,-2.2729,-2.3124,-2.29,-2.2699,-2.2699,-2.2699,-2.2699,-2.2699,-2.2699,-2.2854,-2.325,-2.3267,-2.3457,-2.3884,-2.3509,-2.3267,-2.3267,-2.2928,-2.2981,-2.3471,-2.3537,-2.3999,-2.4835,-2.4857,-2.5203,-2.5868,-2.7495,-2.8313,-2.8445,-2.8699,-2.8803,-2.8779,-2.8662,-2.86,-2.86,-2.86,-2.86,-2.86,-2.86,-2.86,-2.86,0.0,0.0,0.0,0.0,0.0,0.0,0.0,0.0,0.0,0.0,0.0,0.0,0.0,0.0,0.0,0.0,0.0,0.0,0.0,0.0,0.0,-0.8046,-0.8171,-0.8278,-0.8345,-0.8453,-0.8516,-0.8528,-0.8646,-0.864,-0.8544,-0.8646,-0.8699,-0.8666,-0.8055,-0.816,-0.8748,-0.8142,-0.8291,-0.892,-0.9059,-0.9129,-0.9179,-0.9421,-0.9525,-0.9546,-0.9653,-0.9702,-0.9702,-0.9702,0.0,0.0,0.0,0.0,-1.0023,-1.0562,-1.1644,-1.304,-1.4873,-1.6158,-1.6926,-1.6823,-1.7856,-1.8741,-1.8132,-1.9553,-2.1038,-2.1173,-2.1841,-2.2366,-2.231,-2.2349,-2.2408,-2.2377,-2.246,-2.2525,-2.2582,-2.2646,-2.2699,-2.2699,-2.2699,-2.2699,-2.2699,-2.2699,-2.2699,-2.2699,-2.2699,-2.2699,-2.2699,-2.2699,-2.2699,-2.2699,-2.2699,-2.2725,-2.2803,-2.2868,-2.3271,-2.399,-2.4072,-2.4524,-2.5371,-2.6393,-2.7013,-2.7295,-2.7919,-2.8215,-2.8245,-2.8196,-2.8274,-2.8382,-2.8382,-2.8491,-2.86,-2.86,-2.86,-2.86,0.0,0.0,0.0,0.0,0.0,0.0,0.0,0.0,0.0,0.0,0.0,0.0,0.0,0.0,0.0,0.0,0.0,0.0,-0.768,0.0,0.0,-0.8254,-0.8331,-0.8425,-0.8551,-0.8575,-0.8622,-0.8681,-0.8693,-0.8693,-0.8681,-0.8693,-0.8699,-0.8699,-0.86,-0.8606,-0.8717,-0.8671,-0.8785,-0.8997,-0.9131,-0.9261,-0.9372,-0.9534,-0.9621,-0.9683,-0.9694,-0.9702,-0.9702,-0.9702,-0.9702,0.0,0.0,0.0,-1.0761,-1.0853,-1.1027,-1.1486,-1.2913,-1.4622,-1.6108,-1.6588,-1.7822,-1.886,-1.8775,-1.9473,-2.0352,-2.1055,-2.18,-2.231,-2.2296,-2.2349,-2.2394,-2.2324,-2.246,-2.2582,-2.2528,-2.2619,-2.2699,-2.2699,-2.2699,-2.2699,-2.2699,-2.2699,-2.2699,-2.2699,-2.2699,-2.2699,-2.2699,-2.2699,-2.2699,-2.2699,-2.2699,-2.2725,-2.2803,-2.2868,-2.2997,-2.3165,-2.324,-2.3325,-2.3485,-2.434,-2.5287,-2.6303,-2.6457,-2.6476,-2.6447,-2.6513,-2.6916,-2.7568,-2.7568,-2.7984,-2.86,-2.86,-2.86,-2.86,0.0,0.0,0.0,0.0,0.0,0.0,0.0,0.0,0.0,0.0,0.0,0.0,0.0,0.0,0.0,-0.7271,-0.7268,-0.7365,-0.7687,-0.7949,-0.8168,-0.8287,-0.8364,-0.8457,-0.8587,-0.8594,-0.8634,-0.8699,-0.8699,-0.8699,-0.8699,-0.8699,-0.8699,-0.8699,-0.8699,-0.8717,-0.8763,-0.8777,-0.888,-0.9018,-0.9151,-0.9014,-0.8794,-0.9383,-0.9329,-0.903,-0.9529,-0.9702,-0.9702,-0.9702,-0.9702,-0.9702,-0.9702,0.0,0.0,0.0,-1.0893,-1.1278,-1.3045,-1.4395,-1.5669,-1.716,-1.7661,-1.7887,-1.834,-1.8937,-1.9604,-2.0382,-2.1143,-2.1803,-2.2212,-2.2324,-2.2338,-2.231,-2.2422,-2.2487,-2.2446,-2.2569,-2.2646,-2.2646,-2.2672,-2.2699,-2.2699,-2.2699,-2.2699,-2.2699,-2.2699,-2.2699,-2.2699,-2.2699,-2.2699,-2.2699,-2.2699,-2.2712,-2.2751,-2.2855,-2.294,-2.3057,-2.3095,-2.3107,-2.3107,-2.347,-2.4164,-2.512,-2.5715,-2.5949,-2.5948,-2.6122,-2.6409,-2.6771,-2.7224,-2.7622,-2.7984,-2.8437,-2.86,-2.86,0.0,0.0,0.0,0.0,0.0,0.0,0.0,0.0,0.0,0.0,0.0,0.0,0.0,0.0,0.0,0.0,-0.7612,-0.7635,-0.7761,-0.8043,-0.8224,-0.8276,-0.8338,-0.8425,-0.8538,-0.8563,-0.8616,-0.8681,-0.8693,-0.8699,-0.8699,-0.8887,-0.887,-0.8699,-0.8699,-0.8723,-0.8775,-0.88,-0.888,-0.9043,-0.9129,-0.881,-0.8283,-0.8653,-0.8628,-0.8482,-0.9155,-0.9533,-0.9702,-0.9702,-0.9702,-0.9702,-0.9702,-0.9702,0.0,0.0,0.0,-1.094,-1.2657,-1.3574,-1.4605,-1.6851,-1.7011,-1.687,-1.7817,-1.8325,-1.8826,-1.9575,-2.0196,-2.0852,-2.1569,-2.1874,-2.1941,-2.1755,-2.1942,-2.2133,-2.2129,-2.2422,-2.2623,-2.2619,-2.2672,-2.2699,-2.2699,-2.2699,-2.2699,-2.2699,-2.2699,-2.2699,-2.2699,-2.2699,-2.2699,-2.2699,-2.2699,-2.2699,-2.2699,-2.2842,-2.297,-2.3107,-2.3107,-2.3107,-2.3107,-2.3107,-2.3435,-2.404,-2.4814,-2.5175,-2.5224,-2.5469,-2.571,-2.595,-2.6554,-2.6916,-2.717,-2.7767,-2.8129,-2.8292,0.0,0.0,0.0,0.0,0.0,0.0,0.0,0.0,0.0,0.0,0.0,0.0,-0.6643,-0.669,-0.6992,-0.7731,-0.7783,-0.7849,-0.7979,-0.8121,-0.8197,-0.8197,-0.8265,0.0,-0.8415,-0.8482,-0.8544,-0.861,-0.8658,-0.8699,-0.8716,-0.9425,-0.9368,-0.8699,-0.8699,-0.8699,-0.8711,-0.8771,-0.8913,-0.9088,-0.9093,-0.8824,-0.8265,-0.7039,-0.7339,-0.8411,-0.8531,-0.9052,-0.9702,-0.9702,-0.9702,-0.9702,-0.9702,-0.9702,-0.9702,0.0,0.0,0.0,-1.0502,-1.1222,-1.2327,-1.4674,-1.5552,-1.6201,-1.7523,-1.7845,-1.807,-1.8809,-1.899,-1.9249,-1.9968,-2.0737,-2.1021,-2.0238,-2.0819,-2.1373,-2.1434,-2.212,-2.2619,-2.2685,-2.2699,-2.2699,-2.2699,-2.2699,-2.2699,-2.2699,-2.2699,-2.2699,-2.2699,-2.2699,-2.2699,-2.2699,-2.2699,-2.2699,-2.2699,-2.2842,-2.297,-2.3107,-2.3107,-2.3107,-2.3107,-2.3107,-2.3125,-2.3172,-2.3359,-2.3496,-2.3624,-2.377,-2.4324,-2.5063,-2.5117,-2.5588,-2.6276,-2.6301,-2.6808,-2.7459,0.0,0.0,0.0,0.0,0.0,0.0,0.0,0.0,0.0,0.0,0.0,0.0,0.0,-0.7196,-0.7538,-0.7899,-0.8007,-0.8034,-0.8005,-0.8171,-0.8305,-0.8396,-0.8335,-0.8419,-0.8658,-0.864,-0.8689,-0.8789,-0.8858,-0.9128,-0.9592,-0.9334,-0.9104,-0.8908,-0.9259,-0.9166,-0.8769,-0.88,-0.9242,-0.9888,-0.9323,-0.8829,-0.825,-0.6957,-0.6664,-0.7054,-0.8112,-0.9015,-0.9772,-1.0296,-1.0476,-1.0476,-1.0476,-1.0117,-0.9702,-0.9702,-0.9676,-0.9704,-0.9869,-1.0493,-1.1494,-1.3205,-1.3697,-1.4146,-1.566,-1.6194,-1.6593,-1.7331,-1.8245,-1.8843,-1.8628,-1.9592,-2.0335,-2.0052,-2.0259,-2.0666,-2.125,-2.1622,-2.2017,-2.2567,-2.2672,-2.2699,-2.2699,-2.2699,-2.2699,-2.2699,-2.2699,-2.2699,-2.2699,-2.2699,-2.2699,-2.2699,-2.2699,-2.2725,-2.2764,-2.2838,-2.2957,-2.3045,-2.3082,-2.3107,-2.3107,-2.3107,-2.3107,-2.3089,-2.3156,-2.3301,-2.3505,-2.3544,-2.3822,-2.4284,-2.475,-2.5134,-2.5497,-2.6023,-2.6373,-2.6627,0.0,0.0,0.0,0.0,0.0,0.0,0.0,0.0,0.0,-0.7359,0.0,0.0,0.0,0.0,-0.8349,-0.8713,-0.8856,-0.8807,-0.8493,-0.8604,-0.8629,-0.8507,-0.8415,-0.8485,-0.8755,-0.8754,-0.8917,-0.9275,-0.9094,-0.9509,-1.0487,-0.994,-0.9553,-0.9367,-0.9986,-0.9727,-0.881,-0.8846,-0.9441,-1.0307,-1.0045,-0.9318,-0.8337,-0.7813,-0.7483,-0.7441,-0.8523,-0.9588,-1.0502,-1.0498,-1.0732,-1.0971,-1.0604,-1.0135,-0.9702,-0.9702,-0.9676,0.0,-0.9638,0.0,-1.0521,-1.1068,-1.1711,-1.2508,-1.3527,-1.4521,-1.5578,-1.6824,-1.7653,-1.8093,-1.7834,-1.8594,-1.927,-1.927,-1.9473,-1.9849,-2.0446,-2.0798,-2.1306,-2.2142,-2.228,-2.2423,-2.2681,-2.2699,-2.2699,-2.2699,-2.2699,-2.2699,-2.2699,-2.2699,-2.2699,-2.2699,-2.2699,-2.2725,-2.2803,-2.2868,-2.2927,-2.3008,-2.3082,-2.3107,-2.3107,-2.3107,-2.3107,-2.3107,-2.3107,-2.3253,-2.3505,-2.3505,-2.3611,-2.3815,-2.4324,-2.4534,-2.4639,-2.5197,-2.557,-2.5805,0.0,0.0,0.0,0.0,0.0,0.0,0.0,0.0,-0.7193,-0.7916,0.0,0.0,0.0,0.0,0.0,-1.0142,-1.0314,-1.0136,-0.9487,-0.944,-0.9171,-0.8607,-0.8581,-0.8643,-0.8775,-0.8818,-0.9235,-1.004,-0.9378,-0.9835,-1.1331,-1.1257,-1.0787,-1.0054,-1.0828,-1.0289,-0.8818,-0.8946,-0.9462,-1.0273,-1.1212,-1.0326,-0.8581,-0.9498,-0.9777,-0.9693,-0.9735,-1.0764,-1.1856,-1.0304,-1.047,-1.1127,-1.0047,-0.9702,-0.9702,-0.9702,0.0,0.0,0.0,0.0,0.0,-0.8304,-0.9759,-1.1419,-1.1337,-1.2909,-1.5011,-1.7202,-1.7111,-1.6857,-1.7563,-1.7732,-1.7766,-1.78,-1.8403,-1.8912,-1.8983,-1.9677,-2.0502,-2.1361,-2.1519,-2.1854,-2.2595,-2.2664,-2.2681,-2.2699,-2.2699,-2.2699,-2.2699,-2.2699,-2.2699,-2.2699,-2.2699,-2.2725,-2.2803,-2.2868,-2.2927,-2.3008,-2.307,-2.3107,-2.3107,-2.3107,-2.3107,-2.3107,-2.3107,-2.3253,-2.3494,-2.3494,-2.3567,-2.3711,-2.3771,-2.375,-2.3721,-2.3782,-2.4284,-2.4954,0.0,0.0,0.0,0.0,0.0,0.0,-0.6907,-0.7496,-0.7997,0.0,0.0,0.0,-0.9209,-0.9718,-1.0094,-1.0331,-1.0371,-1.0383,-1.0348,-1.034,-1.0378,-1.0451,-1.0363,-1.0424,-1.0648,-1.0103,-1.0231,-1.1084,-1.0354,-1.0796,-1.2309,-1.1649,-1.0971,-1.0297,-1.0469,-0.995,-0.8959,-0.9033,-0.9533,-1.033,-1.0881,-1.0745,-1.0256,-1.0711,-1.0398,-0.9783,-1.0406,-1.1261,-1.2021,-1.1586,-1.1641,-1.1622,-1.0157,-0.9702,0.0,-0.9702,0.0,0.0,-0.9698,0.0,0.0,0.0,0.0,0.0,-1.1329,-1.1905,-1.2519,-1.3724,-1.4586,-1.5163,-1.5383,-1.6289,-1.7179,-1.7698,-1.7969,-1.8336,-1.8978,-1.9257,-1.9732,-2.0594,-2.0722,-2.1044,-2.182,-2.1906,-2.213,-2.2664,-2.2699,-2.2699,-2.2699,-2.2699,-2.2699,-2.2699,-2.2699,-2.2712,-2.2725,-2.2842,-2.2919,-2.2932,-2.3028,-2.3107,-2.3107,-2.3107,-2.3107,-2.3107,-2.3107,-2.3205,-2.3348,-2.3253,-2.3389,-2.3689,-2.3611,-2.366,-2.3764,-2.3785,-2.394,-2.4121,0.0,0.0,0.0,0.0,0.0,-0.7093,-0.7349,-0.7712,-0.8039,0.0,0.0,0.0,-1.0248,-1.0925,-1.1328,-1.1328,-1.1364,-1.1279,-1.1017,-1.1181,-1.1212,-1.1071,-1.111,-1.1226,-1.1433,-1.0985,-1.1155,-1.2006,-1.1264,-1.1691,-1.3176,-1.234,-1.1727,-1.1309,-1.0923,-1.0261,-0.9469,-0.9613,-1.0119,-1.072,-0.9961,-1.0128,-1.0937,-1.1676,-1.1435,-1.0852,-1.2036,-1.2732,-1.2994,-1.2333,-1.2095,-1.1751,-0.9684,-0.957,-1.0131,-0.979,-0.9702,0.0,0.0,0.0,0.0,-0.9191,0.0,0.0,-0.9752,-1.0434,-1.1018,-1.1009,-1.1625,-1.2737,-1.4605,-1.5494,-1.635,-1.7641,-1.733,-1.7318,-1.8438,-1.8614,-1.8944,-1.9791,-1.9918,-2.0239,-2.1027,-2.1096,-2.1423,-2.2181,-2.2233,-2.2371,-2.2681,-2.2699,-2.2699,-2.2699,-2.2699,-2.2699,-2.2699,-2.2803,-2.2881,-2.2906,-2.302,-2.3065,-2.3107,-2.3107,-2.3107,-2.3107,-2.3107,-2.3126,-2.3217,-2.3132,-2.3259,-2.3544,-2.3567,-2.3616,-2.3685,-2.3764,-2.3806,-2.3806,0.0,0.0,-0.585,-0.6601,-0.6781,-0.7016,-0.7552,-0.7715,-0.7935,0.0,-0.9241,-1.0291,-1.1612,-1.2304,-1.2668,-1.2668,-1.2769,-1.25,-1.1693,-1.2025,-1.1936,-1.1234,-1.1448,-1.1635,-1.1752,-1.169,-1.2036,-1.2826,-1.2109,-1.2473,-1.3878,-1.3159,-1.271,-1.2463,0.0,0.0,-1.0027,-1.0276,-1.0771,-1.124,-0.9176,-0.9386,-1.1077,-1.2322,-1.2567,-1.2425,-1.3851,-1.442,-1.4255,-1.2645,-1.2095,-1.1677,-0.9188,-0.9566,-1.0765,-1.0043,-0.9772,0.0,0.0,0.0,0.0,-0.8722,-0.8984,0.0,-0.787,-0.9075,-1.0181,-0.9156,-0.8998,-1.0259,-1.4242,-1.4783,-1.5225,-1.7101,-1.6373,-1.6111,-1.7695,-1.7966,-1.8277,-1.8995,-1.9143,-1.9476,-2.0205,-2.0274,-2.0613,-2.1406,-2.1556,-2.1888,-2.2543,-2.2664,-2.2699,-2.2699,-2.2699,-2.2699,-2.2699,-2.2777,-2.2842,-2.2906,-2.2982,-2.3045,-2.3107,-2.3107,-2.3107,-2.3107,-2.3107,-2.3107,-2.3107,-2.3107,-2.318,-2.3324,-2.3567,-2.36,-2.3533,-2.3718,-2.3795,-2.3806,0.0,-0.6016,-0.6609,-0.7352,-0.7927,-0.8337,-0.8452,-0.9014,-0.9467,-0.9578,-1.0756,-1.1722,-1.2076,-1.2682,-1.308,-1.308,-1.3114,-1.3099,-1.3093,-1.3176,-1.3196,-1.3156,-1.3256,-1.3325,-1.3347,-1.288,-1.2964,-1.3668,-1.297,-1.3077,-1.3896,-1.3738,-1.3001,-1.1797,-1.1632,-1.0744,-0.9378,-0.9544,-1.0123,-1.0947,-1.107,-1.1379,-1.1797,-1.2068,-1.2542,-1.3115,-1.3427,-1.3949,-1.4255,-1.2645,-1.2095,-1.1893,-1.0714,-1.06,-1.0875,-1.071,-1.0204,-0.9702,-0.9702,-0.9702,-0.9654,-0.9424,-0.947,0.0,-0.9955,-0.982,-0.9554,-0.9276,-0.9609,-1.0187,-1.0951,-1.2019,-1.3125,-1.4118,-1.4534,-1.5507,-1.7751,-1.8081,-1.8153,-1.8368,-1.8407,-1.87,-1.943,-1.9499,-1.9838,-2.0584,-2.1234,-2.166,-2.1815,-2.2371,-2.2699,-2.2699,-2.2699,-2.2699,-2.2699,-2.2829,-2.2893,-2.2906,-2.3015,-2.3095,-2.3107,-2.3107,-2.3107,-2.3107,-2.3107,-2.3107,-2.3107,-2.3107,-2.318,-2.3301,-2.336,-2.3499,-2.3667,-2.3711,-2.375,-2.3806,-0.6112,-0.6837,-0.7566,-0.8277,-0.8709,-0.8925,-0.8869,-0.9506,-0.9975,-0.9914,-1.1251,-1.2363,-1.28,-1.3084,-1.3244,-1.3244,-1.3303,-1.3346,-1.3346,-1.3544,-1.363,-1.3603,-1.3828,-1.3948,-1.3948,-1.3656,-1.367,-1.3995,-1.3595,-1.357,-1.3896,-1.3896,-1.3499,-1.2716,-1.192,-1.0966,-1.0021,-1.0394,-1.1053,-1.1742,-1.0563,-1.0757,-1.1692,-1.1545,-1.1766,-1.2255,-1.3063,-1.3592,-1.3581,-1.1586,-1.1966,-1.3044,-1.1558,-1.1283,-1.143,-1.1022,-1.0333,-0.9702,-0.9702,-0.9702,-0.9691,-0.9615,-0.9595,0.0,0.0,-0.9789,-0.9636,-1.0272,-0.9944,-0.9526,-0.9467,-1.0087,-1.1066,-1.2468,-1.3019,-1.3862,-1.5612,-1.6488,-1.7116,-1.7552,-1.7604,-1.7897,-1.8683,-1.8752,-1.9062,-1.9792,-2.0579,-2.1182,-2.1578,-2.194,-2.2319,-2.2681,-2.2699,-2.2699,-2.2699,-2.2803,-2.2868,-2.2906,-2.3008,-2.3082,-2.3107,-2.3107,-2.3107,-2.3107,-2.3107,-2.3107,-2.3107,-2.3107,-2.3144,-2.3205,-2.3277,-2.3418,-2.36,-2.3678,-2.3747,-2.3806,-0.7058,-0.7676,-0.8356,-0.9034,-0.9186,-0.9246,-0.9283,-0.9904,-1.0442,-1.0634,-1.1801,-1.2917,-1.3705,-1.3571,-1.3487,-1.3623,-1.3629,-1.3527,-1.3353,-1.3646,-1.3746,-1.358,-1.3916,-1.4127,-1.4163,-1.417,-1.4157,-1.4148,-1.403,-1.3951,-1.394,-1.3911,-1.3826,-1.3615,-1.2268,-1.1398,-1.1012,-1.1606,-1.2187,-1.2472,-1.01,-1.029,-1.1908,-1.1397,-1.1206,-1.1403,-1.2722,-1.315,-1.2802,-1.1021,-1.2234,-1.42,-1.2462,-1.2205,-1.237,-1.1407,-1.0553,-0.99,-0.9735,-0.9702,-0.9676,-0.9608,-0.9603,-0.9605,0.0,0.0,0.0,-1.086,-0.9945,-0.8953,-0.8925,-0.8925,-0.9417,-1.0971,-1.1459,-1.1905,-1.2628,-1.4005,-1.5294,-1.6226,-1.6347,-1.6708,-1.7666,-1.789,-1.8286,-1.9027,-1.9636,-2.032,-2.1113,-2.1285,-2.1716,-2.2457,-2.2492,-2.2561,-2.2699,-2.2777,-2.2855,-2.2906,-2.2982,-2.3057,-2.3107,-2.3107,-2.3107,-2.3107,-2.3107,-2.3107,-2.3107,-2.3107,-2.3107,-2.3102,-2.3253,-2.3372,-2.3517,-2.3645,-2.3747,-2.3806,-0.8068,-0.8168,-0.8502,-0.9247,-0.9321,-0.9518,-1.0226,-1.0907,-1.1844,-1.3256,-1.3606,-1.3998,-1.4741,-1.4295,-1.4184,-1.4838,-1.4319,-1.392,-1.3902,-1.3893,-1.3881,-1.3866,-1.4016,-1.4172,-1.4368,-1.4416,-1.4393,-1.4274,-1.4262,-1.419,-1.4079,-1.3962,-1.3527,-1.2815,-1.2411,-1.1975,-1.1624,-1.2175,-1.2216,-1.194,-1.2124,-1.2909,-1.3822,-1.2423,-1.1967,-1.211,-1.2408,-1.2422,-1.2393,-1.2826,-1.3656,-1.4457,-1.4218,-1.4181,-1.3925,-1.2407,-1.1393,-1.0604,-0.99,-0.9702,-0.9676,-0.9608,-0.9603,-0.9605,-0.9605,0.0,-0.9435,-0.9521,0.0,-0.9138,-0.9009,0.0,0.0,-0.843,-0.9509,-1.022,-0.968,-1.0929,-1.2414,-1.3821,-1.3994,-1.4555,-1.6019,-1.676,-1.7466,-1.8269,-1.8407,-1.8786,-1.9527,-2.0182,-2.0906,-2.1699,-2.1716,-2.2044,-2.2699,-2.2829,-2.2893,-2.2906,-2.3033,-2.3077,-2.3107,-2.3107,-2.3107,-2.3107,-2.3107,-2.3107,-2.3107,-2.3107,-2.3107,-2.3102,-2.3253,-2.3372,-2.3517,-2.3645,-2.3747,-2.3806,-0.8384,-0.9066,0.0,-1.0114,-1.0551,-1.0951,-1.1214,-1.1789,-1.2608,-1.3755,-1.3896,-1.4177,-1.4929,-1.4372,-1.4629,-1.6337,-1.5378,-1.5084,-1.5971,-1.5246,-1.4959,-1.5391,-1.4727,-1.4599,-1.5142,-1.4726,-1.4464,-1.4411,-1.4337,-1.4229,-1.4107,-1.4044,-1.3825,-1.3415,-1.2688,-1.196,-1.1382,-1.2897,-1.3148,-1.2675,-1.4678,-1.5381,-1.4996,-1.2789,-1.1599,-1.1081,-1.1034,-1.1003,-1.1193,-1.2632,-1.3772,-1.4828,-1.5993,-1.5496,-1.4365,-1.3686,-1.2585,-1.1618,-1.1755,-1.1443,-1.1085,-1.1059,-1.0661,-1.0177,-0.97,-0.955,-0.9613,-0.9982,0.0,0.0,0.0,0.0,0.0,0.0,-0.8584,-0.8725,-0.8998,-0.9628,-1.0797,-1.2724,-1.2966,-1.3614,-1.527,-1.4805,-1.4451,-1.465,-1.6029,-1.7001,-1.7311,-1.8861,-2.0337,-2.1561,-2.1608,-2.194,-2.2699,-2.2842,-2.2906,-2.2906,-2.3045,-2.3107,-2.3107,-2.3107,-2.3107,-2.3107,-2.3107,-2.3107,-2.3107,-2.3107,-2.3107,-2.3132,-2.3336,-2.3459,-2.3517,-2.3555,-2.3682,-2.3806,-0.951,0.0,0.0,-1.1118,-1.1625,-1.2051,-1.2095,-1.2653,-1.3349,-1.4096,-1.4194,-1.457,-1.5536,-1.4996,-1.5384,-1.7364,-1.7023,-1.6959,-1.7549,-1.6524,-1.5881,-1.5907,-1.5185,-1.4977,-1.541,-1.5079,-1.4784,-1.4539,-1.4417,-1.4287,-1.4143,-1.4127,-1.4061,-1.3973,-1.3216,-1.2401,-1.1668,-1.3515,-1.4274,-1.4404,-1.6457,-1.6552,-1.5134,-1.2049,-1.0595,-1.0178,-1.0114,-1.0114,-1.0494,-1.2689,-1.3999,-1.5063,-1.7159,-1.6743,-1.5392,-1.4952,-1.4004,-1.3165,-1.3532,-1.3036,-1.2425,-1.2429,-1.1617,-1.0647,-1.0038,-0.971,-0.9645,-1.0115,-0.969,0.0,0.0,0.0,-0.8887,-0.8471,0.0,-0.7729,-0.8055,-0.8307,-0.9242,-1.1315,-1.1937,-1.2613,-1.3659,-1.2986,-1.2621,-1.2899,-1.402,-1.5219,-1.645,-1.7511,-1.897,-2.0906,-2.1165,-2.1643,-2.2414,-2.2738,-2.2919,-2.2932,-2.3028,-2.3107,-2.3107,-2.3107,-2.3107,-2.3107,-2.3107,-2.3107,-2.3107,-2.3107,-2.3107,-2.3132,-2.3313,-2.3448,-2.3517,-2.3567,-2.3664,-2.3806,-1.2099,-1.2123,0.0,-1.2156,-1.2119,-1.2265,-1.2795,-1.3543,-1.4275,-1.4875,-1.4964,-1.5536,-1.7062,-1.6683,-1.6649,-1.7514,-1.9381,-1.9749,-1.7905,-1.7375,-1.6309,-1.445,-1.508,-1.5239,-1.4733,-1.5475,-1.5475,-1.4701,-1.4563,-1.4423,-1.4287,-1.415,-1.4054,-1.3998,-1.4105,-1.3681,-1.2993,-1.3913,-1.5476,-1.7323,-1.6903,-1.5762,-1.392,-0.9856,-0.8975,-0.9936,-1.0203,-1.0293,-1.0754,-1.3732,-1.472,-1.51,-1.7368,-1.8034,-1.7674,-1.6114,-1.5625,-1.5417,-1.4677,-1.3875,-1.3262,-1.3262,-1.2017,-1.0789,-1.0694,-0.996,-0.9288,-0.9249,-0.9178,-0.9099,-0.9051,-0.9078,-0.8615,0.0,-0.7433,0.0,0.0,-0.6423,-0.7458,-0.9018,-1.0526,-1.1142,-1.0428,-1.1654,-1.32,-1.4874,-1.2855,-1.3467,-1.789,-1.6099,-1.6315,-1.9286,-2.0067,-2.0844,-2.1725,-2.2516,-2.2927,-2.3008,-2.307,-2.3107,-2.3107,-2.3107,-2.3107,-2.3107,-2.3107,-2.3107,-2.3107,-2.3107,-2.3107,-2.3107,-2.3119,-2.3265,-2.351,-2.3718,-2.3795,-2.3806,0.0,0.0,0.0,-1.3095,-1.3442,-1.4024,-1.4654,-1.5359,-1.5883,-1.6041,-1.6566,-1.7293,-1.8253,-1.8215,-1.8859,-2.0748,-2.0589,-2.0526,-2.0902,-1.9903,-1.9005,-1.8294,-1.7599,-1.6913,-1.6245,-1.5968,-1.542,-1.4574,-1.458,-1.4476,-1.43,-1.4249,-1.4196,-1.4125,-1.4181,-1.3676,-1.2888,-1.4031,-1.3618,-1.2099,-1.0902,-1.0091,-0.9413,-0.7766,-0.8399,-1.0178,-1.0272,-1.0293,-1.0601,-1.2555,-1.3909,-1.5056,-1.678,-1.7667,-1.7979,-1.7454,-1.6915,-1.6548,-1.6805,-1.5912,-1.5019,-1.5539,-1.3668,-1.1626,-1.1526,-1.0912,-1.0164,-0.9478,-0.9746,-0.9892,-0.9254,-0.9123,-0.8931,0.0,0.0,-0.7726,0.0,-0.7368,-0.773,-0.8248,-0.8766,-0.9185,-0.9449,-0.9346,-0.9358,-0.9583,-0.8546,-0.9138,-1.2027,-1.4313,-1.6908,-1.9929,-2.0274,-2.1051,-2.2405,-2.2729,-2.2927,-2.3008,-2.3082,-2.3107,-2.3107,-2.3107,-2.3107,-2.3107,-2.3107,-2.3107,-2.3107,-2.3107,-2.3156,-2.3241,-2.3324,-2.3476,-2.3623,-2.3611,-2.3685,-2.3806,-1.3971,-1.4386,-1.4646,-1.4338,-1.5003,-1.5729,-1.6091,-1.6515,-1.6838,-1.7044,-1.7778,-1.8566,-1.9246,-1.9668,-2.0517,-2.2064,-2.1532,-2.1532,-2.2514,-2.1442,-2.1043,-2.1598,-1.9608,-1.8284,-1.7859,-1.6785,-1.5815,-1.4951,-1.4692,-1.4476,-1.43,-1.43,-1.4268,-1.4192,-1.4196,-1.3641,-1.2753,-1.3582,-1.2284,-0.9674,-0.9721,-0.871,-0.736,-0.8792,-0.9736,-1.0293,-1.0228,-1.0231,-1.0544,-1.2172,-1.365,-1.5144,-1.7132,-1.8108,-1.8537,-1.8537,-1.817,-1.7869,-1.839,-1.7578,-1.671,-1.7236,-1.5374,-1.3377,-1.3243,-1.2657,-1.1958,-1.1275,-1.1085,-1.0844,-1.0275,-0.9595,-0.9067,0.0,0.0,-0.7812,0.0,-0.7726,-0.7795,-0.7536,-0.7989,-0.8391,-0.8551,-0.8309,-0.7981,-0.7648,-0.7083,-0.8063,-1.1071,-1.3434,-1.6201,-1.9499,-2.0119,-2.0925,-2.201,-2.2603,-2.2957,-2.3045,-2.3082,-2.3107,-2.3107,-2.3107,-2.3107,-2.3107,-2.3107,-2.3107,-2.3107,-2.3107,-2.318,-2.3313,-2.3413,-2.3533,-2.37,-2.3634,-2.3685,-2.3806,-1.4878,-1.4933,-1.5207,-1.5906,-1.671,-1.7219,-1.7088,-1.7055,-1.7268,-1.7889,-1.8644,-1.9398,-2.0101,-2.1042,-2.1633,-2.1624,-2.2381,-2.2847,-2.2771,-2.2043,-2.2315,-2.3881,-2.0968,-1.9342,-1.939,-1.7822,-1.6607,-1.5784,-1.4927,-1.4429,-1.43,-1.43,-1.4268,-1.4198,-1.4198,-1.3672,-1.2778,-1.274,-1.1674,-1.0243,-1.2973,-1.1259,-0.7609,-1.2454,-1.2731,-1.0423,-0.9929,-0.9877,-1.0369,-1.2438,-1.3914,-1.5359,-1.8185,-1.9168,-1.9297,-1.9297,-1.9297,-1.9297,-1.9297,-1.8757,-1.8204,-1.8241,-1.7014,-1.5772,-1.5691,-1.505,-1.4447,-1.4325,-1.3076,-1.1979,-1.1959,-1.0519,-0.9133,0.0,0.0,-0.7666,-0.6958,-0.7458,-0.7648,-0.6941,-0.8154,-0.8672,-0.7709,-0.843,-0.9,-0.9087,-0.8438,-1.0082,-1.4788,-1.3486,-1.4322,-1.808,-1.9631,-2.0483,-2.0657,-2.2153,-2.2982,-2.3107,-2.3107,-2.3107,-2.3107,-2.3107,-2.3107,-2.3107,-2.3107,-2.3107,-2.3107,-2.3107,-2.3193,-2.3313,-2.3313,-2.3487,-2.3703,-2.3782,-2.3806,-2.3806,-1.5659,-1.6729,-1.76,-1.7807,-1.8018,-1.8118,-1.7991,-1.8497,-1.8922,-1.8945,-2.0195,-2.112,-2.1279,-2.2621,-2.349,-2.3451,-2.3644,-2.3744,-2.3676,-2.3466,-2.3321,-2.3186,-2.1771,-2.0464,-1.935,-1.7759,-1.651,-1.5658,-1.4831,-1.4387,-1.43,-1.43,-1.4293,-1.4274,-1.4274,-1.4124,-1.3847,-1.3202,-1.1881,-1.0258,-1.0595,-0.8594,-0.6059,-1.2019,-1.3867,-1.2675,-0.8022,-0.6384,-0.6893,-0.9914,-1.3147,-1.5883,-1.5765,-1.7362,-1.9297,-1.9297,-1.9297,-1.9305,-1.9364,-1.8798,-1.8358,-1.9007,-1.747,-1.5931,-1.6458,-1.598,-1.5226,-1.4453,-1.4508,-1.4301,-1.3038,-1.1917,-1.0908,-1.0001,-0.8845,-0.794,-0.7653,-0.7866,-0.794,-0.7653,-0.8016,-0.8154,-0.7851,-0.7238,-0.7484,-0.8983,-0.9599,-1.1095,-1.3831,-1.4123,-1.5435,-1.8114,-1.9676,-2.0801,-2.1492,-2.2469,-2.302,-2.3107,-2.3107,-2.3107,-2.3107,-2.3107,-2.3107,-2.3107,-2.3107,-2.3107,-2.3119,-2.3217,-2.3324,-2.3471,-2.3555,-2.3671,-2.3782,-2.3795,-2.3806,-2.3806,-1.6631,-1.7718,-1.8572,-1.8514,-1.8821,-1.9139,-1.9369,-1.9752,-2.0129,-2.0404,-2.1544,-2.2317,-2.2264,-2.3419,-2.418,-2.4151,-2.4151,-2.4132,-2.4054,-2.4074,-2.3883,-2.3444,-2.2657,-2.1642,-2.0421,-1.8782,-1.7361,-1.6162,-1.4983,-1.4375,-1.4332,-1.4332,-1.4332,-1.4332,-1.4332,-1.4344,-1.4265,-1.2918,-1.1784,-1.0766,-0.9059,-0.6993,0.0,-0.7248,-0.9927,-1.1882,-0.6794,-0.4057,-0.326,-0.5859,-1.0377,-1.4912,-1.5002,-1.6995,-1.9297,-1.9297,-1.9323,-1.9357,-1.939,-1.9085,-1.888,-1.9382,-1.8471,-1.7564,-1.7943,-1.7717,-1.7261,-1.6698,-1.641,-1.5974,-1.5013,-1.3541,-1.2027,-1.0695,-0.9483,-0.8682,-0.8567,-0.8625,-0.8625,-0.8525,-0.8547,-0.8529,-0.843,-0.7411,-0.7402,-0.8981,-1.0025,-1.1481,-1.3501,-1.4019,-1.534,-1.7655,-1.9208,-2.0113,-2.0308,-2.2104,-2.287,-2.2628,-2.2949,-2.3107,-2.3107,-2.3107,-2.3107,-2.3107,-2.3107,-2.3107,-2.3119,-2.3241,-2.3372,-2.3517,-2.3682,-2.3771,-2.3806,-2.3806,-2.3806,-2.3806,-1.7658,-1.8322,-1.8873,-1.8864,-1.9363,-2.0075,-2.0996,-2.0848,-2.0931,-2.1768,-2.2537,-2.3006,-2.3006,-2.3731,-2.419,-2.419,-2.419,-2.417,-2.4132,-2.417,-2.417,-2.4132,-2.3409,-2.2666,-2.1978,-2.001,-1.8357,-1.7057,-1.5165,-1.4308,-1.4399,-1.4399,-1.4399,-1.4399,-1.4399,-1.4405,-1.4283,-1.2379,-1.1547,-1.124,-0.8462,-0.6719,-0.5449,-0.2418,-0.4998,-0.9865,-0.7097,-0.4019,-0.1506,-0.3042,-0.8181,-1.4143,-1.5458,-1.7443,-1.9297,-1.9305,-1.9357,-1.9398,-1.9413,-1.9453,-1.9492,-1.9518,-1.955,-1.9583,-1.9525,-1.9518,-1.9518,-1.9518,-1.8348,-1.7324,-1.7269,-1.5127,-1.285,-1.1213,-1.0232,-0.9648,-0.9583,-0.9583,-0.952,-0.9338,-0.9307,0.0,-0.9133,-0.8324,-0.8168,-0.9036,-1.0106,-1.1477,-1.324,-1.362,-1.4701,-1.6745,-1.8506,-1.9149,-1.8553,-2.1517,-2.2725,-2.2148,-2.2803,-2.3107,-2.3107,-2.3107,-2.3107,-2.3107,-2.3107,-2.3119,-2.3144,-2.3265,-2.343,-2.3589,-2.3771,-2.3847,-2.3868,-2.3868,-2.3868,-2.3858,-1.8431,-1.9223,-1.9969,-2.0626,-2.0126,-2.0379,-2.2607,-2.1666,-2.0939,-2.164,-2.2465,-2.3006,-2.3006,-2.3731,-2.419,-2.419,-2.419,-2.4208,-2.418,-2.419,-2.419,-2.418,-2.3428,-2.2933,-2.2786,-1.9201,-1.7518,-1.7895,-1.4879,-1.3742,-1.4399,-1.4399,-1.4399,-1.4399,-1.4399,-1.4405,-1.4294,-1.268,-1.1343,-1.0252,-0.9871,-0.957,-0.9294,-0.836,-0.8755,-1.0094,-1.2263,-1.0865,-0.8174,-0.9346,-1.3527,-1.8038,-1.7002,-1.7894,-1.9305,-1.9364,-1.939,-1.9413,-1.9468,-1.9496,-1.9518,-1.9576,-1.9583,-1.9609,-1.9583,-1.9583,-1.9583,-1.9583,-1.9353,-1.892,-1.822,-1.6005,-1.3957,-1.2978,-1.1557,-1.0553,-1.0475,-1.0517,-1.0268,-0.9475,-0.9377,-0.9354,-0.9274,-0.9012,-0.8914,-0.9092,-1.0441,-1.1436,-1.1851,-1.3646,-1.4863,-1.5262,-1.8079,-1.9507,-1.9388,-2.1855,-2.3025,-2.2914,-2.3037,-2.3107,-2.3107,-2.3107,-2.3107,-2.3107,-2.3107,-2.3168,-2.3277,-2.3407,-2.3678,-2.4004,-2.4026,-2.4114,-2.4219,-2.4219,-2.4219,-2.4163,-1.9392,-1.9788,-2.0162,-2.0524,-2.0509,-2.0954,-2.2495,-2.2394,-2.236,-2.2967,-2.3401,-2.3667,-2.3667,-2.4026,-2.4247,-2.4247,-2.4219,-2.4209,-2.4209,-2.4209,-2.419,-2.419,-2.3823,-2.3437,-2.3015,-2.0396,-1.8735,-1.8155,-1.5319,-1.4102,-1.4453,-1.4453,-1.4453,-1.4453,-1.4453,-1.444,-1.4372,-1.3295,-1.2488,-1.1952,-1.2473,-1.2696,-1.267,-1.2471,-1.3386,-1.4918,-1.5937,-1.5375,-1.4036,-1.3232,-1.5784,-1.8948,-1.6922,-1.7674,-1.9305,-1.939,-1.9413,-1.9468,-1.9496,-1.9525,-1.955,-1.9583,-1.9609,-1.9609,-1.9609,-1.9609,-1.9609,-1.9609,-1.9609,-1.9342,-1.8461,-1.696,-1.5575,-1.4734,-1.2869,-1.1507,-1.1471,-1.1148,-1.0566,-0.9615,-0.9497,-0.9434,-0.926,-0.8844,-0.8744,-0.9121,-1.0812,-1.1834,-1.1914,-1.3415,-1.4853,-1.6107,-1.7996,-1.8988,-1.9026,-2.1738,-2.2703,-2.1908,-2.2721,-2.3107,-2.3107,-2.3107,-2.3107,-2.3089,-2.318,-2.3283,-2.3411,-2.362,-2.3904,-2.42,-2.4123,-2.419,-2.4294,-2.4294,-2.4294,-2.4275,-2.059,-2.0513,-2.0442,-2.0555,-2.0934,-2.1508,-2.2325,-2.309,-2.3711,-2.4237,-2.433,-2.4321,-2.4294,-2.4294,-2.4294,-2.4294,-2.4257,-2.422,-2.422,-2.4219,-2.4218,-2.4218,-2.4257,-2.3952,-2.3298,-2.1775,-2.0166,-1.8504,-1.622,-1.4924,-1.4546,-1.4854,-1.4915,-1.4769,-1.5117,-1.5172,-1.4982,-1.4624,-1.4566,-1.4717,-1.5171,-1.5384,-1.5424,-1.5747,-1.7395,-1.9417,-1.8794,-1.8668,-1.8488,-1.6662,-1.7491,-1.8967,-1.7057,-1.778,-1.9331,-1.9405,-1.9461,-1.9512,-1.9529,-1.968,-1.9813,-1.9646,-1.9868,-2.0017,-1.9683,-1.9739,-1.9813,-1.9646,-1.9609,-1.9397,-1.8709,-1.79,-1.7065,-1.6213,-1.4183,-1.2618,-1.227,-1.1814,-1.1125,-1.0043,-1.0204,-1.0239,-0.9856,-0.9248,-0.9077,-0.9514,-1.0988,-1.2104,-1.2605,-1.3332,-1.4763,-1.6991,-1.7788,-1.835,-1.8758,-2.1487,-2.2347,-2.1305,-2.251,-2.3107,-2.3107,-2.3107,-2.3119,-2.3156,-2.3253,-2.3406,-2.3599,-2.3837,-2.4096,-2.433,-2.4219,-2.4266,-2.4384,-2.4384,-2.4384,-2.4384,-2.2159,-2.1876,-2.1593,-2.2326,-2.1803,-2.1823,-2.3395,-2.367,-2.3832,-2.4246,-2.4408,-2.4432,-2.4312,-2.4294,-2.4294,-2.4294,-2.4284,-2.4284,-2.4284,-2.4284,-2.4303,-2.4303,-2.4417,-2.4378,-2.4183,-2.2032,-2.0432,-1.9474,-1.7669,-1.606,-1.4704,-1.6042,-1.6291,-1.5662,-1.7105,-1.7355,-1.6725,-1.7383,-1.7756,-1.7818,-1.7163,-1.6923,-1.7146,-1.8546,-1.9243,-1.9673,-2.0941,-2.0931,-2.0388,-2.0931,-2.0307,-1.926,-1.9022,-1.9165,-1.9398,-1.9468,-1.9493,-1.9511,-1.9576,-2.0121,-2.0511,-1.9776,-2.0697,-2.1384,-1.9924,-2.0158,-2.0474,-1.9757,-1.9609,-1.959,-1.949,-1.8766,-1.7925,-1.7108,-1.5549,-1.3969,-1.25,-1.2845,-1.2696,-1.1143,-1.2133,-1.2662,-1.1898,-1.1603,-1.1237,-1.0685,-1.0761,-1.1687,-1.3643,-1.3836,-1.4625,-1.6247,-1.7027,-1.8114,-1.9573,-2.127,-2.2364,-2.2896,-2.3037,-2.3107,-2.3107,-2.3107,-2.3168,-2.3277,-2.3289,-2.3497,-2.3858,-2.4016,-2.4247,-2.4478,-2.4469,-2.4537,-2.4668,-2.4668,-2.4668,-2.4668,-2.2834,-2.2695,-2.2326,-2.2705,-2.2719,-2.2929,-2.3692,-2.4298,-2.4662,-2.4659,-2.4704,-2.4719,-2.4678,-2.467,-2.4623,-2.4555,-2.4583,-2.4564,-2.4495,-2.4551,-2.4551,-2.4434,-2.4593,-2.4617,-2.4476,-2.2645,-2.1555,-2.1287,-1.8887,-1.7688,-1.7609,-1.6638,-1.6299,-1.6558,-1.8193,-1.8738,-1.8429,-1.8835,-1.9026,-1.9145,-1.9781,-2.0057,-2.0239,-2.1753,-2.232,-2.2404,-2.3015,-2.2703,-2.2052,-2.2409,-2.1418,-2.0016,-2.0016,-2.0066,-2.0039,-1.9623,-1.9501,-1.9518,-1.9583,-2.0184,-2.0715,-2.04,-2.1161,-2.1718,-2.0585,-2.0567,-2.0567,-1.9776,-1.9609,-1.9609,-1.9609,-1.933,-1.8803,-1.7968,-1.6915,-1.5617,-1.397,-1.4461,-1.4321,-1.2516,-1.2961,-1.3466,-1.3595,-1.2134,-1.185,-1.3388,-1.2512,-1.2496,-1.3826,-1.4324,-1.5272,-1.6799,-1.7615,-1.8766,-2.0339,-2.1445,-2.2148,-2.2452,-2.2879,-2.3107,-2.3107,-2.3107,-2.3217,-2.3436,-2.3594,-2.3845,-2.4135,-2.4191,-2.4384,-2.4602,-2.4528,-2.4578,-2.47,-2.47,-2.47,-2.47,-2.3712,-2.352,-2.3016,-2.3053,-2.3236,-2.3458,-2.3705,-2.4624,-2.5233,-2.5043,-2.5025,-2.4994,-2.4915,-2.4902,-2.4861,-2.4764,-2.4799,-2.478,-2.4682,-2.4782,-2.4763,-2.4625,-2.4783,-2.4823,-2.4682,-2.362,-2.2855,-2.246,-2.0671,-1.9736,-1.962,-1.7948,-1.7368,-1.7782,-1.9686,-2.0288,-1.9922,-2.0648,-2.094,-2.1049,-2.2181,-2.2657,-2.2763,-2.3796,-2.419,-2.419,-2.4209,-2.3676,-2.3033,-2.33,-2.2445,-2.1176,-2.0682,-2.0575,-2.0483,-1.9719,-1.9682,-1.984,-1.9657,-2.053,-2.1384,-2.0919,-2.1781,-2.245,-2.1384,-2.1346,-2.1216,-2.0166,-1.9757,-1.9609,-1.9609,-1.9609,-1.9305,-1.8451,-1.7876,-1.6882,-1.4968,-1.5644,-1.5589,-1.3485,-1.3826,-1.4441,-1.495,-1.3326,-1.3134,-1.5286,-1.4253,-1.3853,-1.4604,-1.4723,-1.5457,-1.6994,-1.7593,-1.8722,-2.0498,-2.1291,-2.1925,-2.2388,-2.2904,-2.3144,-2.3089,-2.318,-2.3348,-2.3567,-2.3771,-2.4008,-2.4238,-2.4275,-2.4418,-2.4645,-2.4578,-2.4629,-2.47,-2.47,-2.47,-2.47,-2.5044,-2.4467,-2.3683,-2.3683,-2.3199,-2.2985,-2.3515,-2.4572,-2.5303,-2.5303,-2.5303,-2.5182,-2.4935,-2.4902,-2.4902,-2.4902,-2.4902,-2.4902,-2.4902,-2.4902,-2.4902,-2.4902,-2.5018,-2.5024,-2.4902,-2.4999,-2.4251,-2.2596,-2.3221,-2.2243,-1.9807,-2.0376,-2.0195,-1.9483,-2.1889,-2.2229,-2.1121,-2.3235,-2.4144,-2.4144,-2.4163,-2.4181,-2.4181,-2.419,-2.419,-2.4199,-2.4201,-2.3676,-2.3124,-2.3989,-2.3749,-2.2778,-2.1115,-2.0646,-2.0548,-1.9733,-2.0107,-2.0604,-1.9831,-2.1346,-2.2794,-2.1198,-2.2643,-2.4026,-2.2375,-2.2609,-2.272,-2.1124,-2.014,-1.9609,-1.9609,-1.9609,-1.9305,-1.8451,-1.8353,-1.751,-1.5042,-1.6132,-1.629,-1.3881,-1.4998,-1.5967,-1.5983,-1.577,-1.568,-1.5784,-1.5593,-1.5734,-1.6338,-1.4995,-1.4883,-1.6357,-1.6417,-1.7523,-1.9782,-2.0607,-2.1777,-2.3283,-2.3301,-2.3229,-2.3119,-2.3372,-2.3573,-2.37,-2.3771,-2.3917,-2.4113,-2.4257,-2.4384,-2.452,-2.4653,-2.47,-2.47,-2.47,-2.47,-2.47,-2.5076,-2.5108,-2.4859,-2.4859,-2.4709,-2.4636,-2.4805,-2.5133,-2.5351,-2.5313,-2.5308,-2.5264,-2.5171,-2.5165,-2.5132,-2.5037,-2.5121,-2.5132,-2.5037,-2.5121,-2.5132,-2.5031,-2.516,-2.5171,-2.5031,-2.5091,-2.4875,-2.4441,-2.3871,-2.2545,-2.0596,-2.2373,-2.2268,-2.0669,-2.2943,-2.3693,-2.3289,-2.3925,-2.42,-2.419,-2.419,-2.419,-2.4199,-2.4209,-2.4201,-2.421,-2.4257,-2.4109,-2.3925,-2.422,-2.4155,-2.37,-2.2011,-2.1509,-2.1255,-1.99,-2.0125,-2.0734,-2.0493,-2.1773,-2.3073,-2.2553,-2.3479,-2.4194,-2.3081,-2.259,-2.2237,-2.1718,-2.0975,-2.0418,-2.0418,-1.998,-1.9305,-1.8451,-1.8818,-1.8559,-1.6676,-1.7382,-1.7598,-1.6276,-1.6573,-1.7105,-1.7658,-1.711,-1.7164,-1.8231,-1.7713,-1.6899,-1.5918,-1.588,-1.6384,-1.747,-1.8468,-1.9579,-2.0815,-2.1529,-2.242,-2.3448,-2.3448,-2.3407,-2.3389,-2.3471,-2.3623,-2.3834,-2.3955,-2.4135,-2.4374,-2.4418,-2.4512,-2.4634,-2.4684,-2.47,-2.47,-2.47,-2.47,-2.47,-2.5232,-2.5447,-2.5434,-2.5434,-2.5443,-2.5432,-2.5432,-2.5382,-2.5351,-2.5346,-2.5313,-2.5313,-2.5322,-2.5313,-2.5264,-2.5176,-2.5253,-2.5259,-2.5176,-2.5253,-2.5259,-2.5176,-2.5253,-2.5259,-2.5176,-2.5171,-2.5222,-2.5308,-2.4545,-2.3582,-2.2502,-2.3864,-2.3756,-2.2436,-2.3859,-2.4411,-2.4303,-2.4339,-2.4294,-2.4199,-2.4218,-2.4228,-2.42,-2.4229,-2.4247,-2.4257,-2.4303,-2.4339,-2.4339,-2.4367,-2.4393,-2.4197,-2.2827,-2.2401,-2.2068,-2.047,-2.0597,-2.1254,-2.1254,-2.245,-2.3545,-2.2906,-2.3628,-2.4369,-2.3814,-2.3044,-2.2442,-2.2442,-2.1569,-2.079,-2.079,-2.014,-1.9423,-1.8878,-1.9246,-1.913,-1.7838,-1.8403,-1.8546,-1.7438,-1.7564,-1.7939,-1.8444,-1.8015,-1.8093,-1.9043,-1.834,-1.7516,-1.6725,-1.7059,-1.7374,-1.7626,-1.912,-2.0296,-2.1025,-2.2029,-2.2896,-2.3638,-2.3544,-2.3539,-2.3585,-2.3634,-2.3768,-2.3986,-2.4133,-2.4266,-2.4426,-2.4478,-2.4545,-2.4626,-2.4684,-2.4723,-2.4746,-2.4746,-2.4746,-2.4734,-2.5492,-2.5492,-2.5507,-2.5507,-2.5507,-2.5507,-2.5507,-2.5397,-2.5346,-2.5398,-2.5356,-2.5346,-2.5394,-2.5332,-2.5313,-2.5308,-2.5308,-2.5308,-2.5308,-2.5308,-2.5308,-2.5308,-2.5308,-2.5308,-2.5308,-2.5308,-2.5308,-2.5308,-2.5165,-2.509,-2.5084,-2.4851,-2.4637,-2.4525,-2.4594,-2.4512,-2.4349,-2.4522,-2.4445,-2.4209,-2.4275,-2.4266,-2.421,-2.4275,-2.4312,-2.4321,-2.4375,-2.4412,-2.4421,-2.4482,-2.45,-2.4351,-2.3471,-2.3203,-2.2887,-2.1346,-2.1458,-2.2089,-2.2089,-2.3275,-2.4128,-2.2561,-2.3349,-2.45,-2.45,-2.3869,-2.3295,-2.3295,-2.2052,-2.0975,-2.0975,-2.0251,-1.9683,-1.9683,-1.9636,-1.9316,-1.8503,-1.9095,-1.9051,-1.7558,-1.8033,-1.8526,-1.8582,-1.859,-1.8584,-1.8595,-1.7952,-1.7839,-1.847,-1.8434,-1.8052,-1.73,-1.8832,-2.0037,-2.0784,-2.2269,-2.3308,-2.3927,-2.3678,-2.3611,-2.3754,-2.3855,-2.3978,-2.4133,-2.4257,-2.4312,-2.4339,-2.4469,-2.452,-2.4537,-2.4657,-2.4742,-2.4801,-2.4801,-2.4801,-2.4816,-2.5495,-2.5503,-2.5507,-2.5507,-2.5507,-2.5507,-2.5507,-2.5472,-2.5459,-2.5468,-2.5464,-2.5443,-2.5403,-2.5384,-2.5355,-2.5288,-2.5308,-2.5308,-2.5308,-2.5308,-2.5308,-2.5308,-2.5308,-2.5308,-2.5308,-2.5308,-2.5308,-2.5308,-2.5165,-2.509,-2.5109,-2.4935,-2.4808,-2.4742,-2.4741,-2.4697,-2.4604,-2.4551,-2.4425,-2.4284,-2.4294,-2.4284,-2.4284,-2.4348,-2.4385,-2.4394,-2.4456,-2.4474,-2.4482,-2.4491,-2.45,-2.4351,-2.3471,-2.3203,-2.2998,-2.2015,-2.2293,-2.2924,-2.2924,-2.3683,-2.4407,-2.4008,-2.4221,-2.45,-2.45,-2.4351,-2.4194,-2.4194,-2.3359,-2.2627,-2.2627,-2.1476,-2.0511,-2.0511,-2.0006,-1.932,-1.8516,-1.8572,-1.8584,-1.825,-1.8375,-1.8769,-1.942,-1.9488,-1.9488,-1.9495,-1.9888,-1.9645,-1.8562,-1.9669,-2.0248,-2.0057,-2.0933,-2.1804,-2.2662,-2.3535,-2.4045,-2.421,-2.4047,-2.4037,-2.4153,-2.4078,-2.4183,-2.4409,-2.4435,-2.4503,-2.4621,-2.4689,-2.4727,-2.4742,-2.4811,-2.4861,-2.4874,-2.4874,-2.4874,-2.4874,-2.5491,-2.5499,-2.5507,-2.5507,-2.5507,-2.5507,-2.5507,-2.5507,-2.5507,-2.5507,-2.5507,-2.5495,-2.5447,-2.5419,-2.5382,-2.5351,-2.5346,-2.5337,-2.5308,-2.5322,-2.5322,-2.5308,-2.5308,-2.5308,-2.5308,-2.5308,-2.5308,-2.5308,-2.5233,-2.5187,-2.5182,-2.5043,-2.4942,-2.4844,-2.4861,-2.4746,-2.4582,-2.4626,-2.452,-2.4312,-2.4367,-2.4375,-2.4348,-2.443,-2.4447,-2.4447,-2.4491,-2.45,-2.45,-2.45,-2.45,-2.4425,-2.3944,-2.3795,-2.3721,-2.3275,-2.3174,-2.3295,-2.3694,-2.4138,-2.45,-2.45,-2.4194,-2.3999,-2.4407,-2.45,-2.45,-2.45,-2.3814,-2.3203,-2.3203,-2.1885,-2.079,-2.079,-1.9787,-1.8861,-1.846,-1.8423,-1.8459,-1.8506,-1.885,-1.9275,-1.9745,-1.9801,-1.9801,-1.9801,-1.9845,-1.9789,-1.9657,-2.0164,-2.0445,-2.0446,-2.1541,-2.254,-2.3389,-2.4062,-2.4401,-2.4401,-2.4257,-2.422,-2.4294,-2.4293,-2.4355,-2.4503,-2.4561,-2.4642,-2.4761,-2.4779,-2.4816,-2.4858,-2.4888,-2.4941,-2.4986,-2.4986,-2.4986,-2.4993,-2.5515,-2.5519,-2.5507,-2.5507,-2.5507,-2.5507,-2.5507,-2.5507,-2.5507,-2.5507,-2.5507,-2.5507,-2.5507,-2.5448,-2.5427,-2.5419,-2.5419,-2.5397,-2.5327,-2.5365,-2.5365,-2.5317,-2.5308,-2.5308,-2.5308,-2.5308,-2.5308,-2.5308,-2.5308,-2.5308,-2.5303,-2.5176,-2.508,-2.4968,-2.4968,-2.4782,-2.4498,-2.4715,-2.4637,-2.4348,-2.4446,-2.4465,-2.4421,-2.4482,-2.45,-2.45,-2.45,-2.45,-2.45,-2.45,-2.45,-2.45,-2.45,-2.45,-2.45,-2.45,-2.3981,-2.3564,-2.4305,-2.45,-2.45,-2.45,-2.3944,-2.3582,-2.4332,-2.45,-2.45,-2.45,-2.3906,-2.3397,-2.3397,-2.207,-2.0975,-2.0975,-1.959,-1.8477,-1.8404,-1.8553,-1.8646,-1.8506,-1.9275,-1.9801,-1.9801,-1.9914,-1.997,-1.997,-1.9413,-1.9582,-2.0771,-2.0295,-1.997,-1.997,-2.161,-2.2867,-2.3663,-2.4249,-2.4528,-2.4528,-2.44,-2.4357,-2.4366,-2.4478,-2.4528,-2.4537,-2.465,-2.4753,-2.4794,-2.4823,-2.4872,-2.4922,-2.4935,-2.5012,-2.512,-2.512,-2.512,-2.5126,-2.558,-2.5536,-2.5507,-2.5507,-2.5507,-2.5507,-2.5507,-2.5507,-2.5507,-2.5507,-2.5507,-2.5507,-2.5507,-2.5484,-2.5484,-2.548,-2.548,-2.5468,-2.5391,-2.5388,-2.5394,-2.5389,-2.5322,-2.5308,-2.5308,-2.5308,-2.5308,-2.5308,-2.5308,-2.5308,-2.5308,-2.5274,-2.5253,-2.5238,-2.5238,-2.5086,-2.4825,-2.4867,-2.4727,-2.4474,-2.4491,-2.4491,-2.4482,-2.45,-2.45,-2.45,-2.45,-2.45,-2.45,-2.45,-2.45,-2.45,-2.45,-2.45,-2.45,-2.45,-2.4407,-2.4332,-2.4462,-2.45,-2.45,-2.45,-2.4407,-2.4324,-2.4462,-2.45,-2.45,-2.45,-2.4388,-2.4305,-2.4305,-2.294,-2.181,-2.181,-2.0447,-1.9161,-1.8485,-1.9039,-1.9264,-1.8587,-1.9275,-1.9801,-1.9801,-2.0408,-2.0809,-2.0809,-2.1365,-2.1215,-2.0045,-2.0502,-2.0809,-2.0809,-2.2443,-2.3701,-2.452,-2.4609,-2.4676,-2.4676,-2.4653,-2.4645,-2.4645,-2.4668,-2.4676,-2.4657,-2.4742,-2.4787,-2.4808,-2.4979,-2.5057,-2.507,-2.5138,-2.5168,-2.5174,-2.5174,-2.5174,-2.5193,-2.5547,-2.5515,-2.5507,-2.5507,-2.5507,-2.5507,-2.5507,-2.5507,-2.5507,-2.5507,-2.5507,-2.5507,-2.5507,-2.5507,-2.5507,-2.5507,-2.5507,-2.5484,-2.5452,-2.5427,-2.5406,-2.5397,-2.536,-2.5346,-2.5356,-2.5317,-2.5308,-2.5308,-2.5308,-2.5308,-2.5308,-2.5308,-2.5259,-2.5187,-2.5187,-2.5086,-2.4902,-2.4818,-2.4712,-2.4607,-2.4534,-2.45,-2.45,-2.45,-2.45,-2.45,-2.45,-2.45,-2.45,-2.45,-2.45,-2.45,-2.45,-2.45,-2.45,-2.45,-2.45,-2.45,-2.45,-2.45,-2.45,-2.45,-2.45,-2.45,-2.45,-2.45,-2.45,-2.45,-2.45,-2.45,-2.45,-2.3161,-2.2054,-2.2054,-2.0695,-1.9375,-1.8578,-1.917,-1.9401,-1.8606,-1.9275,-1.9801,-1.9801,-2.0521,-2.0997,-2.0997,-2.1372,-2.1666,-2.1779,-2.1297,-2.141,-2.2311,-2.3532,-2.4313,-2.47,-2.47,-2.47,-2.47,-2.47,-2.47,-2.47,-2.47,-2.47,-2.4707,-2.4764,-2.4823,-2.4872,-2.5037,-2.5126,-2.5163,-2.5199,-2.5191,-2.5191,-2.5191,-2.5191,-2.5191,-2.5529,-2.5518,-2.5518,-2.5518,-2.5518,-2.5518,-2.5518,-2.5503,-2.5507,-2.5507,-2.5507,-2.5507,-2.5507,-2.5507,-2.5507,-2.5507,-2.5507,-2.5507,-2.5507,-2.5456,-2.5421,-2.54,-2.5391,-2.5402,-2.5398,-2.5351,-2.5317,-2.5317,-2.5313,-2.5308,-2.5308,-2.5308,-2.5248,-2.5149,-2.5149,-2.5043,-2.4895,-2.4794,-2.4715,-2.4637,-2.4532,-2.45,-2.45,-2.45,-2.45,-2.45,-2.45,-2.45,-2.45,-2.45,-2.45,-2.45,-2.45,-2.45,-2.45,-2.449,-2.4498,-2.449,-2.45,-2.45,-2.45,-2.45,-2.45,-2.45,-2.45,-2.45,-2.45,-2.45,-2.45,-2.45,-2.45,-2.3334,-2.2382,-2.2382,-2.1197,-2.0068,-1.9451,-1.992,-2.0082,-1.9469,-1.9976,-2.0383,-2.0383,-2.1103,-2.1579,-2.1579,-2.1579,-2.2067,-2.3156,-2.2011,-2.1973,-2.3457,-2.4088,-2.452,-2.47,-2.47,-2.47,-2.47,-2.47,-2.47,-2.47,-2.4723,-2.473,-2.4738,-2.4827,-2.4905,-2.4954,-2.5063,-2.5144,-2.5191,-2.5191,-2.5191,-2.5191,-2.5191,-2.5191,-2.5191,-2.5595,-2.5592,-2.5592,-2.5592,-2.5592,-2.5592,-2.5592,-2.5536,-2.5507,-2.5507,-2.5507,-2.5507,-2.5507,-2.5507,-2.5507,-2.5507,-2.5507,-2.5507,-2.5507,-2.5507,-2.546,-2.5401,-2.54,-2.5402,-2.5398,-2.5394,-2.5394,-2.5394,-2.5322,-2.5308,-2.5308,-2.5308,-2.5284,-2.5293,-2.5293,-2.5138,-2.4902,-2.4895,-2.4742,-2.4517,-2.4508,-2.45,-2.45,-2.45,-2.45,-2.45,-2.45,-2.45,-2.45,-2.45,-2.45,-2.45,-2.45,-2.45,-2.4508,-2.4505,-2.4495,-2.4505,-2.449,-2.45,-2.45,-2.45,-2.45,-2.45,-2.45,-2.45,-2.45,-2.45,-2.45,-2.45,-2.45,-2.3789,-2.3199,-2.3199,-2.2533,-2.1997,-2.1941,-2.2032,-2.2098,-2.2023,-2.2079,-2.2116,-2.2116,-2.2837,-2.3325,-2.3325,-2.3325,-2.3044,-2.2417,-2.2267,-2.2605,-2.3476,-2.3551,-2.3945,-2.4681,-2.47,-2.47,-2.47,-2.47,-2.47,-2.4707,-2.4757,-2.4787,-2.4794,-2.4985,-2.5089,-2.5101,-2.5156,-2.5205,-2.5191,-2.5191,-2.5191,-2.5191,-2.5191,-2.5191,-2.5191,-2.5601,-2.5601,-2.5601,-2.5601,-2.5601,-2.5601,-2.5601,-2.558,-2.556,-2.556,-2.5536,-2.5507,-2.5492,-2.5503,-2.5507,-2.5492,-2.5507,-2.5507,-2.5507,-2.5507,-2.5488,-2.546,-2.5421,-2.5412,-2.5455,-2.541,-2.5393,-2.5398,-2.5365,-2.5346,-2.5308,-2.5308,-2.5308,-2.5308,-2.5308,-2.5243,-2.5132,-2.4974,-2.484,-2.4734,-2.4566,-2.45,-2.45,-2.45,-2.45,-2.45,-2.45,-2.45,-2.45,-2.45,-2.4498,-2.4497,-2.4497,-2.4497,-2.4505,-2.4495,-2.452,-2.4555,-2.4566,-2.4524,-2.4508,-2.4497,-2.4498,-2.45,-2.45,-2.45,-2.45,-2.45,-2.45,-2.4508,-2.4497,-2.3878,-2.3369,-2.3355,-2.3165,-2.2827,-2.2339,-2.271,-2.2856,-2.2361,-2.2304,-2.2304,-2.2304,-2.2586,-2.2755,-2.2755,-2.2755,-2.2623,-2.2323,-2.2304,-2.2661,-2.3476,-2.3494,-2.3889,-2.4681,-2.47,-2.47,-2.47,-2.47,-2.47,-2.4707,-2.4764,-2.4794,-2.4801,-2.5018,-2.5101,-2.5108,-2.5162,-2.5191,-2.5191,-2.5191,-2.5191,-2.5191,-2.5191,-2.5191,-2.5191,-2.5601,-2.5601,-2.5601,-2.5601,-2.5601,-2.5601,-2.5601,-2.5601,-2.5601,-2.5601,-2.5554,-2.5524,-2.5499,-2.5503,-2.5506,-2.5491,-2.5503,-2.5499,-2.5499,-2.5492,-2.5507,-2.5507,-2.5456,-2.5456,-2.5507,-2.5436,-2.5391,-2.5397,-2.5393,-2.5374,-2.5332,-2.5327,-2.5303,-2.5234,-2.5243,-2.5201,-2.5097,-2.4915,-2.4804,-2.4764,-2.4582,-2.45,-2.45,-2.45,-2.45,-2.45,-2.4498,-2.449,-2.45,-2.4515,-2.4532,-2.4503,-2.452,-2.4555,-2.4564,-2.4564,-2.4599,-2.4623,-2.4639,-2.4582,-2.4524,-2.4539,-2.4513,-2.4507,-2.4534,-2.4517,-2.4508,-2.4534,-2.4507,-2.4515,-2.453,-2.4142,-2.3819,-2.3805,-2.3851,-2.3675,-2.313,-2.3525,-2.3675,-2.313,-2.3055,-2.2943,-2.2698,-2.268,-2.2567,-2.2323,-2.2041,-2.2018,-2.2327,-2.2592,-2.3114,-2.3905,-2.3921,-2.4163,-2.4738,-2.4715,-2.47,-2.47,-2.47,-2.4715,-2.4719,-2.4801,-2.4851,-2.4898,-2.5063,-2.5139,-2.512,-2.5174,-2.5191,-2.5191,-2.5191,-2.5191,-2.5191,-2.5191,-2.5191,-2.5191,-2.5601,-2.5601,-2.5601,-2.5601,-2.5601,-2.5601,-2.5601,-2.5601,-2.5601,-2.5601,-2.5601,-2.5573,-2.5512,-2.5505,-2.5498,-2.5495,-2.5494,-2.5499,-2.5495,-2.5499,-2.5507,-2.5507,-2.5507,-2.5507,-2.5507,-2.5429,-2.5401,-2.5401,-2.54,-2.5391,-2.541,-2.5407,-2.5284,-2.5091,-2.5107,-2.4942,-2.4707,-2.4707,-2.4613,-2.45,-2.45,-2.45,-2.45,-2.45,-2.45,-2.4508,-2.4505,-2.4497,-2.4517,-2.4574,-2.4555,-2.4512,-2.4572,-2.465,-2.4709,-2.4709,-2.4709,-2.4698,-2.4692,-2.4645,-2.4607,-2.4607,-2.4555,-2.4512,-2.4572,-2.4541,-2.4525,-2.459,-2.4555,-2.452,-2.4599,-2.4658,-2.4709,-2.4709,-2.4695,-2.47,-2.47,-2.47,-2.47,-2.47,-2.47,-2.4388,-2.3569,-2.3494,-2.3175,-2.2361,-2.1478,-2.1412,-2.2356,-2.3227,-2.4049,-2.4864,-2.4825,-2.4794,-2.4775,-2.4719,-2.47,-2.47,-2.47,-2.4746,-2.4794,-2.4867,-2.4961,-2.5101,-2.5181,-2.5191,-2.5191,-2.5191,-2.5191,-2.5191,-2.5191,-2.5191,-2.5191,-2.5191,-2.5191,-2.5191,-2.5663,-2.5634,-2.5601,-2.5601,-2.5601,-2.5601,-2.5601,-2.5601,-2.5601,-2.5601,-2.5601,-2.5598,-2.5573,-2.5577,-2.5541,-2.5495,-2.5508,-2.5498,-2.5499,-2.5499,-2.5507,-2.5507,-2.5507,-2.5507,-2.5507,-2.5484,-2.5452,-2.5401,-2.5393,-2.5404,-2.541,-2.5402,-2.5364,-2.5313,-2.5208,-2.5126,-2.5043,-2.4854,-2.4716,-2.465,-2.458,-2.453,-2.4505,-2.4557,-2.4566,-2.4574,-2.4564,-2.4582,-2.4574,-2.4599,-2.4615,-2.4631,-2.4666,-2.4671,-2.4703,-2.4698,-2.4706,-2.4711,-2.47,-2.4684,-2.466,-2.4674,-2.4615,-2.459,-2.4599,-2.4582,-2.4574,-2.4599,-2.4572,-2.4599,-2.4658,-2.4701,-2.4698,-2.4703,-2.47,-2.47,-2.47,-2.47,-2.47,-2.47,-2.47,-2.4388,-2.3569,-2.3494,-2.3175,-2.2361,-2.1537,-2.1727,-2.3233,-2.2975,-2.2906,-2.3139,-2.3771,-2.3809,-2.3189,-2.4188,-2.47,-2.47,-2.4753,-2.4772,-2.482,-2.4972,-2.5063,-2.5101,-2.5181,-2.5191,-2.5191,-2.5191,-2.5191,-2.5191,-2.5191,-2.5191,-2.5191,-2.5191,-2.5191,-2.5191,-2.5707,-2.568,-2.5634,-2.561,-2.5601,-2.5601,-2.5601,-2.5601,-2.5601,-2.5601,-2.5601,-2.5601,-2.5601,-2.5592,-2.5583,-2.5535,-2.5548,-2.5534,-2.5494,-2.5491,-2.5499,-2.5499,-2.5492,-2.5507,-2.5507,-2.5507,-2.5484,-2.5433,-2.5433,-2.5444,-2.5436,-2.5408,-2.5363,-2.5322,-2.5182,-2.5097,-2.5037,-2.4811,-2.4704,-2.4665,-2.4613,-2.459,-2.4547,-2.4572,-2.4607,-2.4607,-2.4623,-2.4615,-2.4607,-2.4621,-2.4671,-2.4706,-2.4706,-2.4703,-2.47,-2.4695,-2.4703,-2.47,-2.47,-2.47,-2.47,-2.4695,-2.4682,-2.4631,-2.4647,-2.4631,-2.4615,-2.4629,-2.4639,-2.4639,-2.4679,-2.4706,-2.4695,-2.47,-2.47,-2.47,-2.47,-2.47,-2.47,-2.47,-2.47,-2.4388,-2.3569,-2.3523,-2.3213,-2.2437,-2.2224,-2.2458,-2.3221,-2.3081,-2.2844,-2.2525,-2.3048,-2.3095,-2.2581,-2.3442,-2.3857,-2.3834,-2.4229,-2.4244,-2.3948,-2.4734,-2.4942,-2.4677,-2.5033,-2.5191,-2.5191,-2.5191,-2.5191,-2.5191,-2.5191,-2.5191,-2.5191,-2.5191,-2.5191,-2.5191,-2.5707,-2.5707,-2.5671,-2.5601,-2.5601,-2.5601,-2.5601,-2.5601,-2.5601,-2.5601,-2.5601,-2.5601,-2.5601,-2.5601,-2.5601,-2.5601,-2.5605,-2.5573,-2.5518,-2.5494,-2.5499,-2.5499,-2.5503,-2.5492,-2.5496,-2.5492,-2.5507,-2.5507,-2.5507,-2.5484,-2.5476,-2.5421,-2.5321,-2.5194,-2.5043,-2.4929,-2.4797,-2.4668,-2.4615,-2.4607,-2.4615,-2.4615,-2.4607,-2.4615,-2.4615,-2.4623,-2.4674,-2.4666,-2.4623,-2.4676,-2.47,-2.47,-2.47,-2.47,-2.47,-2.47,-2.47,-2.47,-2.47,-2.47,-2.47,-2.47,-2.4695,-2.4698,-2.4692,-2.4645,-2.4639,-2.4692,-2.4695,-2.4698,-2.47,-2.47,-2.47,-2.47,-2.47,-2.47,-2.47,-2.47,-2.47,-2.47,-2.4707,-2.4396,-2.3584,-2.3573,-2.3365,-2.2785,-2.3348,-2.341,-2.2764,-2.3406,-2.3426,-2.2637,-2.2537,-2.2504,-2.2487,-2.2446,-2.2435,-2.2525,-2.3322,-2.3362,-2.2785,-2.4305,-2.4694,-2.4178,-2.4897,-2.5214,-2.5214,-2.5214,-2.5208,-2.5203,-2.5214,-2.5208,-2.5203,-2.5203,-2.5203,-2.5203,-2.5707,-2.5707,-2.5671,-2.5601,-2.5601,-2.5601,-2.5601,-2.5601,-2.5601,-2.5601,-2.5601,-2.5601,-2.5601,-2.5601,-2.5601,-2.5601,-2.5605,-2.5596,-2.5573,-2.5538,-2.5508,-2.5508,-2.5503,-2.5503,-2.5501,-2.5507,-2.5507,-2.5507,-2.5507,-2.5455,-2.5341,-2.5337,-2.5239,-2.5113,-2.4975,-2.4908,-2.4874,-2.4734,-2.4679,-2.4674,-2.4687,-2.4679,-2.4674,-2.4687,-2.4676,-2.4676,-2.4684,-2.4684,-2.4684,-2.47,-2.47,-2.47,-2.47,-2.47,-2.47,-2.47,-2.47,-2.47,-2.47,-2.47,-2.47,-2.47,-2.47,-2.4692,-2.47,-2.4692,-2.4684,-2.47,-2.47,-2.4692,-2.47,-2.47,-2.47,-2.47,-2.47,-2.47,-2.47,-2.47,-2.47,-2.47,-2.4753,-2.4459,-2.3656,-2.3649,-2.3929,-2.4493,-2.4074,-2.3753,-2.3697,-2.3237,-2.2627,-2.1864,-2.1822,-2.1512,-2.0895,-2.0943,-2.149,-2.2578,-2.2815,-2.3194,-2.3717,-2.4125,-2.46,-2.5114,-2.5274,-2.5365,-2.5365,-2.5365,-2.5327,-2.5271,-2.5341,-2.5327,-2.5285,-2.5285,-2.5285,-2.528,-2.5707,-2.5707,-2.5699,-2.5644,-2.5617,-2.5601,-2.5601,-2.5601,-2.5601,-2.5601,-2.5601,-2.5601,-2.5601,-2.5601,-2.5601,-2.5601,-2.5592,-2.5609,-2.5609,-2.5573,-2.5548,-2.5548,-2.5527,-2.5501,-2.5495,-2.5494,-2.5495,-2.5503,-2.5496,-2.5423,-2.5308,-2.5308,-2.5233,-2.5084,-2.4968,-2.4902,-2.4895,-2.4757,-2.4692,-2.4695,-2.4692,-2.4692,-2.4695,-2.4692,-2.47,-2.47,-2.47,-2.47,-2.47,-2.47,-2.47,-2.47,-2.47,-2.47,-2.47,-2.47,-2.47,-2.47,-2.47,-2.47,-2.47,-2.47,-2.47,-2.47,-2.47,-2.47,-2.47,-2.47,-2.47,-2.47,-2.47,-2.47,-2.47,-2.47,-2.47,-2.47,-2.47,-2.47,-2.4715,-2.4734,-2.4772,-2.4679,-2.4345,-2.4295,-2.4512,-2.5107,-2.473,-2.4329,-2.4029,-2.3596,-2.2839,-2.1678,-2.1653,-2.1442,-2.1022,-2.1043,-2.1651,-2.279,-2.2798,-2.3029,-2.35,-2.4345,-2.4763,-2.4853,-2.523,-2.541,-2.5391,-2.5393,-2.5376,-2.535,-2.539,-2.5378,-2.534,-2.534,-2.534,-2.534,-2.5709,-2.5707,-2.5707,-2.5707,-2.5644,-2.5612,-2.5612,-2.5613,-2.5601,-2.5601,-2.5601,-2.5601,-2.5601,-2.5601,-2.5601,-2.5601,-2.5601,-2.5601,-2.5601,-2.5609,-2.5602,-2.5602,-2.5548,-2.5522,-2.5525,-2.5518,-2.5505,-2.5495,-2.5488,-2.5406,-2.5264,-2.5243,-2.5154,-2.5037,-2.4922,-2.4867,-2.4854,-2.4742,-2.47,-2.47,-2.47,-2.47,-2.47,-2.47,-2.47,-2.47,-2.47,-2.47,-2.47,-2.47,-2.47,-2.47,-2.47,-2.47,-2.47,-2.47,-2.47,-2.47,-2.47,-2.4723,-2.4738,-2.4707,-2.4723,-2.4738,-2.4707,-2.47,-2.47,-2.47,-2.47,-2.47,-2.47,-2.47,-2.47,-2.47,-2.4715,-2.4715,-2.4707,-2.473,-2.4742,-2.4787,-2.4842,-2.4912,-2.5108,-2.5012,-2.5038,-2.5203,-2.5212,-2.4935,-2.4298,-2.4163,-2.3504,-2.2191,-2.1997,-2.1917,-2.1927,-2.1927,-2.2357,-2.3212,-2.3169,-2.3147,-2.3192,-2.4575,-2.4927,-2.4487,-2.5136,-2.5429,-2.5437,-2.543,-2.5421,-2.5421,-2.5428,-2.5437,-2.5418,-2.5418,-2.541,-2.5406,-2.5696,-2.5707,-2.5707,-2.5707,-2.5682,-2.5697,-2.5697,-2.5643,-2.5601,-2.5601,-2.5601,-2.5601,-2.5601,-2.5601,-2.5601,-2.5601,-2.5601,-2.5601,-2.5601,-2.5598,-2.5598,-2.5598,-2.5583,-2.5583,-2.5595,-2.5528,-2.5505,-2.5495,-2.5389,-2.5269,-2.5113,-2.5019,-2.4881,-2.4749,-2.4746,-2.4738,-2.4738,-2.4715,-2.47,-2.47,-2.47,-2.47,-2.47,-2.47,-2.47,-2.47,-2.47,-2.47,-2.47,-2.47,-2.47,-2.47,-2.47,-2.47,-2.47,-2.47,-2.47,-2.47,-2.47,-2.4787,-2.484,-2.4738,-2.4794,-2.484,-2.4738,-2.47,-2.47,-2.47,-2.47,-2.47,-2.47,-2.47,-2.47,-2.47,-2.4761,-2.4776,-2.4715,-2.4808,-2.4847,-2.4801,-2.4952,-2.5089,-2.5187,-2.5168,-2.5184,-2.529,-2.5296,-2.5284,-2.5294,-2.4594,-2.4103,-2.3955,-2.3223,-2.2821,-2.2823,-2.2823,-2.3251,-2.4122,-2.4114,-2.4111,-2.4111,-2.4357,-2.4807,-2.5414,-2.5525,-2.5579,-2.5568,-2.5571,-2.5543,-2.5493,-2.5554,-2.5544,-2.5487,-2.5487,-2.5444,-2.5411,-2.568,-2.5707,-2.5707,-2.5707,-2.5707,-2.5707,-2.5707,-2.5668,-2.5638,-2.5593,-2.5632,-2.5648,-2.5607,-2.5601,-2.5601,-2.5601,-2.5601,-2.5601,-2.5601,-2.5601,-2.5601,-2.5601,-2.5595,-2.5595,-2.5601,-2.5567,-2.5508,-2.539,-2.5324,-2.518,-2.5,-2.4935,-2.4825,-2.47,-2.47,-2.47,-2.47,-2.47,-2.47,-2.47,-2.47,-2.47,-2.47,-2.47,-2.47,-2.47,-2.47,-2.47,-2.47,-2.47,-2.47,-2.47,-2.47,-2.47,-2.47,-2.47,-2.47,-2.47,-2.47,-2.4797,-2.4896,-2.4828,-2.4936,-2.5024,-2.4896,-2.4869,-2.4847,-2.4719,-2.47,-2.47,-2.47,-2.47,-2.4715,-2.4761,-2.4772,-2.4801,-2.4816,-2.4861,-2.4921,-2.4965,-2.5082,-2.5175,-2.5205,-2.5231,-2.5275,-2.5306,-2.537,-2.544,-2.5495,-2.5163,-2.4762,-2.4313,-2.3928,-2.3734,-2.3734,-2.3734,-2.4161,-2.5035,-2.5035,-2.5035,-2.5035,-2.5035,-2.5249,-2.5601,-2.5601,-2.5598,-2.5591,-2.5636,-2.5644,-2.5601,-2.5644,-2.5639,-2.5619,-2.5619,-2.5591,-2.5561]},{"header":{"parameterUnit":"m.s-1","parameterCategory":1,"la1":30.6,"la2":28.766,"lo1":-90.7593,"lo2":-88.6598,"dy":0.0162,"dx":0.0183,"nx":116,"ny":114,"refTime":"2023-09-05T06:00:00:Z","depth":0,"parameterNumber":3,"parameterNumberName":"V-component_of_WINDS"},"data":[0.0,0.0,0.0,0.0,0.0,0.0,0.0,0.0,0.0,0.0,0.0,0.0,0.0,0.0,0.0,0.0,0.0,0.0,0.0,0.0,0.0,0.0,0.0,0.0,0.0,0.0,0.0,0.0,0.0,0.0,0.0,0.0,0.0,0.0,0.0,0.0,0.0,0.0,0.0,0.0,0.0,0.0,0.0,0.0,0.0,0.0,0.0,0.0,0.0,0.0,0.0,0.0,0.0,0.0,0.0,0.0,0.0,0.0,0.0,0.0,0.0,0.0,0.0,0.0,0.0,0.0,0.0,0.0,0.0,0.0,0.0,0.0,0.0,0.0,0.0,0.0,0.0,0.0,0.0,0.0,0.0,0.0,0.0,0.0,0.0,0.0,0.0,0.0,0.0,0.0,0.0,0.0,0.0,0.0,0.0,0.0,0.0,0.0,0.0,0.0,0.0,0.0,0.0,0.0,0.0,0.0,0.0,0.0,0.0,0.0,0.0,0.0,0.0,0.0,0.0,0.0,0.0,0.0,0.0,0.0,0.0,0.0,0.0,0.0,0.0,0.0,0.0,0.0,0.0,0.0,0.0,0.0,0.0,0.0,0.0,0.0,0.0,0.0,0.0,0.0,0.0,0.0,0.0,0.0,0.0,0.0,0.0,0.0,0.0,0.0,0.0,0.0,0.0,0.0,0.0,0.0,0.0,0.0,0.0,0.0,0.0,0.0,0.0,0.0,0.0,0.0,0.0,0.0,0.0,0.0,0.0,0.0,0.0,0.0,0.0,0.0,0.0,0.0,0.0,0.0,0.0,0.0,0.0,0.0,0.0,0.0,0.0,0.0,0.0,0.0,0.0,0.0,0.0,0.0,0.0,0.0,0.0,0.0,0.0,0.0,0.0,0.0,0.0,0.0,0.0,0.0,0.0,0.0,0.0,0.0,0.0,0.0,0.0,0.0,0.0,0.0,0.0,0.0,0.0,0.0,0.0,0.0,0.0,0.0,0.0,0.0,0.0,0.0,0.0,0.0,0.0,0.0,0.0,0.0,0.0,0.0,0.0,0.0,0.0,0.0,0.0,0.0,0.0,0.0,0.0,0.0,0.0,0.0,0.0,0.0,0.0,0.0,0.0,0.0,0.0,0.0,0.0,0.0,0.0,0.0,0.0,0.0,0.0,0.0,0.0,0.0,0.0,0.0,0.0,0.0,0.0,0.0,0.0,0.0,0.0,0.0,0.0,0.0,0.0,0.0,0.0,0.0,0.0,0.0,0.0,0.0,0.0,0.0,0.0,0.0,0.0,0.0,0.0,0.0,0.0,0.0,0.0,0.0,0.0,0.0,0.0,0.0,0.0,0.0,0.0,0.0,0.0,0.0,0.0,0.0,0.0,0.0,0.0,0.0,0.0,0.0,0.0,0.0,0.0,0.0,0.0,0.0,0.0,0.0,0.0,0.0,0.0,0.0,0.0,0.0,0.0,0.0,0.0,0.0,0.0,0.0,0.0,0.0,0.0,0.0,0.0,0.0,0.0,0.0,0.0,0.0,0.0,0.0,0.0,0.0,0.0,0.0,0.0,0.0,0.0,0.0,0.0,0.0,0.0,0.0,0.0,0.0,0.0,0.0,0.0,0.0,0.0,0.0,0.0,0.0,0.0,0.0,0.0,0.0,0.0,0.0,0.0,0.0,0.0,0.0,0.0,0.0,0.0,0.0,0.0,0.0,0.0,0.0,0.0,0.0,0.0,0.0,0.0,0.0,0.0,0.0,0.0,0.0,0.0,0.0,0.0,0.0,0.0,0.0,0.0,0.0,0.0,0.0,0.0,0.0,0.0,0.0,0.0,0.0,0.0,0.0,0.0,0.0,0.0,0.0,0.0,0.0,0.0,0.0,0.0,0.0,0.0,0.0,0.0,0.0,0.0,0.0,0.0,0.0,0.0,0.0,0.0,0.0,0.0,0.0,0.0,0.0,0.0,0.0,0.0,0.0,0.0,0.0,0.0,0.0,0.0,0.0,0.0,0.0,0.0,0.0,0.0,0.0,0.0,0.0,0.0,0.0,0.0,0.0,0.0,0.0,0.0,0.0,0.0,0.0,0.0,0.0,0.0,0.0,0.0,0.0,0.0,0.0,0.0,0.0,0.0,0.0,0.0,0.0,0.0,0.0,0.0,0.0,0.0,0.0,0.0,0.0,0.0,0.0,0.0,0.0,0.0,0.0,0.0,0.0,0.0,0.0,0.0,0.0,0.0,0.0,0.0,0.0,0.0,0.0,0.0,0.0,0.0,0.0,0.0,0.0,0.0,0.0,0.0,0.0,0.0,0.0,0.0,0.0,0.0,0.0,0.0,0.0,0.0,0.0,0.0,0.0,0.0,0.0,0.0,0.0,0.0,0.0,0.0,0.0,0.0,0.0,0.0,0.0,0.0,0.0,0.0,0.0,0.0,0.0,0.0,0.0,0.0,0.0,0.0,0.0,0.0,0.0,0.0,0.0,0.0,0.0,0.0,0.0,0.0,0.0,0.0,0.0,0.0,0.0,0.0,0.0,0.0,0.0,0.0,0.0,0.0,0.0,0.0,0.0,0.0,0.0,0.0,0.0,0.0,0.0,0.0,0.0,0.0,0.0,0.0,0.0,0.0,0.0,0.0,0.0,0.0,0.0,0.0,0.0,0.0,0.0,0.0,0.0,0.0,0.0,0.0,0.0,0.0,0.0,0.0,0.0,0.0,0.0,0.0,0.0,0.0,0.0,0.0,0.0,0.0,0.0,0.0,0.0,0.0,0.0,0.0,0.0,0.0,0.0,0.0,0.0,0.0,0.0,0.0,0.0,0.0,0.0,0.0,0.0,0.0,0.0,0.0,0.0,0.0,0.0,0.0,0.0,0.0,0.0,0.0,0.0,0.0,0.0,0.0,0.0,0.0,0.0,0.0,0.0,0.0,0.0,0.0,0.0,0.0,0.0,0.0,0.0,0.0,0.0,0.0,0.0,0.0,0.0,0.0,0.0,0.0,0.0,0.0,0.0,0.0,0.0,0.0,0.0,0.0,0.0,0.0,0.0,0.0,0.0,0.0,0.0,0.0,0.0,0.0,0.0,0.0,0.0,0.0,0.0,0.0,0.0,0.0,0.0,0.0,0.0,0.0,0.0,0.0,0.0,0.0,0.0,0.0,0.0,0.0,0.0,0.0,0.0,0.0,0.0,0.0,0.0,0.0,0.0,0.0,0.0,0.0,0.0,0.0,0.0,0.0,0.0,0.0,0.0,0.0,0.0,0.0,0.0,0.0,0.0,0.0,0.0,0.0,0.0,0.0,0.0,0.0,0.0,0.0,0.0,0.0,0.0,0.0,0.0,0.0,0.0,0.0,0.0,0.0,0.0,0.0,0.0,0.0,0.0,0.0,0.0,0.0,0.0,0.0,0.0,0.0,0.0,0.0,0.0,0.0,0.0,0.0,0.0,0.0,0.0,0.0,0.0,0.0,0.0,0.0,0.0,0.0,0.0,0.0,0.0,0.0,0.0,0.0,0.0,0.0,0.0,0.0,0.0,0.0,0.0,0.0,0.0,0.0,0.0,0.0,0.0,0.0,0.0,0.0,0.0,0.0,0.0,0.0,0.0,0.0,0.0,0.0,0.0,0.0,0.0,0.0,0.0,0.0,0.0,0.0,0.0,0.0,0.0,0.0,0.0,0.0,0.0,0.0,0.0,0.0,0.0,0.0,0.0,0.0,0.0,0.0,0.0,0.0,0.0,0.0,0.0,0.0,0.0,0.0,0.0,0.0,0.0,0.0,0.0,0.0,0.0,0.0,0.0,0.0,0.0,0.0,0.0,0.0,0.0,0.0,0.0,0.0,0.0,0.0,0.0,0.0,0.0,0.0,0.0,0.0,0.0,0.0,0.0,0.0,0.0,0.0,0.0,0.0,0.0,0.0,0.0,0.0,0.0,0.0,0.0,0.0,0.0,0.0,0.0,0.0,0.0,0.0,0.0,0.0,0.0,0.0,0.0,0.0,0.0,0.0,0.0,0.0,0.0,0.0,0.0,0.0,0.0,0.0,0.0,0.0,0.0,0.0,0.0,0.0,0.0,0.0,0.0,0.0,0.0,0.0,0.0,0.0,0.0,0.0,0.0,0.0,0.0,0.0,0.0,0.0,0.0,0.0,0.0,0.0,0.0,0.0,0.0,0.0,0.0,0.0,0.0,0.0,0.0,0.0,0.0,0.0,0.0,0.0,0.0,0.0,0.0,0.0,0.0,0.0,0.0,0.0,0.0,0.0,0.0,0.0,0.0,0.0,0.0,0.0,0.0,0.0,0.0,0.0,0.0,0.0,0.0,0.0,0.0,0.0,0.0,0.0,0.0,0.0,0.0,0.0,0.0,0.0,0.0,0.0,0.0,0.0,0.0,0.0,0.0,0.0,0.0,0.0,0.0,0.0,0.0,0.0,0.0,0.0,0.0,0.0,0.0,0.0,0.0,0.0,0.0,0.0,0.0,0.0,0.0,0.0,0.0,0.0,0.0,0.0,0.0,0.0,0.0,0.0,0.0,0.0,0.0,0.0,0.0,0.0,0.0,0.0,0.0,0.0,0.0,0.0,0.0,0.0,0.0,0.0,0.0,0.0,0.0,0.0,0.0,0.0,0.0,0.0,0.0,0.0,0.0,0.0,0.0,0.0,0.0,0.0,0.0,0.0,0.0,0.0,0.0,0.0,0.0,0.0,0.0,0.0,0.0,0.0,0.0,0.0,0.0,0.0,0.0,0.0,0.0,0.0,0.0,0.0,0.0,0.0,0.0,0.0,0.0,0.0,0.0,0.0,0.0,0.0,0.0,0.0,0.0,0.0,0.0,0.0,0.0,0.0,0.0,0.0,0.0,0.0,0.0,0.0,0.0,0.0,0.0,0.0,0.0,0.0,0.0,0.0,0.0,0.0,0.0,0.0,0.0,0.0,0.0,0.0,0.0,0.0,0.0,0.0,0.0,0.0,0.0,0.0,0.0,0.0,0.0,0.0,0.0,0.0,0.0,0.0,0.0,0.0,0.0,0.0,0.0,0.0,0.0,0.0,0.0,0.0,0.0,0.0,0.0,0.0,0.0,0.0,0.0,0.0,0.0,0.0,0.0,0.0,0.0,0.0,0.0,0.0,0.0,0.0,0.0,0.0,0.0,0.0,0.0,0.0,0.0,0.0,0.0,0.0,0.0,0.0,0.0,0.0,0.0,0.0,0.0,0.0,0.0,0.0,0.0,0.0,0.0,0.0,0.0,0.0,0.0,0.0,0.0,0.0,0.0,0.0,0.0,0.0,0.0,0.0,0.0,0.0,0.0,0.0,0.0,0.0,0.0,0.0,0.0,0.0,0.0,0.0,0.0,0.0,0.0,0.0,0.0,0.0,0.0,0.0,0.0,0.0,0.0,0.0,0.0,0.0,0.0,0.0,0.0,0.0,0.0,0.0,0.0,0.0,0.0,0.0,0.0,0.0,0.0,0.0,0.0,0.0,0.0,0.0,0.0,0.0,0.0,0.0,0.0,0.0,0.0,0.0,0.0,0.0,0.0,0.0,0.0,0.0,0.0,0.0,0.0,0.0,0.0,0.0,0.0,0.0,0.0,0.0,0.0,0.0,0.0,0.0,0.0,0.0,0.0,0.0,0.0,0.0,0.0,0.0,0.0,0.0,0.0,0.0,0.0,0.0,0.0,0.0,0.0,0.0,0.0,0.0,0.0,0.0,0.0,0.0,0.0,0.0,0.0,0.0,0.0,0.0,0.0,0.0,0.0,0.0,0.0,0.0,0.0,0.0,0.0,0.0,0.0,0.0,0.0,0.0,0.0,0.0,0.0,0.0,0.0,0.0,0.0,0.0,0.0,0.0,0.0,0.0,0.0,0.0,0.0,0.0,0.0,0.0,0.0,0.0,0.0,0.0,0.0,0.0,0.0,0.0,0.0,0.0,0.0,0.0,0.0,0.0,0.0,0.0,0.0,0.0,0.0,0.0,0.0,0.0,0.0,0.0,0.0,0.0,0.0,0.0,0.0,0.0,0.0,0.0,0.0,0.0,0.0,0.0,0.0,0.0,0.0,0.0,0.0,0.0,0.0,0.0,0.0,0.0,0.0,0.0,0.0,-1.1009,-0.9988,0.0,0.0,0.0,0.0,0.0,0.0,0.0,0.0,0.0,0.0,0.0,0.0,0.0,0.0,0.0,0.0,0.0,0.0,0.0,0.0,0.0,0.0,0.0,0.0,0.0,0.0,0.0,0.0,0.0,0.0,0.0,0.0,0.0,0.0,0.0,0.0,0.0,0.0,-0.8466,-0.9824,-1.1304,-1.0549,-1.0189,-1.0201,0.0,0.0,0.0,0.0,0.0,0.0,0.0,0.0,0.0,0.0,0.0,0.0,0.0,0.0,0.0,0.0,0.0,0.0,0.0,0.0,0.0,0.0,0.0,0.0,0.0,0.0,0.0,0.0,0.0,0.0,0.0,0.0,0.0,0.0,0.0,0.0,0.0,0.0,0.0,0.0,0.0,0.0,0.0,0.0,0.0,0.0,0.0,0.0,0.0,0.0,0.0,0.0,0.0,0.0,0.0,0.0,0.0,0.0,0.0,0.0,0.0,0.0,0.0,0.0,0.0,0.0,0.0,0.0,0.0,0.0,-1.229,-1.1556,0.0,0.0,0.0,0.0,0.0,0.0,0.0,0.0,0.0,0.0,0.0,0.0,0.0,0.0,0.0,0.0,0.0,0.0,0.0,0.0,0.0,0.0,0.0,-0.5489,-0.568,-0.5169,-0.5531,-0.5775,0.0,0.0,0.0,0.0,0.0,0.0,0.0,-0.8409,-0.8428,-0.8256,-1.0187,-1.1896,-1.3353,-1.2606,-1.191,-1.1244,-1.1028,0.0,0.0,0.0,0.0,0.0,0.0,0.0,0.0,0.0,0.0,0.0,0.0,0.0,0.0,0.0,0.0,0.0,0.0,0.0,0.0,0.0,0.0,0.0,0.0,0.0,0.0,0.0,0.0,0.0,0.0,0.0,0.0,0.0,0.0,0.0,0.0,0.0,0.0,0.0,0.0,0.0,0.0,0.0,0.0,0.0,0.0,0.0,0.0,0.0,0.0,0.0,0.0,0.0,0.0,0.0,0.0,0.0,0.0,0.0,0.0,0.0,0.0,0.0,-1.3643,-1.3643,-1.3623,-1.4093,-1.4256,-1.4147,-1.3859,-1.3663,-1.3435,-1.231,0.0,0.0,0.0,0.0,0.0,0.0,0.0,0.0,0.0,0.0,0.0,0.0,0.0,0.0,0.0,0.0,0.0,0.0,0.0,0.0,0.0,-0.6109,-0.6534,-0.6464,-0.672,-0.6867,-0.681,0.0,0.0,0.0,0.0,0.0,-0.7869,-0.8839,-0.9438,-0.9629,-1.1821,-1.324,-1.3984,-1.4387,-1.4599,-1.4604,-1.3569,-1.3162,-1.3276,0.0,0.0,0.0,0.0,0.0,0.0,0.0,0.0,0.0,0.0,0.0,0.0,0.0,0.0,0.0,0.0,0.0,0.0,0.0,0.0,0.0,0.0,0.0,0.0,0.0,0.0,0.0,0.0,0.0,0.0,0.0,0.0,0.0,0.0,0.0,0.0,0.0,0.0,0.0,0.0,0.0,-1.0768,-1.1174,0.0,0.0,0.0,0.0,0.0,0.0,0.0,0.0,0.0,0.0,0.0,0.0,0.0,-1.3793,-1.435,-1.4902,-1.5383,-1.5796,-1.586,-1.5804,-1.563,-1.5878,-1.5958,-1.5935,-1.5682,0.0,-1.4348,-1.3258,0.0,0.0,0.0,0.0,0.0,0.0,0.0,0.0,0.0,0.0,0.0,0.0,0.0,0.0,0.0,0.0,0.0,0.0,0.0,0.0,0.0,-0.7546,-0.8115,-0.7745,-0.8617,-0.8839,-0.8064,-0.8339,0.0,0.0,0.0,-0.8373,-0.8741,-0.9537,-1.0714,-1.226,-1.3,-1.4255,-1.5952,-1.5922,-1.6122,-1.6476,-1.5439,-1.4467,-1.367,-1.3808,0.0,0.0,0.0,0.0,0.0,0.0,0.0,0.0,0.0,0.0,0.0,0.0,0.0,0.0,0.0,0.0,0.0,0.0,0.0,0.0,0.0,0.0,0.0,0.0,0.0,0.0,0.0,0.0,0.0,0.0,0.0,0.0,0.0,0.0,0.0,0.0,0.0,0.0,0.0,-1.1031,-1.1613,-1.1807,-1.1995,-1.1984,0.0,0.0,0.0,0.0,0.0,0.0,0.0,0.0,0.0,-1.3555,-1.4014,-1.4627,-1.5405,-1.5657,-1.5986,-1.6421,-1.6267,-1.6255,-1.635,-1.6627,-1.6647,-1.6496,-1.6949,-1.6438,-1.5237,-1.4207,-1.4007,-1.4206,0.0,0.0,0.0,0.0,-1.2332,-1.2316,0.0,0.0,0.0,0.0,0.0,0.0,0.0,0.0,0.0,0.0,0.0,0.0,-0.7832,-0.9314,-1.0116,-0.966,-1.0665,-1.0782,-0.9562,-0.9511,-0.913,-0.8246,-0.8338,-0.8649,-0.9155,-1.0187,-1.164,-1.3551,-1.3866,-1.5046,-1.6988,-1.6967,-1.7361,-1.8051,-1.7138,-1.5843,-1.4315,-1.4365,-1.4066,-1.349,0.0,0.0,0.0,0.0,0.0,0.0,0.0,0.0,0.0,0.0,0.0,0.0,0.0,0.0,0.0,0.0,0.0,0.0,0.0,0.0,0.0,0.0,0.0,0.0,0.0,0.0,0.0,0.0,0.0,0.0,0.0,0.0,0.0,0.0,0.0,0.0,0.0,-1.1693,-1.2342,-1.227,-1.258,-1.2653,0.0,0.0,0.0,0.0,0.0,0.0,-1.3141,-1.3641,-1.4225,-1.4839,-1.5106,-1.5568,-1.6293,-1.6394,-1.6633,-1.6988,-1.6724,-1.6747,-1.6999,-1.7174,-1.7151,-1.7034,-1.7683,-1.7539,-1.6763,-1.5475,-1.4856,-1.4633,-1.4069,-1.3876,-1.3895,-1.3452,-1.3282,-1.3251,0.0,0.0,0.0,0.0,0.0,0.0,0.0,0.0,0.0,0.0,0.0,-0.8451,-0.9467,-1.1291,-1.2514,-1.265,-1.2692,-1.2327,-1.1429,-1.0433,-0.9373,-0.8246,-0.8693,-0.8739,-0.8271,-1.0587,-1.1877,-1.2016,-1.4336,-1.562,-1.59,-1.7271,-1.8565,-1.9657,-1.8841,-1.7544,-1.5893,-1.4451,-1.4119,-1.4388,-1.2909,0.0,0.0,0.0,0.0,0.0,0.0,0.0,0.0,0.0,0.0,0.0,0.0,0.0,0.0,0.0,0.0,0.0,0.0,0.0,0.0,0.0,0.0,0.0,0.0,0.0,0.0,0.0,0.0,0.0,0.0,0.0,0.0,0.0,0.0,0.0,0.0,0.0,0.0,-1.1976,-1.3889,0.0,0.0,0.0,0.0,-1.341,-1.3584,-1.3924,-1.4385,-1.485,-1.5337,-1.581,-1.6752,-1.7281,-1.7327,-1.7756,-1.8008,-1.8004,-1.802,-1.802,-1.8015,-1.7793,-1.7781,-1.8015,-1.7667,-1.8278,-1.9344,-1.7309,-1.6417,-1.6195,-1.5347,-1.5508,-1.6076,-1.4789,-1.4313,-1.4244,0.0,0.0,0.0,0.0,0.0,0.0,0.0,0.0,-0.6358,-0.7012,-0.8029,-0.9385,-1.1239,-1.217,-1.3154,-1.4339,-1.4027,-1.326,-1.2083,-1.1096,-0.997,-0.8713,-0.8549,-0.8919,-0.9861,-1.0955,-1.2263,-1.3837,-1.4865,-1.5989,-1.7219,-1.8103,-1.8902,-1.9547,-1.8574,-1.8005,-1.7623,-1.6192,-1.5389,-1.4943,-1.374,-1.3008,0.0,0.0,0.0,0.0,0.0,0.0,0.0,0.0,0.0,0.0,0.0,0.0,0.0,0.0,0.0,0.0,0.0,0.0,0.0,0.0,0.0,0.0,0.0,0.0,0.0,0.0,0.0,0.0,0.0,0.0,0.0,0.0,0.0,0.0,0.0,0.0,0.0,-1.4424,-1.5058,0.0,-1.4568,-1.4494,-1.4514,-1.458,-1.5209,-1.5971,-1.6775,-1.6993,-1.7476,-1.8327,-1.8024,-1.8024,-1.8345,-1.8027,-1.7838,-1.7849,-1.8182,-1.8215,-1.7983,-1.8188,-1.8037,-1.7684,-1.8056,-1.8148,-1.8054,-1.8489,-1.8187,-1.7398,-1.643,-1.6227,-1.6448,-1.623,-1.5894,-1.5501,0.0,0.0,0.0,0.0,0.0,0.0,0.0,0.0,-0.6534,-0.7774,-0.8792,-1.0255,-1.2452,-1.3339,-1.4248,-1.5397,-1.4931,-1.3912,-1.2375,-1.1349,-1.0034,-0.8299,-0.8421,-0.9372,-1.1169,-1.1771,-1.3012,-1.4938,-1.5383,-1.6314,-1.7683,-1.85,-1.9204,-1.9669,-1.9022,-1.8952,-1.9247,-1.7816,-1.6697,-1.5762,-1.4468,-1.3767,-1.3324,0.0,0.0,0.0,0.0,0.0,0.0,0.0,0.0,0.0,0.0,0.0,0.0,0.0,0.0,0.0,0.0,0.0,0.0,0.0,0.0,0.0,0.0,0.0,0.0,0.0,0.0,0.0,0.0,0.0,0.0,0.0,0.0,0.0,0.0,-1.4347,-1.5102,-1.5706,-1.6291,-1.6511,-1.6149,-1.6031,-1.611,-1.6421,-1.72,-1.7955,-1.8604,-1.8639,-1.8891,-1.9477,-1.8811,-1.847,-1.8572,-1.8197,-1.7928,-1.7761,-1.8302,-1.8375,-1.814,-1.8286,-1.8151,-1.7794,-1.7841,-1.7843,-1.7826,-1.8424,-1.8216,-1.7501,-1.7326,-1.705,-1.6784,-1.6997,-1.6878,-1.6536,0.0,0.0,0.0,0.0,0.0,0.0,0.0,-0.5553,-0.6321,-0.8519,-0.9641,-1.1029,-1.313,-1.4857,-1.5882,-1.592,-1.5363,-1.4212,-1.2283,-1.114,-0.9453,-0.7066,-0.8448,-1.0147,-1.2002,-1.3073,-1.4097,-1.5038,-1.5939,-1.6622,-1.7079,-1.8444,-1.9462,-2.0096,-2.0296,-2.0569,-2.0716,-1.9121,-1.7947,-1.6975,-1.5105,-1.4456,-1.4444,0.0,0.0,0.0,0.0,0.0,0.0,0.0,0.0,0.0,0.0,0.0,0.0,0.0,0.0,0.0,0.0,0.0,0.0,0.0,0.0,0.0,0.0,0.0,0.0,0.0,0.0,0.0,0.0,0.0,0.0,0.0,0.0,0.0,-1.3935,-1.5967,-1.692,-1.5717,-1.7685,-1.8719,-1.7685,-1.84,-1.8919,-1.8942,-1.9424,-1.9723,-1.9705,-1.9723,-1.9522,-1.9141,-1.9119,-1.8766,-1.8003,-1.8379,-1.8379,-1.7912,-1.8371,-1.8599,-1.8568,-1.8134,-1.8177,-1.8536,-1.704,-1.7398,-1.888,-1.7149,-1.6423,-1.655,-1.7915,-1.7957,-1.725,-1.7054,-1.7162,-1.7197,0.0,0.0,0.0,0.0,0.0,0.0,0.0,-0.5846,-0.6717,-0.8492,-0.9928,-1.1782,-1.4383,-1.4755,-1.527,-1.638,-1.4388,-1.2561,-1.1343,-0.9756,-0.8702,-0.8361,-1.0018,-1.1474,-1.2633,-1.3603,-1.4728,-1.6029,-1.6278,-1.6943,-1.803,-1.8766,-1.9385,-1.9899,-2.0232,-2.0642,-2.0988,-2.018,-1.9913,-1.9713,-1.6943,-1.5662,-1.5321,0.0,0.0,0.0,0.0,0.0,0.0,0.0,0.0,0.0,0.0,0.0,0.0,0.0,0.0,0.0,0.0,0.0,0.0,0.0,0.0,0.0,0.0,0.0,0.0,0.0,0.0,0.0,0.0,0.0,0.0,0.0,-1.5707,-1.6369,-1.6617,-1.6793,-1.7454,-1.8983,-1.9408,-1.9563,-1.9603,-1.9546,-1.962,-1.9964,-2.0125,-2.0151,-1.9989,-2.0124,-2.009,-1.9819,-1.9651,-1.959,-1.9716,-1.9008,-1.8602,-1.8471,-1.8446,-1.8449,-1.8459,-1.8679,-1.8847,-1.8868,-1.7146,-1.6693,-1.7138,-1.7076,-1.6796,-1.6452,-1.6848,-1.6835,-1.663,-1.6584,-1.6327,-1.5907,0.0,0.0,0.0,0.0,0.0,0.0,0.0,-0.5771,-0.6688,-0.8688,-1.0072,-1.1711,-1.3952,-1.4306,-1.448,-1.482,-1.2943,-1.1157,-0.9846,-0.8601,-0.8543,-0.9964,-1.1394,-1.2658,-1.3765,-1.4511,-1.5463,-1.6653,-1.6653,-1.7243,-1.8434,-1.9241,-1.9779,-2.0069,-2.071,-2.1041,-2.1093,-2.0824,-2.0762,-2.0643,-1.9023,-1.7854,-1.7024,-1.6182,-1.5394,-1.4712,-1.4482,-1.4505,-1.4519,-1.3678,0.0,0.0,0.0,0.0,0.0,0.0,0.0,0.0,0.0,0.0,0.0,0.0,0.0,0.0,0.0,0.0,0.0,0.0,0.0,0.0,0.0,0.0,0.0,0.0,-1.7254,-1.8421,-1.9333,-1.8952,-1.9154,-2.0661,-2.0726,-2.0653,-2.0722,-2.0211,-1.9969,-2.025,-1.9978,-1.9908,-2.0085,-2.0196,-2.0269,-2.0302,-2.016,-1.9963,-1.9783,-1.93,-1.8909,-1.8581,-1.8647,-1.8704,-1.8714,-1.8984,-1.9108,-1.9005,-1.719,-1.6413,-1.6433,-1.6775,-1.6724,-1.6433,0.0,0.0,0.0,0.0,-1.555,-1.4984,0.0,0.0,0.0,0.0,0.0,0.0,0.0,-0.5442,-0.6358,-0.886,-1.0014,-1.1131,-1.2544,-1.3498,-1.3579,-1.2383,-1.1291,-0.9939,-0.8228,-0.7969,-0.8999,-1.1488,-1.2596,-1.3765,-1.5049,-1.5535,-1.6218,-1.7089,-1.7089,-1.7544,-1.8517,-1.981,-2.0385,-2.0426,-2.1445,-2.1621,-2.1197,-2.1248,-2.1031,-2.0653,-2.1104,-2.042,-1.9048,-1.7631,-1.6993,-1.6659,-1.5801,-1.5535,-1.5443,-1.4665,0.0,0.0,0.0,0.0,0.0,0.0,0.0,0.0,0.0,0.0,0.0,0.0,0.0,0.0,0.0,0.0,0.0,0.0,0.0,0.0,0.0,0.0,0.0,0.0,-1.8585,-1.9907,-2.1791,-2.1709,-2.1408,-2.1293,-2.1652,-2.1688,-2.114,-2.0463,-2.0063,-1.9966,-1.9375,-1.9243,-1.9835,-1.9933,0.0,0.0,0.0,-1.9942,-1.8988,-1.9262,-1.9131,-1.8529,-1.8868,-1.9042,-1.9108,-1.9036,-1.8984,-1.8859,-1.7222,-1.662,-1.6693,-1.6399,-1.6259,-1.6282,-1.6901,-1.5822,-1.402,-1.4992,-1.493,-1.4438,0.0,0.0,0.0,0.0,0.0,0.0,0.0,-0.5039,-0.5982,-0.8196,-0.9411,-1.0575,-1.1929,-1.2351,-1.2411,-1.2089,-1.0365,-0.8823,-0.7711,-0.9279,-1.0648,-1.155,-1.3517,-1.4894,-1.5535,-1.6011,-1.6694,-1.7564,-1.7564,-1.8029,-1.8994,-1.9955,-2.0385,-2.0447,-2.1787,-2.2108,-2.1694,-2.2066,-2.218,-2.2097,-2.219,-2.1186,-1.9668,-1.9668,-1.8689,-1.7323,-1.7762,-1.7357,-1.6569,-1.6234,-1.6003,-1.5609,-1.4149,-1.301,0.0,0.0,0.0,0.0,0.0,0.0,0.0,0.0,0.0,0.0,0.0,0.0,0.0,0.0,0.0,0.0,0.0,0.0,0.0,-1.9074,-2.0423,-2.1734,-2.2949,-2.3029,-2.2662,-2.187,-2.1825,-2.1492,-2.041,-2.0172,-1.9835,-1.9276,-1.9077,-1.8844,-1.8432,-1.89,-1.9011,-1.8533,-1.8934,-1.9234,-1.9467,-1.8713,-1.868,-1.9368,-1.8767,0.0,-1.9088,-1.8611,-1.8226,-1.7946,-1.7595,-1.7885,-1.8433,-1.6417,-1.542,-1.5255,-1.5802,-1.5967,-1.5811,-1.5266,-1.4987,-1.4821,0.0,0.0,0.0,0.0,0.0,0.0,0.0,-0.541,-0.6216,-0.7796,-0.8561,-0.9256,-1.0118,-1.035,-1.0269,-0.9786,-0.8795,-0.829,-0.8493,-1.0233,-1.1757,-1.2886,-1.448,-1.5566,-1.605,-1.6288,-1.6705,-1.7358,-1.7585,-1.8195,-1.9119,-1.9996,-2.0519,-2.0803,-2.1735,-2.189,-2.1487,-2.1952,-2.2014,-2.1849,-2.2304,-2.1807,-2.0803,-2.1031,-2.0056,-1.8617,-1.8699,-1.8054,-1.7164,-1.6853,-1.6657,-1.6457,-1.5839,-1.4609,-1.3344,0.0,0.0,0.0,0.0,0.0,0.0,0.0,0.0,0.0,0.0,0.0,0.0,0.0,0.0,-1.6486,-1.7255,0.0,-1.9579,-2.0641,-2.1825,-2.2914,-2.3671,-2.3451,-2.2907,-2.2123,-2.2068,-2.1459,-1.9977,-1.9554,-1.9056,-1.8395,-1.8003,-1.7823,-1.7833,-1.8172,-1.8375,-1.8398,-1.8957,-1.91,-1.8787,-1.8509,-1.8308,-1.8263,-1.7992,-1.809,-1.8533,-1.7948,-1.7959,-1.8307,-1.684,-1.647,-1.6821,-1.5645,-1.504,-1.4904,-1.5059,-1.5356,-1.5632,-1.5176,-1.4852,-1.4635,0.0,0.0,0.0,0.0,0.0,0.0,0.0,-0.5818,-0.6448,-0.7366,-0.7724,-0.7992,-0.827,-0.8449,-0.8198,-0.7304,-0.7638,-0.8317,-0.9313,-1.1012,-1.2668,-1.4242,-1.5277,-1.6029,-1.6402,-1.6413,-1.6601,-1.7017,-1.7389,-1.8102,-1.9119,-1.9913,-2.0545,-2.101,-2.1652,-2.1631,-2.1145,-2.1611,-2.159,-2.1311,-2.2066,-2.2087,-2.1673,-2.1673,-2.0876,-1.9702,-1.906,-1.8085,-1.7066,-1.6824,-1.6528,-1.6376,-1.6954,-1.5819,-1.4326,-1.4494,-1.3638,0.0,0.0,0.0,0.0,0.0,0.0,0.0,0.0,-1.5981,-1.6832,-1.7481,-1.8058,-1.8683,-1.9482,-2.0377,-2.1241,-2.2055,-2.296,-2.3658,-2.3913,-2.3409,-2.2737,-2.1949,-2.1854,-2.1225,-1.9547,-1.8859,-1.822,-1.7529,-1.695,-1.6846,-1.7398,-1.7432,-1.7696,-1.8297,-1.8747,-1.8623,-1.7799,-1.8003,-1.7769,-1.7016,-1.7103,-1.7353,-1.7755,-1.7243,-1.7578,-1.8415,-1.5646,-1.4453,-1.4474,-1.4572,-1.4627,-1.461,-1.4383,-1.4561,-1.49,-1.4981,-1.4883,-1.4676,0.0,0.0,0.0,0.0,0.0,0.0,0.0,0.0,-0.6053,-0.665,-0.7161,-0.7504,-0.76,-0.7633,-0.727,-0.6347,-0.8107,-0.9179,-0.8989,-1.1737,-1.3662,-1.4283,-1.5587,-1.6361,-1.6413,-1.6413,-1.6601,-1.7017,-1.7058,-1.7761,-1.9119,-1.9627,-2.0079,-2.0555,-2.1849,-2.1932,-2.1145,-2.1611,-2.1776,-2.1735,-2.1849,-2.1611,-2.1186,-2.1186,-2.0596,-1.9713,-1.9103,-1.7488,-1.568,-1.6069,-1.5228,-1.4303,-1.5706,-1.5135,-1.4093,-1.4821,-1.4105,-1.3071,-1.2872,-1.3352,-1.3968,-1.425,-1.5028,-1.6198,0.0,-1.8839,-1.9654,-2.1023,-2.1732,-2.2155,-2.2237,-2.2719,-2.3109,-2.3224,-2.3717,-2.3866,-2.3213,-2.3075,-2.2446,-2.0893,-2.0628,-2.0088,-1.8813,-1.8306,-1.7676,-1.6777,-1.6638,-1.6577,-1.6447,-1.6447,-1.6482,-1.6577,-1.6542,-1.6682,-1.7003,-1.6421,-1.6533,-1.7332,-1.6539,-1.6459,-1.7006,-1.658,-1.6472,-1.6491,-1.4515,-1.3639,-1.3631,-1.3636,-1.3662,-1.3653,-1.3622,-1.4002,-1.4577,-1.4895,-1.5484,-1.5946,0.0,0.0,0.0,0.0,0.0,0.0,0.0,0.0,0.0,-0.6577,-0.6696,-0.6771,-0.6794,-0.6598,-0.6397,-0.6287,-0.7535,-0.8596,-0.9216,-1.1509,-1.3155,-1.3845,-1.4976,-1.5701,-1.5998,-1.598,-1.6322,-1.7017,-1.7017,-1.7575,-1.8714,-1.917,-1.9637,-2.0079,-2.0917,-2.0928,-2.0358,-2.0814,-2.1,-2.1031,-2.13,-2.094,-2.0214,-1.9778,-1.8718,-1.747,-1.6979,-1.5615,0.0,-1.4276,-1.4016,-1.39,-1.5668,-1.4722,-1.324,-1.4543,-1.3718,-1.2643,-1.3847,-1.4399,-1.5029,-1.6628,-1.7771,-1.8896,-2.0331,-2.1264,-2.2134,-2.3052,-2.3055,-2.2958,-2.3226,-2.3226,-2.3181,-2.3181,-2.3761,-2.3934,-2.3113,-2.2381,-2.1391,-1.9889,-1.9029,-1.8449,-1.8163,-1.7763,-1.7173,-1.6386,-1.6368,-1.6342,-1.6202,-1.6272,-1.6272,-1.6202,-1.6175,-1.6175,-1.6254,-1.5938,-1.5931,-1.6133,-1.5973,-1.5804,-1.5617,-1.5447,-1.5106,-1.463,-1.3852,-1.3511,-1.3528,-1.3759,-1.3716,-1.3511,-1.3511,-1.3653,-1.3895,-1.3589,-1.3869,-1.4268,0.0,0.0,0.0,0.0,0.0,0.0,0.0,0.0,0.0,0.0,-0.6439,-0.6369,-0.6304,-0.5988,-0.5922,-0.6266,-0.6969,-0.7917,-0.9135,-1.0916,-1.2317,-1.3207,-1.4252,-1.4966,-1.5297,-1.5432,-1.5825,-1.6448,-1.6448,-1.6943,-1.7864,-1.8206,-1.8673,-1.9253,-1.9665,-1.9758,-1.9616,-1.9779,-1.9934,-2.0058,-2.0141,-1.9694,-1.8875,-1.7923,-1.6475,-1.4903,-1.4723,-1.3736,-1.246,-1.2354,-1.2313,-1.26,-1.4259,-1.3366,-1.2026,-1.3685,-1.3152,-1.2446,-1.4365,-1.5269,-1.6221,-1.8526,-2.0182,-2.1479,-2.2318,-2.3304,-2.4129,-2.4533,-2.3996,-2.3481,-2.3671,-2.3073,-2.2572,-2.2609,-2.3003,-2.3011,-2.2322,-2.1269,-2.0079,-1.8821,-1.7577,-1.6938,-1.7295,-1.7117,-1.6723,-1.6158,-1.6202,-1.6167,-1.6035,-1.6105,-1.6105,-1.6035,-1.6044,-1.6017,-1.5805,-1.5694,-1.5548,-1.5377,-1.5343,-1.5103,-1.4675,-1.4461,-1.405,-1.3519,-1.3665,-1.3639,-1.3545,-1.405,-1.4024,-1.3682,-1.3793,-1.3699,-1.3434,-1.2792,-1.2694,-1.2769,0.0,0.0,0.0,0.0,0.0,0.0,0.0,0.0,0.0,0.0,0.0,0.0,0.0,-0.6117,-0.6,-0.6011,-0.6683,-0.7512,-0.8463,-1.005,-1.1364,-1.2307,-1.36,-1.4335,-1.4345,-1.479,-1.5028,-1.5059,-1.5059,-1.5535,-1.6475,-1.6485,-1.6943,-1.7781,-1.8247,-1.8714,-1.9098,-1.8652,-1.8735,-1.9067,-1.8143,-1.7492,-1.6957,-1.5766,-1.413,-1.2566,-1.2922,-1.2242,-1.1073,-1.0557,-0.9925,-0.9487,-1.0384,-1.0492,-1.0581,-1.212,-1.2564,-1.284,-1.4091,-1.576,-1.7533,-1.9244,-2.1493,-2.3453,-2.4005,-2.4912,-2.5647,-2.5658,-2.5082,-2.4382,-2.3809,-2.2414,-2.1434,-2.1711,-2.1267,-2.0761,-2.0333,-1.9457,-1.8581,-1.7726,-1.6581,-1.5909,-1.6132,-1.6263,-1.6254,-1.6096,-1.6096,-1.6035,-1.5841,-1.5797,-1.5797,-1.5797,-1.5797,-1.5805,-1.5805,-1.542,-1.542,-1.5771,-1.4667,-1.4333,-1.4658,-1.3887,-1.3528,-1.3536,-1.405,-1.3982,-1.3571,-1.435,-1.4435,-1.4119,-1.4495,-1.4179,-1.3468,-1.312,-1.2743,-1.2448,0.0,0.0,0.0,0.0,0.0,0.0,0.0,0.0,0.0,0.0,0.0,0.0,0.0,0.0,0.0,0.0,-0.6313,-0.6843,-0.7348,-0.9124,-1.0385,-1.0888,-1.2481,-1.3369,-1.3369,-1.3814,-1.4076,-1.4076,-1.4076,-1.4242,-1.4562,-1.5173,-1.5628,-1.5949,-1.6715,-1.7169,-1.7304,-1.7149,-1.7315,-1.7678,-1.7077,-1.6163,-1.5082,-1.3826,-1.2015,-1.0065,0.0,-0.9265,-0.9238,-0.9179,-0.8923,-0.8787,-0.9848,-0.9547,-0.9133,-1.0805,-1.1741,-1.2823,-1.5691,-1.7231,-1.8753,-2.1576,-2.3176,-2.4288,-2.5147,-2.5223,-2.4949,-2.4451,-2.2766,-2.1063,-2.0091,-1.9232,-1.8645,-1.8704,-1.9575,-2.0114,-1.9668,-1.9317,-1.8481,-1.6802,-1.6439,-1.6044,-1.5247,-1.527,-1.5512,-1.586,-1.6035,-1.6104,-1.6139,-1.6273,-1.6265,-1.6156,-1.5925,-1.5677,-1.5411,-1.5283,-1.5163,-1.5052,-1.4401,-1.4161,-1.4273,-1.375,-1.3511,-1.3528,-1.3973,-1.4059,-1.3908,-1.4234,-1.4262,-1.4121,-1.4296,-1.4179,-1.3936,-1.4058,-1.3862,-1.3395,0.0,0.0,0.0,0.0,0.0,0.0,0.0,0.0,0.0,0.0,0.0,0.0,0.0,0.0,0.0,0.0,0.0,-0.6369,-0.6644,-0.795,-0.8947,-0.9454,-1.091,-1.1747,-1.1944,-1.2398,-1.2636,-1.2636,-1.2803,-1.2886,-1.2906,-1.3662,-1.4107,-1.4283,-1.4883,-1.5235,-1.539,-1.539,-1.5266,-1.5059,-1.4806,-1.3832,-1.2473,-1.1381,-0.9932,0.0,-0.7744,-0.7478,-0.749,-0.7794,-0.805,-0.8378,-0.9046,-0.9168,-0.9331,-1.0679,-1.185,-1.3518,-1.703,-1.8645,-2.0039,-2.3113,-2.4436,-2.5101,-2.5753,-2.5258,-2.4378,-2.3223,-2.0941,-1.8784,-1.7643,-1.6523,-1.5984,-1.6613,-1.7435,-1.8125,-1.849,-1.8248,-1.7651,-1.6532,-1.6345,-1.6067,-1.5369,-1.5248,-1.5368,-1.5762,-1.6144,-1.637,-1.6291,-1.6547,-1.6661,-1.6505,-1.6182,-1.5874,-1.5625,-1.5352,-1.4966,-1.447,-1.4221,-1.4024,-1.3879,-1.3622,-1.3511,-1.3536,-1.4076,-1.4081,-1.3768,-1.4488,-1.4438,-1.3949,-1.4386,-1.4437,-1.4305,-1.4421,-1.433,-1.3939,0.0,0.0,0.0,0.0,0.0,0.0,0.0,0.0,0.0,0.0,0.0,0.0,0.0,0.0,0.0,0.0,0.0,0.0,-0.6369,-0.6667,-0.722,-0.8066,-0.8989,-0.9674,-1.0087,-1.059,-1.0838,-1.0838,-1.124,-1.1457,-1.1467,-1.1923,-1.2338,-1.2698,-1.2719,-1.2967,-1.339,-1.339,-1.2658,-1.1488,-1.1467,-1.065,-0.9353,-0.8628,-0.7963,-0.7444,-0.7563,-0.6894,-0.6024,-0.6539,-0.7399,-0.8212,-0.8063,-0.9287,-1.0927,-1.1621,-1.2978,-1.4933,-1.8093,-1.9904,-2.149,-2.3777,-2.5074,-2.5779,-2.5704,-2.4941,-2.3716,-2.1854,-1.9533,-1.748,-1.6329,-1.4369,-1.3548,-1.5357,-1.4993,-1.511,-1.6942,-1.6446,-1.6165,-1.6804,-1.631,-1.6011,-1.6356,-1.6107,-1.5882,-1.5857,-1.6516,-1.6727,-1.6376,-1.671,-1.6915,-1.6915,-1.653,-1.6353,-1.639,-1.5591,-1.4846,-1.4127,-1.411,-1.3887,-1.3511,-1.3511,-1.3519,-1.3579,-1.435,-1.4089,-1.3209,-1.4976,-1.4887,-1.3739,-1.4733,-1.4895,-1.4532,-1.4238,-1.4113,-1.407,0.0,0.0,0.0,0.0,0.0,0.0,0.0,0.0,0.0,0.0,0.0,0.0,0.0,0.0,0.0,0.0,0.0,0.0,-0.6102,-0.6965,-0.7292,-0.6873,-0.8372,-0.9056,-0.8715,-0.9458,-0.986,-0.986,-0.9677,-0.958,-0.959,-0.9704,-0.9819,-0.9926,-1.0239,-1.0438,-1.0551,-1.0551,-1.0345,-1.0012,-0.9698,-0.9165,-0.8472,-0.7937,-0.7202,-0.6444,-0.6266,-0.6364,-0.6751,-0.7917,-0.8526,-0.8898,-0.9507,-1.0059,-1.089,-1.2842,-1.4793,-1.6841,-1.9223,-2.1179,-2.2749,-2.3521,-2.4073,-2.4158,-2.3257,-2.1834,-2.0254,-1.8602,-1.6206,-1.3961,-1.2563,-1.2314,-1.2578,-1.3293,-1.4577,-1.5806,-1.6834,-1.7235,-1.7291,-1.6923,-1.6995,-1.6858,-1.6379,-1.6764,-1.6935,-1.6653,-1.6778,-1.6995,-1.7167,-1.7278,-1.7368,-1.7368,-1.697,-1.6636,-1.639,-1.5591,-1.4983,-1.453,-1.4238,-1.3887,-1.3511,-1.3511,-1.3665,-1.3973,-1.447,-1.4529,-1.4221,-1.4496,-1.4356,-1.3955,-1.3998,-1.4119,-1.4236,-1.4412,-1.446,-1.4413,0.0,0.0,0.0,0.0,0.0,0.0,0.0,0.0,0.0,0.0,0.0,0.0,0.0,0.0,0.0,0.0,0.0,0.0,0.0,-0.6596,-0.6781,-0.6414,-0.7455,-0.7945,-0.7719,-0.8196,-0.8444,-0.8444,-0.8344,-0.8284,-0.8294,-0.859,-0.8685,-0.8605,-0.8916,-0.8901,-0.8648,-0.8844,-0.8472,0.0,0.0,-0.7465,-0.6709,-0.6647,-0.6351,-0.5945,-0.5836,-0.6571,-0.7755,-0.8908,-0.9628,-1.0214,-1.114,-1.1716,-1.2432,-1.4528,-1.6114,-1.775,-2.0343,-2.1774,-2.2705,-2.3325,-2.3145,-2.2458,-2.1271,-1.9631,-1.7833,-1.5883,-1.3847,-1.2063,-1.0963,-1.0752,-1.1128,-1.2321,-1.3377,-1.4583,-1.6173,-1.6889,-1.7282,-1.7359,-1.7586,-1.7612,-1.7346,-1.7706,-1.7877,-1.7663,-1.7461,-1.7432,-1.7505,-1.7629,-1.7723,-1.7723,-1.7355,-1.6978,-1.6602,-1.6047,-1.5446,-1.4915,-1.4692,-1.4298,-1.3768,-1.3743,-1.3874,-1.4101,-1.4347,-1.4137,-1.3696,-1.4199,-1.3991,-1.3439,-1.3871,-1.4163,-1.4363,-1.474,-1.4983,-1.5099,0.0,0.0,0.0,0.0,0.0,0.0,0.0,0.0,0.0,0.0,0.0,0.0,0.0,0.0,0.0,0.0,0.0,0.0,0.0,0.0,-0.6104,-0.6247,-0.6456,-0.6669,-0.6877,-0.6941,-0.7005,-0.7058,-0.7239,-0.7317,-0.7328,-0.7845,-0.8015,-0.7852,-0.8028,-0.7782,-0.7268,-0.7672,-0.6896,-0.5472,-0.6293,-0.5889,-0.4857,0.0,-0.5623,-0.5755,-0.5956,-0.7051,-0.8579,-0.9639,-1.0708,-1.1814,-1.2931,-1.3782,-1.467,-1.6217,-1.7126,-1.8248,-2.1076,-2.18,-2.2016,-2.2925,-2.2142,-2.0783,-1.9516,-1.7896,-1.5984,-1.3626,-1.2124,-1.1077,-1.0553,-0.9734,-0.985,-1.2038,-1.2182,-1.2908,-1.5446,-1.612,-1.6761,-1.7803,-1.8008,-1.8237,-1.8554,-1.8588,-1.8588,-1.8588,-1.8245,-1.7854,-1.756,-1.786,-1.8,-1.8,-1.7715,-1.7389,-1.7034,-1.6724,-1.6124,-1.5292,-1.5292,-1.4872,-1.411,-1.4162,-1.4181,-1.4181,-1.4153,-1.3622,-1.2821,-1.4022,-1.3761,-1.2745,-1.3998,-1.443,-1.4506,-1.4903,-1.5284,-1.5611,0.0,0.0,0.0,0.0,0.0,0.0,0.0,0.0,0.0,0.0,-0.6457,-0.6413,0.0,0.0,0.0,0.0,0.0,0.0,0.0,0.0,0.0,-0.5509,-0.5738,-0.584,-0.5771,-0.6097,-0.6462,-0.6858,-0.651,-0.6344,-0.6344,-0.6128,-0.6003,-0.5972,-0.6003,-0.595,-0.5857,-0.5941,-0.5565,-0.4961,-0.5513,-0.5357,-0.488,-0.5573,0.0,0.0,-0.6384,-0.7026,-0.7797,-1.0165,-1.1745,-1.2998,-1.4687,-1.5414,-1.5866,-1.6802,-1.8138,-1.9488,-2.031,-2.137,-2.2136,-2.1456,-2.0731,-1.9685,-1.7586,-1.5707,-1.3887,-1.2168,-1.0769,-0.9834,-0.9779,-0.9851,-1.0456,-1.2124,-1.2851,-1.3827,-1.5557,-1.6388,-1.7004,-1.7509,-1.8108,-1.8519,-1.8579,-1.8588,-1.8588,-1.8588,-1.8245,-1.7965,-1.7906,-1.7957,-1.8,-1.8,-1.7931,-1.7871,-1.7803,-1.7466,-1.6785,-1.5703,-1.5703,-1.5137,-1.411,-1.4439,-1.4572,-1.4509,-1.4506,-1.4247,-1.3848,-1.4096,-1.3836,-1.3349,-1.3597,-1.369,-1.3726,-1.4137,-1.4489,-1.478,0.0,0.0,0.0,0.0,0.0,0.0,0.0,-0.6352,-0.6564,-0.6457,-0.636,-0.6378,-0.6582,-0.6343,-0.6198,0.0,0.0,0.0,0.0,0.0,0.0,0.0,0.0,0.0,-0.5603,-0.5798,-0.6011,-0.6223,0.0,-0.5795,-0.5785,-0.5663,-0.5567,-0.5502,-0.5576,-0.5567,-0.5481,-0.5241,-0.5011,-0.4815,-0.5053,-0.5001,-0.4859,0.0,0.0,0.0,0.0,-0.6352,-0.7045,-0.9062,-1.0665,-1.2171,-1.4262,-1.5602,-1.6514,-1.7053,-1.8179,-1.9489,-2.043,-2.096,-2.1212,-2.0869,-1.9561,-1.7818,-1.576,-1.385,-1.2047,-1.0521,-0.9677,-0.931,-0.9551,-0.9559,-0.9969,-1.131,-1.1987,-1.2946,-1.4667,-1.5737,-1.6619,-1.742,-1.8166,-1.8665,-1.887,-1.9067,-1.911,-1.8913,-1.8725,-1.8459,-1.8017,-1.8,-1.8,-1.8,-1.8,-1.8,-1.8,-1.786,-1.7107,-1.5805,-1.6388,-1.5874,-1.4427,-1.478,-1.4833,-1.4571,-1.4175,-1.3848,-1.3528,-1.3708,-1.3685,-1.3545,-1.3866,-1.4005,-1.4067,-1.4483,-1.461,-1.4581,0.0,0.0,0.0,0.0,0.0,0.0,0.0,-0.6064,-0.6497,-0.6229,-0.6199,-0.63,-0.6569,-0.6387,-0.6251,0.0,0.0,0.0,0.0,0.0,0.0,0.0,0.0,0.0,0.0,0.0,0.0,-0.5659,-0.5548,0.0,0.0,0.0,0.0,0.0,-0.5641,-0.5631,-0.5499,-0.5035,-0.4783,0.0,0.0,-0.4775,0.0,0.0,0.0,0.0,0.0,-0.572,-0.6414,-0.7763,-0.908,-1.0476,-1.2561,-1.4599,-1.63,-1.6694,-1.7621,-1.8834,-2.0235,-2.0359,-2.0104,-2.0189,-1.8407,-1.6182,-1.429,-1.2485,-1.0769,-0.9295,-0.8996,-0.9124,-0.9529,-0.926,-0.9392,-1.0563,-1.0915,-1.1713,-1.3618,-1.4838,-1.5977,-1.7136,-1.8031,-1.8742,-1.9179,-1.9367,-1.941,-1.923,-1.9025,-1.8674,-1.8025,-1.8,-1.8,-1.8,-1.8,-1.8,-1.8,-1.8,-1.7325,-1.6054,-1.7013,-1.6647,-1.5069,-1.5325,-1.519,-1.4708,-1.403,-1.3534,-1.3228,-1.3418,-1.3536,-1.3653,-1.4119,-1.4298,-1.4335,-1.4758,-1.4733,-1.4489,0.0,0.0,0.0,0.0,0.0,0.0,0.0,-0.5848,-0.6424,-0.5915,-0.584,-0.604,-0.6549,-0.6251,-0.6108,0.0,0.0,0.0,0.0,0.0,0.0,0.0,0.0,0.0,0.0,0.0,0.0,-0.5521,-0.5511,0.0,0.0,0.0,0.0,0.0,0.0,-0.5659,-0.5563,-0.5157,0.0,0.0,0.0,0.0,0.0,0.0,0.0,0.0,0.0,-0.5678,-0.6115,-0.7282,-0.7927,-0.8451,-0.9643,-1.2025,-1.4507,-1.5323,-1.6376,-1.7538,-1.8756,-1.9286,-1.928,-1.8443,-1.7076,-1.5411,-1.3541,-1.1884,-1.0422,-0.9243,-0.8996,-0.9124,-0.9529,-0.926,-0.9413,-1.0681,-1.0492,-1.0899,-1.2914,-1.4122,-1.524,-1.6356,-1.7754,-1.8742,-1.9179,-1.8888,-1.8828,-1.9187,-1.8528,-1.8068,-1.8,-1.8,-1.8,-1.8,-1.8,-1.8,-1.8,-1.8,-1.759,-1.6787,-1.7299,-1.7059,-1.6235,-1.622,-1.5798,-1.5123,-1.4704,-1.4262,-1.3872,-1.3601,-1.3667,-1.3946,-1.3682,-1.3572,-1.3645,-1.403,-1.416,-1.4165,0.0,0.0,0.0,0.0,0.0,0.0,-0.4786,-0.559,-0.6101,-0.588,-0.5855,-0.5802,-0.5652,-0.582,-0.6031,-0.628,0.0,0.0,0.0,0.0,0.0,0.0,0.0,0.0,0.0,0.0,-0.5799,-0.5799,-0.5678,0.0,0.0,0.0,0.0,0.0,0.0,-0.5567,-0.5507,-0.5112,0.0,0.0,0.0,0.0,0.0,0.0,0.0,0.0,0.0,0.0,-0.5676,-0.616,-0.6587,-0.6979,-0.7372,-0.8891,-1.0973,-1.309,-1.4678,-1.6074,-1.7458,-1.8178,-1.8464,-1.8074,-1.6693,-1.5018,-1.3357,-1.1627,-1.0089,-0.9183,-0.8996,-0.9047,-0.9201,-0.9188,-0.9215,-0.9478,-0.9787,-1.0405,-1.166,-1.3048,-1.447,-1.5972,-1.7294,-1.8273,-1.8801,-1.8896,-1.8947,-1.887,-1.8331,-1.8,-1.8,-1.8,-1.8,-1.8,-1.8,-1.8,-1.8,-1.8,-1.7624,-1.6927,-1.7526,-1.7295,-1.6353,-1.6279,-1.5859,-1.5178,-1.4505,-1.4044,-1.3675,-1.355,-1.3689,-1.4005,-1.3843,-1.3784,-1.3822,-1.397,-1.3918,-1.3739,0.0,0.0,0.0,0.0,0.0,-0.4011,-0.4227,-0.5039,-0.5578,-0.5419,-0.5394,-0.5304,-0.5029,-0.5239,-0.5538,-0.5881,-0.6055,0.0,0.0,0.0,0.0,0.0,0.0,0.0,0.0,0.0,-0.6036,-0.6002,-0.5854,-0.5762,0.0,0.0,-0.5595,-0.5558,0.0,0.0,0.0,0.0,0.0,0.0,0.0,0.0,0.0,0.0,0.0,0.0,0.0,0.0,0.0,0.0,0.0,-0.5991,-0.6024,0.0,0.0,-1.0745,-1.2646,-1.4217,-1.5706,-1.6571,-1.7081,-1.7013,-1.5788,-1.4187,-1.282,-1.1182,-0.9773,-0.9132,-0.8996,-0.8996,-0.8996,-0.899,-0.8959,-0.8821,-0.9202,-0.9832,-1.0745,-1.2246,-1.3696,-1.505,-1.634,-1.7379,-1.8095,-1.869,-1.8845,-1.8451,-1.8145,-1.8,-1.8,-1.8,-1.8,-1.8,-1.8,-1.8,-1.8,-1.8,-1.7735,-1.7214,-1.7743,-1.7521,-1.6641,-1.6492,-1.5952,-1.5178,-1.4462,-1.3985,-1.3631,-1.3536,-1.3689,-1.3975,-1.3879,-1.3843,-1.3843,-1.3843,-1.3631,-1.3367,0.0,0.0,0.0,0.0,0.0,0.0,-0.3099,-0.4151,-0.482,-0.428,-0.4222,-0.4414,-0.4941,-0.4535,-0.444,-0.4959,-0.5918,0.0,0.0,0.0,0.0,0.0,0.0,0.0,0.0,0.0,-0.6132,-0.5998,-0.5988,-0.5895,-0.5704,-0.5835,-0.5826,-0.5704,0.0,0.0,0.0,0.0,0.0,0.0,0.0,0.0,0.0,0.0,0.0,0.0,0.0,0.0,0.0,0.0,0.0,0.0,0.0,0.0,0.0,0.0,-1.0176,-1.1796,-1.3396,-1.4369,-1.489,-1.4778,-1.3853,-1.2726,-1.1576,-1.042,-0.9495,-0.9081,-0.8996,-0.8996,-0.8996,-0.8727,-0.8675,-0.9209,-0.8921,-0.9068,-1.0423,-1.1889,-1.2934,-1.3283,-1.4748,-1.6079,-1.7012,-1.8017,-1.8442,-1.8034,-1.8,-1.8,-1.8,-1.8,-1.8,-1.8,-1.8,-1.8,-1.8,-1.8,-1.7991,-1.7991,-1.7991,-1.7834,-1.748,-1.709,-1.6255,-1.517,-1.4756,-1.4373,-1.3953,-1.3631,-1.3689,-1.399,-1.3623,-1.3499,-1.3499,-1.3499,-1.3294,-1.306,0.0,0.0,0.0,0.0,0.0,0.0,0.0,-0.4253,-0.4672,-0.4502,-0.4476,-0.4323,-0.3949,-0.4118,-0.4343,-0.4513,-0.5105,0.0,0.0,0.0,0.0,0.0,0.0,0.0,0.0,0.0,-0.6245,-0.6201,-0.6066,-0.5964,-0.5898,-0.5806,-0.5762,-0.5773,-0.5789,-0.5778,0.0,0.0,0.0,0.0,0.0,0.0,-0.553,0.0,0.0,0.0,0.0,0.0,0.0,0.0,0.0,0.0,0.0,0.0,0.0,-0.7067,-0.8199,-0.9747,-1.121,-1.2005,-1.2471,-1.2674,-1.2062,-1.1208,-1.0334,-0.9649,-0.9093,-0.8727,-0.8836,-0.8996,-0.8996,-0.9001,-0.8863,-0.8536,-0.9115,-0.9706,-0.9937,-1.1441,-1.3018,-1.4369,-1.6139,-1.7402,-1.7694,-1.8006,-1.8119,-1.8008,-1.8,-1.8,-1.8,-1.7448,-1.7367,-1.8,-1.7408,-1.7408,-1.7991,-1.7408,-1.7408,-1.7991,-1.7775,-1.7586,-1.7497,-1.6783,-1.6029,-1.5178,-1.4735,-1.4184,-1.3638,-1.3536,-1.3558,-1.3638,-1.3536,-1.3492,-1.3492,-1.3492,-1.3287,-1.3023,0.0,0.0,0.0,0.0,0.0,0.0,0.0,-0.3812,-0.4075,-0.4075,-0.3866,-0.3651,-0.3429,-0.3737,-0.3958,-0.3958,-0.4226,0.0,0.0,0.0,0.0,0.0,0.0,0.0,-0.5451,-0.5935,-0.6141,-0.6029,-0.6138,-0.6126,-0.5988,-0.587,-0.5835,-0.5874,-0.5835,-0.5815,0.0,0.0,0.0,0.0,0.0,0.0,-0.5455,0.0,0.0,0.0,0.0,0.0,0.0,0.0,0.0,0.0,0.0,0.0,0.0,0.0,-0.6913,-0.7956,-0.9233,-0.9991,-1.0514,-1.0875,-1.0508,-0.9901,-0.9328,-0.8981,-0.8761,-0.8531,-0.877,-0.8996,-0.8996,-0.8984,-0.8874,-0.8598,-0.9301,-0.9826,-0.971,-1.1313,-1.3158,-1.489,-1.656,-1.7562,-1.7562,-1.7831,-1.8,-1.8,-1.8,-1.8,-1.8,-1.7497,-1.7286,-1.7489,-1.6992,-1.678,-1.7009,-1.6829,-1.6952,-1.7489,-1.7123,-1.7077,-1.7244,-1.6602,-1.5815,-1.4959,-1.4665,-1.4146,0.0,-1.3492,-1.3492,-1.3492,-1.3492,-1.3492,-1.3492,-1.3492,-1.3287,-1.3023,0.0,0.0,0.0,0.0,0.0,0.0,0.0,-0.3017,-0.3173,-0.3125,-0.2689,-0.264,-0.3308,-0.3394,-0.3403,-0.3403,0.0,0.0,0.0,0.0,0.0,0.0,0.0,0.0,-0.5109,-0.5677,-0.5857,-0.5611,-0.6207,-0.6343,-0.6052,-0.6043,-0.6034,-0.6036,-0.6025,-0.6016,-0.5966,-0.5408,-0.5373,-0.5653,-0.5015,-0.5011,0.0,0.0,0.0,0.0,0.0,0.0,0.0,0.0,0.0,0.0,0.0,0.0,0.0,0.0,0.0,0.0,0.0,-0.8331,-0.8927,-0.9315,-0.9115,-0.8767,-0.8445,-0.8404,0.0,-0.843,-0.871,-0.8973,-0.8981,-0.8794,-0.8778,-0.9211,-0.9446,-0.962,-0.9729,-1.1568,-1.3442,-1.4934,-1.6257,-1.7024,-1.6962,-1.7631,-1.8023,-1.7997,-1.7997,-1.794,-1.7874,-1.7811,-1.7374,-1.6495,-1.6519,-1.6165,-1.5394,-1.6124,-1.6519,-1.6569,-1.6149,-1.621,-1.667,-1.628,-1.5482,-1.4461,-1.4497,-1.4101,-1.3455,-1.3499,-1.3492,-1.3492,-1.3492,-1.3492,-1.3492,-1.3492,-1.3287,-1.3045,0.0,0.0,0.0,0.0,0.0,0.0,0.0,0.0,0.0,0.0,-0.2783,-0.3168,-0.3234,-0.3387,-0.3479,0.0,0.0,0.0,0.0,0.0,0.0,0.0,0.0,0.0,-0.4278,-0.526,-0.5747,-0.5675,-0.6282,-0.6569,-0.654,-0.6479,-0.643,-0.6381,-0.6331,-0.6186,-0.5998,-0.5856,-0.5751,-0.5684,-0.5468,-0.5304,0.0,0.0,0.0,0.0,-0.4683,-0.4664,0.0,0.0,0.0,0.0,0.0,0.0,0.0,0.0,-0.6332,-0.6488,-0.7007,0.0,-0.7329,-0.744,-0.7397,-0.7319,0.0,-0.743,-0.762,-0.7781,-0.8244,-0.8645,-0.8751,-0.8926,-0.9035,-0.8996,-0.9803,-1.0355,-1.0178,-1.2832,-1.4849,-1.5058,-1.6999,-1.8053,-1.7413,-1.806,-1.8408,-1.8092,-1.7926,-1.7436,-1.6503,-1.5873,-1.5216,-1.4411,-1.4545,-1.488,-1.5394,-1.488,-1.4876,-1.5403,-1.5001,-1.4757,-1.4652,-1.4309,-1.3755,-1.3112,-1.3579,-1.3397,-1.2863,-1.3309,-1.3492,-1.3492,-1.3492,-1.3492,-1.3492,-1.3492,-1.3287,-1.2987,0.0,0.0,0.0,0.0,0.0,0.0,0.0,0.0,0.0,0.0,0.0,-0.3311,-0.3332,-0.3462,0.0,0.0,0.0,0.0,0.0,0.0,0.0,0.0,0.0,-0.3852,-0.3814,-0.4964,-0.5512,-0.5429,-0.6306,-0.6698,-0.6608,-0.6573,-0.6486,-0.6363,-0.6325,-0.6207,-0.6025,-0.5821,-0.5765,-0.5802,-0.5469,0.0,0.0,0.0,0.0,0.0,-0.4652,-0.4623,0.0,-0.4603,-0.4887,-0.5203,0.0,0.0,0.0,0.0,-0.585,-0.6012,-0.6523,-0.6915,-0.7164,-0.7164,-0.7164,-0.717,-0.7209,0.0,-0.752,-0.7812,0.0,-0.8673,-0.8925,-0.9175,-0.9357,-0.9441,-1.021,-1.1004,-1.1581,-1.3596,-1.521,-1.5857,-1.7341,-1.8169,-1.7928,-1.8207,-1.8257,-1.7858,-1.7717,-1.7192,-1.6049,-1.5592,-1.4822,-1.3736,-1.3682,-1.3796,-1.3972,-1.3975,-1.4076,-1.4207,-1.3952,-1.3867,-1.3976,-1.3645,-1.3178,-1.2636,-1.3244,-1.3171,-1.2636,-1.3236,-1.3492,-1.3492,-1.3492,-1.3492,-1.3492,-1.3492,-1.3382,-1.3206,0.0,0.0,0.0,0.0,0.0,0.0,0.0,0.0,0.0,0.0,0.0,0.0,0.0,0.0,0.0,0.0,0.0,0.0,0.0,0.0,0.0,0.0,-0.3598,-0.3639,-0.3734,-0.4832,-0.5362,-0.5254,-0.6369,-0.6791,-0.6556,-0.6538,-0.6434,-0.6245,-0.623,-0.6177,-0.609,-0.5683,-0.5674,-0.5864,-0.5288,0.0,0.0,0.0,0.0,0.0,0.0,0.0,0.0,-0.4633,-0.4652,-0.4672,-0.4623,0.0,0.0,0.0,0.0,0.0,-0.622,-0.6967,-0.7534,-0.7518,-0.7606,-0.7686,-0.7615,0.0,0.0,0.0,0.0,0.0,-0.9277,-0.9491,-0.9758,-1.023,-1.0848,-1.1807,-1.3351,-1.4277,-1.5249,-1.6486,-1.7297,-1.784,-1.8075,-1.7986,-1.7792,-1.7525,-1.7408,-1.6954,-1.5983,-1.5889,-1.5204,-1.3642,-1.3373,-1.2928,-1.2192,-1.3195,-1.3443,-1.3002,-1.291,-1.3101,-1.3558,-1.3256,-1.2785,-1.2275,-1.3004,-1.2967,-1.2464,-1.3215,-1.3492,-1.3492,-1.3492,-1.3492,-1.3492,-1.3492,-1.3492,-1.3484,0.0,0.0,0.0,0.0,0.0,0.0,0.0,0.0,0.0,0.0,0.0,0.0,0.0,0.0,0.0,0.0,0.0,0.0,0.0,0.0,0.0,-0.3597,-0.3596,-0.3843,-0.4357,-0.5102,-0.5641,-0.5952,-0.6637,-0.6927,-0.6841,-0.6715,-0.6595,-0.6449,-0.6328,-0.6242,-0.6174,-0.605,-0.5837,-0.5567,-0.5408,0.0,0.0,0.0,0.0,0.0,0.0,0.0,0.0,-0.4691,-0.4652,-0.4623,-0.4672,0.0,0.0,0.0,0.0,0.0,-0.6291,-0.6863,-0.7227,-0.7121,-0.7597,-0.804,-0.775,-0.7905,0.0,0.0,0.0,0.0,0.0,-0.9847,-1.0297,-1.1154,-1.2214,-1.336,-1.4643,-1.5533,-1.5849,-1.5432,-1.6654,-1.7313,-1.6674,-1.6886,-1.7187,-1.7496,-1.7017,-1.6395,-1.5631,-1.545,-1.4705,-1.3142,-1.3105,-1.2647,-1.1615,-1.2028,-1.2089,-1.1782,-1.1744,-1.1667,-1.154,-1.1496,-1.1138,-1.0652,-1.1935,-1.2128,-1.167,-1.2976,-1.3492,-1.3492,-1.3492,-1.3492,-1.3492,-1.3492,-1.3492,-1.3455,0.0,0.0,0.0,0.0,0.0,0.0,0.0,0.0,0.0,0.0,0.0,0.0,0.0,0.0,0.0,0.0,0.0,0.0,0.0,0.0,-0.4193,-0.4453,-0.4459,-0.4446,-0.4395,-0.5298,-0.5861,-0.6041,-0.6356,-0.6608,-0.6791,-0.6616,-0.6483,-0.6392,-0.6325,-0.6287,-0.6242,-0.6068,-0.5856,-0.5653,0.0,0.0,0.0,0.0,0.0,0.0,0.0,0.0,0.0,0.0,-0.4712,-0.4652,-0.4652,0.0,0.0,0.0,0.0,0.0,-0.576,-0.6384,-0.6917,-0.7067,-0.7548,-0.8016,-0.812,-0.8059,-0.8151,0.0,0.0,0.0,-0.9905,-1.013,-1.0629,-1.1945,-1.2992,-1.3882,-1.4671,-1.5285,-1.5597,-1.5432,-1.6074,-1.6468,-1.6297,-1.6486,-1.6661,-1.6844,-1.6585,-1.6146,-1.5525,-1.5345,-1.4752,-1.3629,-1.2972,-1.2483,-1.2132,-1.1543,-1.1242,-1.1304,-1.1417,-1.1345,-1.1111,-1.1111,-1.0896,-1.0574,-1.1428,-1.16,-1.1333,-1.2331,-1.2854,-1.3032,-1.315,-1.3338,-1.3492,-1.3492,-1.3492,-1.3477,0.0,0.0,0.0,0.0,0.0,0.0,0.0,0.0,0.0,0.0,0.0,0.0,0.0,0.0,0.0,0.0,0.0,0.0,0.0,0.0,-0.4748,-0.5271,-0.535,-0.5173,-0.4729,-0.5456,-0.5881,-0.5981,-0.5902,-0.6059,-0.644,-0.6411,-0.6376,-0.6325,-0.6307,-0.6302,-0.6278,-0.5912,-0.5754,-0.5715,0.0,0.0,0.0,0.0,0.0,0.0,0.0,0.0,0.0,0.0,0.0,0.0,0.0,0.0,0.0,-0.4721,-0.4762,-0.4903,-0.5406,-0.6,-0.657,-0.7077,-0.7652,-0.8226,-0.8674,-0.8647,-0.8748,-0.9501,-0.9667,-0.9879,-1.0585,-1.0796,-1.1279,-1.2487,-1.3461,-1.4176,-1.4588,-1.4992,-1.5349,-1.5652,-1.5606,-1.5753,-1.6233,-1.6032,-1.6023,-1.6422,-1.6193,-1.5938,-1.5704,-1.5409,-1.4928,-1.4242,-1.3258,-1.2746,-1.275,-1.1512,-1.0936,-1.1021,-1.1134,-1.1098,-1.0894,-1.0991,-1.0801,-1.0512,-1.1077,-1.1205,-1.1033,-1.1717,-1.2253,-1.2583,-1.2811,-1.3097,-1.3382,-1.3382,-1.3433,-1.3492,0.0,0.0,0.0,0.0,0.0,0.0,0.0,0.0,0.0,0.0,0.0,0.0,0.0,0.0,0.0,0.0,0.0,0.0,0.0,0.0,-0.4891,-0.5545,-0.5801,-0.5957,-0.5979,-0.5561,-0.5535,-0.5907,-0.5415,-0.5346,-0.5692,-0.6168,-0.6393,-0.6384,-0.6325,-0.6307,-0.6262,-0.5621,-0.5447,-0.5562,-0.4907,0.0,0.0,0.0,0.0,0.0,0.0,0.0,0.0,0.0,0.0,0.0,0.0,0.0,-0.4711,-0.4773,-0.4793,-0.4967,-0.5738,-0.5993,-0.6233,-0.7004,-0.8113,-0.9115,-0.9519,-1.0183,-1.0796,-1.1246,-1.1338,-1.1467,-1.1889,-1.2266,-1.256,-1.267,-1.3681,-1.4607,-1.5001,-1.5395,-1.5661,-1.5689,-1.5368,-1.545,-1.6206,-1.5304,-1.5258,-1.6752,-1.5826,-1.5501,-1.6212,-1.5704,-1.5131,-1.4598,-1.4287,-1.3739,-1.2883,-1.1916,-1.1207,-1.0749,-1.0485,-1.037,-1.0358,-1.0605,-1.0266,-0.9558,-1.0644,-1.0886,-1.0616,-1.1458,-1.2093,-1.2524,-1.2529,-1.276,-1.3045,-1.3045,-1.3236,-1.3492,0.0,0.0,0.0,0.0,0.0,0.0,0.0,0.0,0.0,0.0,0.0,0.0,0.0,0.0,0.0,0.0,0.0,0.0,0.0,-0.5179,-0.5407,-0.5947,-0.6429,-0.6525,-0.6176,-0.5753,-0.5453,-0.5279,-0.5416,-0.5536,-0.5679,-0.6207,-0.6443,-0.6405,-0.6376,-0.6263,-0.6097,-0.5709,-0.5518,-0.5435,-0.497,-0.482,0.0,0.0,0.0,0.0,0.0,0.0,0.0,0.0,-0.4514,-0.4605,-0.4564,-0.4643,-0.4708,-0.4446,-0.4745,-0.5193,-0.5238,-0.5978,-0.6899,-0.7534,-0.8252,0.0,0.0,-0.9984,-1.0687,-1.1058,-1.1522,-1.1926,-1.2073,-1.222,-1.2487,-1.3001,-1.3451,-1.3892,-1.4286,-1.4469,-1.4478,-1.4231,-1.4066,-1.4093,-1.4405,-1.4029,-1.4212,-1.5331,-1.4992,-1.5084,-1.5881,-1.5586,-1.5284,-1.4988,-1.4279,-1.3733,-1.3293,-1.2054,-1.1151,-1.0584,-1.0218,-1.0142,-1.0298,-1.04,-1.0264,-0.9982,-1.0184,-1.0195,-1.0067,-1.0334,-1.085,-1.1567,-1.2248,-1.2682,-1.3009,-1.3009,-1.3214,-1.3492,0.0,0.0,0.0,0.0,0.0,0.0,0.0,0.0,0.0,0.0,0.0,0.0,0.0,0.0,0.0,0.0,0.0,0.0,-0.5516,-0.5768,-0.6112,-0.6616,-0.6937,-0.6749,-0.6004,-0.5753,-0.5495,-0.5208,-0.5397,-0.5533,-0.565,-0.6249,-0.65,-0.6425,-0.6349,-0.6203,-0.5998,-0.5592,-0.5404,-0.5359,-0.4896,-0.479,0.0,0.0,0.0,0.0,0.0,0.0,0.0,0.0,-0.4291,-0.4394,-0.4352,-0.4504,-0.464,-0.4317,-0.4695,-0.5211,-0.5184,-0.6082,-0.7156,-0.7784,0.0,0.0,-0.9401,-1.0049,-1.0767,-1.1343,-1.2033,-1.2455,-1.2147,-1.2227,-1.2446,-1.2698,-1.3149,-1.3534,-1.37,-1.3828,-1.3837,-1.3699,-1.3451,-1.3442,-1.3827,-1.3635,-1.3873,-1.4808,-1.4653,-1.4799,-1.5469,-1.5269,-1.5101,-1.5058,-1.4364,-1.3901,-1.3737,-1.2475,-1.1476,-1.0818,-1.0232,-0.9935,-0.9919,-1.0009,-1.0012,-0.9978,-0.9678,-0.9712,-0.9938,-0.9642,-1.0037,-1.0948,-1.1848,-1.2416,-1.2667,-1.2667,-1.2906,-1.3184,0.0,0.0,0.0,0.0,0.0,0.0,0.0,0.0,0.0,0.0,0.0,0.0,0.0,0.0,0.0,0.0,0.0,0.0,-0.5708,-0.6322,-0.6967,-0.7561,-0.7274,-0.6596,-0.553,-0.5501,-0.5619,-0.5868,-0.5274,-0.5161,-0.5508,-0.6253,-0.6561,-0.6484,-0.6218,-0.6095,-0.6034,-0.5174,-0.5032,-0.5339,-0.4598,-0.4548,-0.4873,0.0,0.0,0.0,0.0,0.0,0.0,0.0,-0.4197,-0.4197,-0.4197,-0.4342,-0.4505,-0.4496,-0.4653,-0.4994,-0.5793,-0.6306,-0.6807,-0.7609,0.0,0.0,-1.022,-1.0677,-1.1338,-1.2466,-1.3135,-1.3208,-1.2282,-1.2533,-1.2584,-1.1651,-1.2854,-1.3755,-1.3341,-1.3616,-1.402,-1.4442,-1.3772,-1.3754,-1.4955,-1.4341,-1.4368,-1.5579,-1.4937,-1.4671,-1.5074,-1.4717,-1.4581,-1.4768,-1.4649,-1.4501,-1.4273,-1.3238,-1.2305,-1.1502,-1.0557,-0.9754,-0.9107,-0.939,-0.9414,-0.9306,-0.9081,-0.9498,-1.0238,-0.9594,-0.9913,-1.0839,-1.1404,-1.1758,-1.2003,-1.2003,-1.2207,-1.2485,0.0,0.0,0.0,0.0,0.0,0.0,0.0,0.0,0.0,0.0,0.0,0.0,0.0,0.0,0.0,0.0,0.0,0.0,-0.5989,-0.6243,-0.6436,-0.6615,-0.6929,-0.6755,-0.601,-0.5346,-0.433,-0.2939,-0.3519,-0.4362,-0.5447,-0.6091,-0.6374,-0.6348,-0.6132,-0.5906,-0.5661,-0.5402,-0.5245,-0.5166,-0.4896,-0.4867,-0.4922,0.0,0.0,0.0,0.0,0.0,0.0,0.0,0.0,0.0,-0.3924,-0.4388,-0.4868,-0.4582,-0.5447,-0.6497,-0.6553,-0.7442,-0.8377,-0.8483,-0.9234,-0.9969,-1.0081,-1.086,-1.1799,-1.2591,-1.3082,-1.3184,-1.2641,-1.2641,-1.2667,-1.2386,-1.2505,-1.2689,-1.2854,-1.2744,-1.2689,-1.2808,-1.2606,-1.2606,-1.2964,-1.2781,-1.3029,-1.3928,-1.3791,-1.3956,-1.4653,-1.4295,-1.4034,-1.3949,-1.3553,-1.3409,-1.3522,-1.2833,-1.2294,-1.193,-1.1607,-1.0718,-0.9396,-0.948,-0.9484,-0.9414,-0.9119,-0.9376,-0.9958,-1.0231,-1.0516,-1.0839,-1.1404,-1.1758,-1.2003,-1.2003,-1.2207,-1.2485,0.0,0.0,0.0,0.0,0.0,0.0,0.0,0.0,0.0,0.0,0.0,0.0,0.0,0.0,0.0,0.0,0.0,0.0,0.0,-0.6422,-0.6564,-0.6564,-0.6854,-0.6809,-0.6372,-0.5416,-0.4236,-0.2857,-0.3229,-0.4208,-0.5726,-0.5983,-0.6123,-0.6159,-0.5782,-0.5581,-0.5519,-0.523,-0.5102,-0.5088,-0.5029,-0.5,-0.4941,0.0,0.0,0.0,0.0,0.0,0.0,0.0,0.0,0.0,-0.3555,-0.4013,-0.4568,-0.4453,-0.5459,-0.667,-0.6962,-0.7934,-0.8893,-0.9005,-0.9611,-1.0177,-1.0257,-1.1214,-1.2242,-1.28,-1.3085,-1.3161,-1.2891,-1.2844,-1.2798,-1.2589,-1.261,-1.2667,-1.2706,-1.2487,-1.234,-1.234,-1.2202,-1.2165,-1.2321,-1.234,-1.2606,-1.325,-1.3296,-1.3506,-1.4002,-1.3791,-1.3616,-1.3495,-1.3093,-1.2927,-1.3024,-1.2677,-1.2344,-1.2062,-1.2011,-1.1413,-1.0281,-0.992,-0.9655,-0.9516,-0.96,-0.9632,-0.9664,-1.0713,-1.0996,-1.0839,-1.1404,-1.1709,-1.1845,-1.1845,-1.197,-1.2138,0.0,0.0,0.0,0.0,0.0,0.0,0.0,0.0,0.0,0.0,0.0,0.0,0.0,0.0,0.0,0.0,0.0,0.0,0.0,0.0,-0.705,-0.705,-0.6911,-0.6748,-0.6556,-0.5652,-0.504,-0.4723,-0.4103,-0.4587,-0.6068,-0.5884,-0.585,-0.595,-0.532,-0.5245,-0.5535,-0.4869,-0.4785,-0.5098,-0.5,-0.497,-0.4921,-0.438,0.0,0.0,0.0,0.0,0.0,0.0,0.0,0.0,-0.322,-0.349,-0.3953,-0.4266,-0.5039,-0.6053,-0.7168,-0.795,-0.8617,-0.9252,-0.9931,-1.0501,-1.0776,-1.1733,-1.2615,-1.2884,-1.3064,-1.3124,-1.3074,-1.3058,-1.2937,-1.2445,-1.2935,-1.3227,-1.277,-1.2687,-1.2634,-1.2634,-1.2321,-1.2239,-1.2597,-1.2634,-1.2808,-1.3231,-1.3241,-1.325,-1.3296,-1.3259,-1.3241,-1.3241,-1.3023,-1.2851,-1.275,-1.2613,-1.2358,-1.203,-1.203,-1.1855,-1.1445,-1.0557,-0.9916,-0.958,-1.0276,-1.0174,-0.9562,-1.0989,-1.131,-1.0926,-1.1404,-1.1591,-1.1591,-1.1591,-1.1591,-1.1591,0.0,0.0,0.0,0.0,0.0,0.0,0.0,0.0,0.0,0.0,0.0,0.0,0.0,0.0,0.0,0.0,0.0,0.0,0.0,0.0,-0.663,-0.663,-0.6453,-0.6278,-0.6135,-0.5922,-0.5771,-0.5701,-0.5448,-0.5248,-0.5113,-0.5528,-0.5741,-0.576,-0.5498,-0.5408,-0.5426,-0.522,-0.5144,-0.5156,-0.4873,-0.4764,-0.4705,-0.4171,-0.3934,0.0,0.0,0.0,0.0,0.0,0.0,0.0,-0.3433,-0.3991,-0.4684,-0.4746,-0.5668,-0.6865,-0.7834,-0.8137,-0.8397,-0.9251,-1.0098,-1.0914,-1.1698,-1.2361,-1.2609,-1.1922,-1.2738,-1.3363,-1.2761,-1.2792,-1.2945,-1.2921,-1.2637,-1.2517,-1.2816,-1.2499,-1.2229,-1.2229,-1.2156,-1.2128,-1.222,-1.2229,-1.2395,-1.2799,-1.2827,-1.2974,-1.3277,-1.301,-1.2827,-1.2827,-1.2395,-1.2206,-1.2334,-1.2201,-1.2204,-1.2313,-1.2313,-1.2008,-1.1393,-1.072,-1.0179,-0.9772,-1.0339,-1.0555,-1.0548,-1.1279,-1.1529,-1.1435,-1.156,-1.1591,-1.1591,-1.1591,-1.1591,-1.1591,0.0,0.0,0.0,0.0,0.0,0.0,0.0,0.0,0.0,0.0,0.0,0.0,0.0,0.0,0.0,0.0,0.0,0.0,0.0,0.0,-0.6557,-0.6458,-0.6286,-0.6138,-0.5998,-0.5907,-0.5852,-0.5852,-0.5714,-0.551,-0.5237,-0.5486,-0.5603,-0.5583,-0.5298,-0.5258,-0.5378,-0.5088,-0.5054,-0.5176,-0.4834,-0.4696,-0.4636,-0.4099,-0.3872,-0.382,-0.3584,0.0,0.0,0.0,0.0,0.0,0.0,0.0,-0.4295,-0.4612,-0.5435,-0.6529,-0.7919,-0.8353,-0.8576,-0.9317,-1.0166,-1.0924,-1.1219,-1.1953,-1.2418,-1.1879,-1.2556,-1.3103,-1.2763,-1.275,-1.2827,-1.2903,-1.2563,-1.2373,-1.2588,-1.2304,-1.2101,-1.2101,-1.2101,-1.2101,-1.2101,-1.2101,-1.2183,-1.2395,-1.2404,-1.2505,-1.27,-1.2533,-1.2404,-1.2404,-1.2127,-1.2027,-1.2056,-1.1928,-1.1965,-1.2214,-1.2124,-1.1853,-1.1382,-1.0935,-1.0551,-1.0248,-1.0801,-1.1021,-1.1083,-1.1435,-1.1591,-1.1591,-1.1591,-1.1591,-1.1591,-1.1591,-1.1591,-1.1591,0.0,0.0,0.0,0.0,0.0,0.0,0.0,0.0,0.0,0.0,0.0,0.0,0.0,0.0,0.0,0.0,0.0,0.0,0.0,0.0,0.0,-0.6357,-0.6227,-0.6084,-0.5925,-0.5769,-0.5677,-0.5658,-0.5548,-0.5558,-0.5669,-0.5548,-0.5502,-0.5481,-0.5095,-0.5111,-0.5387,-0.4917,-0.4896,-0.5137,-0.4804,-0.4626,-0.4527,-0.4048,-0.3848,-0.3796,-0.3573,-0.3495,-0.3495,-0.3495,0.0,0.0,0.0,0.0,-0.3698,-0.4254,-0.4808,-0.5619,-0.7375,-0.8255,-0.8811,-0.9373,-1.0205,-1.082,-1.0469,-1.1289,-1.2116,-1.2194,-1.2483,-1.2783,-1.2881,-1.2774,-1.271,-1.2725,-1.2578,-1.2421,-1.2357,-1.22,-1.2101,-1.2101,-1.2101,-1.2101,-1.2101,-1.2101,-1.2101,-1.2101,-1.2101,-1.2101,-1.2101,-1.2101,-1.2101,-1.2101,-1.2101,-1.2051,-1.1902,-1.1778,-1.1761,-1.1896,-1.1773,-1.1599,-1.1395,-1.1203,-1.0983,-1.0752,-1.1138,-1.1292,-1.1269,-1.1392,-1.1459,-1.1503,-1.1503,-1.1547,-1.1591,-1.1591,-1.1591,-1.1591,0.0,0.0,0.0,0.0,0.0,0.0,0.0,0.0,0.0,0.0,0.0,0.0,0.0,0.0,0.0,0.0,0.0,0.0,-0.6735,0.0,0.0,-0.615,-0.6011,-0.5845,-0.5659,-0.5622,-0.5586,-0.553,-0.5511,-0.5511,-0.553,-0.5511,-0.5502,-0.5502,-0.5439,-0.543,-0.5473,-0.5288,-0.5136,-0.5,-0.4665,-0.4356,-0.4063,-0.3828,-0.3657,-0.3548,-0.3517,-0.3495,-0.3495,-0.3495,-0.3495,0.0,0.0,0.0,-0.3956,-0.4044,-0.4137,-0.4467,-0.5715,-0.731,-0.8769,-0.9433,-1.0264,-1.0889,-1.084,-1.1271,-1.178,-1.2125,-1.2554,-1.2881,-1.2905,-1.2774,-1.2735,-1.2856,-1.2578,-1.2357,-1.2455,-1.2249,-1.2101,-1.2101,-1.2101,-1.2101,-1.2101,-1.2101,-1.2101,-1.2101,-1.2101,-1.2101,-1.2101,-1.2101,-1.2101,-1.2101,-1.2101,-1.2051,-1.1902,-1.1778,-1.1654,-1.1581,-1.1429,-1.1345,-1.1328,-1.1577,-1.1391,-1.0861,-1.0689,-1.0798,-1.1022,-1.0813,-1.0909,-1.1173,-1.1173,-1.1342,-1.1591,-1.1591,-1.1591,-1.1591,0.0,0.0,0.0,0.0,0.0,0.0,0.0,0.0,0.0,0.0,0.0,0.0,0.0,0.0,0.0,-0.6223,-0.6346,-0.6502,-0.6786,-0.6538,-0.6296,-0.6104,-0.5966,-0.5799,-0.5603,-0.5594,-0.5567,-0.5502,-0.5502,-0.5502,-0.5502,-0.5502,-0.5502,-0.5502,-0.5502,-0.5473,-0.5436,-0.5339,-0.5166,-0.4922,-0.4625,-0.4239,-0.3824,-0.3732,-0.3546,-0.3343,-0.3457,-0.3495,-0.3495,-0.3495,-0.3495,-0.3495,-0.3495,0.0,0.0,0.0,-0.3992,-0.4301,-0.5706,-0.7021,-0.8222,-0.9245,-0.9714,-0.9991,-1.014,-1.0714,-1.1318,-1.1768,-1.2207,-1.2588,-1.2856,-1.2856,-1.2832,-1.2881,-1.2686,-1.2529,-1.2603,-1.2382,-1.22,-1.22,-1.215,-1.2101,-1.2101,-1.2101,-1.2101,-1.2101,-1.2101,-1.2101,-1.2101,-1.2101,-1.2101,-1.2101,-1.2101,-1.2076,-1.2002,-1.1803,-1.1594,-1.1402,-1.1326,-1.1301,-1.1301,-1.1447,-1.1493,-1.1382,-1.1148,-1.1148,-1.1249,-1.0787,-1.0704,-1.085,-1.1034,-1.1195,-1.1342,-1.1525,-1.1591,-1.1591,0.0,0.0,0.0,0.0,0.0,0.0,0.0,0.0,0.0,0.0,0.0,0.0,0.0,0.0,0.0,0.0,-0.6899,-0.6874,-0.6732,-0.6455,-0.6254,-0.6152,-0.6002,-0.5845,-0.5678,-0.5641,-0.5595,-0.553,-0.5511,-0.5502,-0.5502,-0.5607,-0.5597,-0.5502,-0.5502,-0.5464,-0.5417,-0.534,-0.5127,-0.4834,-0.4626,-0.4167,-0.358,-0.3452,-0.3301,-0.3192,-0.3343,-0.3446,-0.3495,-0.3495,-0.3495,-0.3495,-0.3495,-0.3495,0.0,0.0,0.0,-0.42,-0.5619,-0.6474,-0.7301,-0.8702,-0.9069,-0.9207,-0.9674,-1.0289,-1.0869,-1.133,-1.166,-1.2008,-1.2484,-1.2661,-1.27,-1.2592,-1.2541,-1.2522,-1.2488,-1.2365,-1.2283,-1.2249,-1.215,-1.2101,-1.2101,-1.2101,-1.2101,-1.2101,-1.2101,-1.2101,-1.2101,-1.2101,-1.2101,-1.2101,-1.2101,-1.2101,-1.2101,-1.1828,-1.1578,-1.1301,-1.1301,-1.1301,-1.1301,-1.1301,-1.143,-1.166,-1.144,-1.1307,-1.1197,-1.068,-1.0453,-1.0485,-1.0762,-1.0909,-1.1012,-1.1254,-1.1401,-1.1467,0.0,0.0,0.0,0.0,0.0,0.0,0.0,0.0,0.0,0.0,0.0,0.0,-0.5903,-0.5997,-0.6186,-0.6676,-0.6706,-0.6659,-0.6533,-0.6388,-0.629,-0.629,-0.6102,0.0,-0.5893,-0.5762,-0.5669,-0.5605,-0.5529,-0.5502,-0.5512,-0.5889,-0.5868,-0.5502,-0.5502,-0.5502,-0.5483,-0.5349,-0.5069,-0.4706,-0.4696,-0.4138,-0.3266,-0.2755,-0.279,-0.3103,-0.3116,-0.3283,-0.3495,-0.3495,-0.3495,-0.3495,-0.3495,-0.3495,-0.3495,0.0,0.0,0.0,-0.4648,-0.5188,-0.5913,-0.7639,-0.84,-0.9004,-1.004,-1.0303,-1.0459,-1.0859,-1.0936,-1.1113,-1.1587,-1.1973,-1.2106,-1.1743,-1.1869,-1.2,-1.1851,-1.2104,-1.2249,-1.2126,-1.2101,-1.2101,-1.2101,-1.2101,-1.2101,-1.2101,-1.2101,-1.2101,-1.2101,-1.2101,-1.2101,-1.2101,-1.2101,-1.2101,-1.2101,-1.1828,-1.1578,-1.1301,-1.1301,-1.1301,-1.1301,-1.1301,-1.131,-1.1302,-1.1048,-1.0801,-1.0518,-1.0182,-1.0075,-1.0126,-1.0148,-1.0338,-1.0616,-1.066,-1.0865,-1.1129,0.0,0.0,0.0,0.0,0.0,0.0,0.0,0.0,0.0,0.0,0.0,0.0,0.0,-0.616,-0.6481,-0.6569,-0.6499,-0.6434,-0.6439,-0.6227,-0.6048,-0.592,-0.5973,-0.5854,-0.5529,-0.5558,-0.5482,-0.5281,-0.5204,-0.5283,-0.5496,-0.5512,-0.5403,-0.5195,-0.5674,-0.5714,-0.5427,-0.534,-0.5162,-0.4943,-0.4763,-0.4035,-0.2972,-0.2353,-0.2181,-0.2309,-0.2655,-0.3093,-0.3532,-0.3748,-0.3826,-0.3826,-0.3826,-0.367,-0.3495,-0.3495,-0.351,-0.3604,-0.3937,-0.432,-0.4864,-0.5827,-0.6625,-0.7384,-0.8239,-0.8977,-0.958,-0.9981,-1.0507,-1.0879,-1.0782,-1.134,-1.177,-1.1636,-1.1667,-1.1782,-1.1901,-1.1955,-1.2048,-1.2221,-1.215,-1.2101,-1.2101,-1.2101,-1.2101,-1.2101,-1.2101,-1.2101,-1.2101,-1.2101,-1.2101,-1.2101,-1.2101,-1.2051,-1.1977,-1.1794,-1.1603,-1.1427,-1.1352,-1.1301,-1.1301,-1.1301,-1.1301,-1.1293,-1.12,-1.0896,-1.0496,-1.036,-1.0112,-0.9811,-1.022,-1.0315,-1.0302,-1.0514,-1.0689,-1.0792,0.0,0.0,0.0,0.0,0.0,0.0,0.0,0.0,0.0,-0.5933,0.0,0.0,0.0,0.0,-0.6883,-0.693,-0.6811,-0.6682,-0.6546,-0.6366,-0.6098,-0.5725,-0.5824,-0.5723,-0.5339,-0.5377,-0.5371,-0.5301,-0.5106,-0.5244,-0.5694,-0.5595,-0.5446,-0.5299,-0.5867,-0.5844,-0.5359,-0.5224,-0.5166,-0.5153,-0.5022,-0.4185,-0.2962,-0.237,-0.2243,-0.2445,-0.278,-0.329,-0.381,-0.3821,-0.392,-0.4007,-0.3873,-0.3676,-0.3495,-0.3495,-0.351,0.0,-0.3556,0.0,-0.4092,-0.4304,-0.5245,-0.6253,-0.6837,-0.7925,-0.8994,-0.9689,-1.0166,-1.042,-1.0322,-1.0762,-1.1154,-1.1154,-1.1271,-1.1402,-1.1538,-1.1588,-1.1719,-1.2022,-1.1972,-1.1954,-1.2092,-1.2101,-1.2101,-1.2101,-1.2101,-1.2101,-1.2101,-1.2101,-1.2101,-1.2101,-1.2101,-1.2051,-1.1902,-1.1778,-1.1619,-1.1502,-1.1352,-1.1301,-1.1301,-1.1301,-1.1301,-1.1301,-1.1301,-1.0998,-1.0496,-1.0496,-1.0205,-0.9773,-1.0075,-1.0131,-1.008,-1.0212,-1.0331,-1.0426,0.0,0.0,0.0,0.0,0.0,0.0,0.0,0.0,-0.589,-0.6425,0.0,0.0,0.0,0.0,0.0,-0.7765,-0.7667,-0.7381,-0.6846,-0.6811,-0.6482,-0.5751,-0.572,-0.5626,-0.5417,-0.5272,-0.5372,-0.5695,-0.5239,-0.5382,-0.6104,-0.616,-0.6041,-0.579,-0.6048,-0.5851,-0.5272,-0.501,-0.5044,-0.5305,-0.5438,-0.4611,-0.3262,-0.2802,-0.3024,-0.3576,-0.3519,-0.3891,-0.4315,-0.3725,-0.3785,-0.4036,-0.3632,-0.3495,-0.3495,-0.3495,0.0,0.0,0.0,0.0,0.0,-0.3219,-0.4396,-0.5724,-0.6012,-0.7248,-0.8688,-0.9932,-0.9854,-0.9708,-1.0166,-1.0263,-1.0283,-1.0303,-1.0625,-1.0837,-1.0713,-1.0992,-1.1277,-1.1538,-1.1532,-1.1651,-1.2046,-1.2082,-1.2092,-1.2101,-1.2101,-1.2101,-1.2101,-1.2101,-1.2101,-1.2101,-1.2101,-1.2051,-1.1902,-1.1778,-1.1619,-1.1502,-1.1377,-1.1301,-1.1301,-1.1301,-1.1301,-1.1301,-1.1301,-1.0998,-1.0522,-1.0522,-1.0308,-0.9973,-0.9725,-0.9777,-0.9947,-0.9699,-0.9811,-1.0082,0.0,0.0,0.0,0.0,0.0,0.0,-0.5146,-0.5598,-0.5972,0.0,0.0,0.0,-0.6861,-0.7257,-0.7537,-0.7644,-0.7622,-0.744,-0.7046,-0.7024,-0.6755,-0.6156,-0.6227,-0.6125,-0.5766,-0.5543,-0.5512,-0.5693,-0.5276,-0.5442,-0.6171,-0.6048,-0.5742,-0.5303,-0.5479,-0.5374,-0.5068,-0.4853,-0.491,-0.515,-0.5088,-0.4478,-0.3569,-0.3441,-0.3328,-0.3262,-0.3431,-0.3891,-0.4375,-0.4202,-0.4222,-0.4216,-0.3672,-0.3495,0.0,-0.3495,0.0,0.0,-0.3506,0.0,0.0,0.0,0.0,0.0,-0.5373,-0.6148,-0.6904,-0.751,-0.8211,-0.8776,-0.8903,-0.9404,-0.9893,-1.0244,-1.04,-1.0506,-1.0601,-1.0702,-1.0853,-1.1066,-1.1076,-1.1219,-1.1632,-1.1678,-1.1798,-1.2082,-1.2101,-1.2101,-1.2101,-1.2101,-1.2101,-1.2101,-1.2101,-1.2076,-1.2051,-1.1828,-1.1678,-1.1653,-1.1418,-1.1301,-1.1301,-1.1301,-1.1301,-1.1301,-1.1301,-1.1099,-1.0794,-1.0998,-1.0659,-1.0025,-1.0205,-1.0043,-0.9692,-0.964,-0.9672,-0.9746,0.0,0.0,0.0,0.0,0.0,-0.4818,-0.5134,-0.54,-0.5681,0.0,0.0,0.0,-0.7192,-0.7757,-0.8099,-0.8099,-0.805,-0.7898,-0.7625,-0.7348,-0.6972,-0.6489,-0.6382,-0.6175,-0.5826,-0.5673,-0.5684,-0.5904,-0.5509,-0.5702,-0.6444,-0.6153,-0.5895,-0.5638,-0.558,-0.5456,-0.5276,-0.4924,-0.5004,-0.5287,-0.4566,-0.413,-0.3927,-0.4063,-0.3924,-0.3697,-0.41,-0.4477,-0.4729,-0.4489,-0.4402,-0.4262,-0.3489,-0.3459,-0.3687,-0.3539,-0.3495,0.0,0.0,0.0,0.0,-0.3471,0.0,0.0,-0.4266,-0.5117,-0.5904,-0.5962,-0.6543,-0.7353,-0.8453,-0.8945,-0.9416,-1.0108,-0.9905,-0.9848,-1.0326,-1.0371,-1.042,-1.0662,-1.0674,-1.0818,-1.121,-1.1246,-1.1421,-1.1825,-1.1853,-1.1926,-1.2092,-1.2101,-1.2101,-1.2101,-1.2101,-1.2101,-1.2101,-1.1902,-1.1753,-1.1703,-1.1477,-1.1343,-1.1301,-1.1301,-1.1301,-1.1301,-1.1301,-1.1217,-1.1074,-1.1251,-1.0939,-1.036,-1.0308,-1.0146,-0.9932,-0.9692,-0.9588,-0.9588,0.0,0.0,-0.3498,-0.3917,-0.4034,-0.4289,-0.4939,-0.5082,-0.5315,0.0,-0.6381,-0.6957,-0.7722,-0.8338,-0.8706,-0.8706,-0.8592,-0.8432,-0.8226,-0.7661,-0.7136,-0.675,-0.6379,-0.6073,-0.5844,-0.5749,-0.5887,-0.6273,-0.5825,-0.6016,-0.6788,-0.6436,-0.6285,-0.6299,0.0,0.0,-0.5558,-0.504,-0.5138,-0.5513,-0.4121,-0.3828,-0.428,-0.4576,-0.459,-0.4522,-0.5059,-0.5266,-0.5206,-0.4603,-0.4402,-0.4236,-0.331,-0.347,-0.3945,-0.3643,-0.3532,0.0,0.0,0.0,0.0,-0.3218,-0.3573,0.0,-0.32,-0.4292,-0.5356,-0.5075,-0.5078,-0.5863,-0.8223,-0.8535,-0.8746,-0.9675,-0.9216,-0.9046,-0.9935,-1.001,-1.0053,-1.0287,-1.0259,-1.0383,-1.08,-1.0837,-1.0989,-1.1412,-1.1462,-1.1669,-1.2018,-1.2082,-1.2101,-1.2101,-1.2101,-1.2101,-1.2101,-1.1952,-1.1828,-1.1703,-1.1553,-1.1427,-1.1301,-1.1301,-1.1301,-1.1301,-1.1301,-1.1301,-1.1301,-1.1301,-1.115,-1.0845,-1.0308,-1.0231,-1.0385,-0.9855,-0.9614,-0.9588,0.0,-0.3526,-0.3942,-0.445,-0.4858,-0.5159,-0.5307,-0.5551,-0.5745,-0.5826,-0.6559,-0.7113,-0.7167,-0.7714,-0.8074,-0.8074,-0.8056,-0.7929,-0.7674,-0.753,-0.7296,-0.6958,-0.6809,-0.6716,-0.6673,-0.6023,-0.6028,-0.6685,-0.6014,-0.6063,-0.6796,-0.6719,-0.6359,-0.5754,-0.5689,-0.5371,-0.4869,-0.4489,-0.468,-0.5177,-0.4713,-0.4525,-0.4529,-0.4587,-0.4658,-0.4741,-0.4854,-0.5077,-0.5206,-0.4603,-0.4402,-0.4329,-0.3913,-0.3884,-0.3985,-0.3925,-0.3714,-0.3495,-0.3495,-0.3495,-0.3514,-0.3571,-0.3671,0.0,-0.3984,-0.4257,-0.4468,-0.4462,-0.4975,-0.5632,-0.6306,-0.6956,-0.754,-0.8008,-0.8223,-0.8684,-0.9713,-0.9842,-0.9831,-0.9844,-0.9813,-0.9969,-1.0385,-1.0422,-1.0576,-1.1002,-1.132,-1.1517,-1.1599,-1.1926,-1.2101,-1.2101,-1.2101,-1.2101,-1.2101,-1.1852,-1.1728,-1.1703,-1.1444,-1.1326,-1.1301,-1.1301,-1.1301,-1.1301,-1.1301,-1.1301,-1.1301,-1.1301,-1.115,-1.0896,-1.0769,-1.0462,-1.0076,-0.9973,-0.9777,-0.9588,-0.3233,-0.3616,-0.4034,-0.4647,-0.4915,-0.5088,-0.5185,-0.5488,-0.573,-0.5796,-0.6528,-0.7102,-0.7242,-0.7573,-0.7801,-0.7801,-0.7739,-0.7705,-0.7705,-0.7392,-0.719,-0.7157,-0.6801,-0.6597,-0.6597,-0.6205,-0.6176,-0.6544,-0.6339,-0.6436,-0.6796,-0.6796,-0.6584,-0.6185,-0.5814,-0.5408,-0.4983,-0.4792,-0.4994,-0.5367,-0.4457,-0.4022,-0.3898,-0.3905,-0.3922,-0.3997,-0.4292,-0.468,-0.4943,-0.4202,-0.4355,-0.4764,-0.4221,-0.4121,-0.4174,-0.4039,-0.3761,-0.3495,-0.3495,-0.3495,-0.3527,-0.3619,-0.3671,0.0,0.0,-0.403,-0.424,-0.4913,-0.5177,-0.5335,-0.5438,-0.5809,-0.6341,-0.7036,-0.7291,-0.7664,-0.8454,-0.8929,-0.9245,-0.9382,-0.9409,-0.9566,-0.996,-0.9997,-1.0162,-1.0579,-1.0971,-1.1292,-1.1504,-1.1697,-1.1899,-1.2092,-1.2101,-1.2101,-1.2101,-1.1902,-1.1778,-1.1703,-1.1502,-1.1352,-1.1301,-1.1301,-1.1301,-1.1301,-1.1301,-1.1301,-1.1301,-1.1301,-1.1226,-1.1099,-1.0947,-1.0641,-1.0231,-1.0051,-0.9836,-0.9588,-0.3395,-0.3641,-0.3941,-0.4554,-0.4643,-0.4698,-0.4923,-0.5294,-0.5655,-0.5955,-0.6508,-0.7032,-0.7422,-0.7464,-0.7495,-0.7571,-0.74,-0.7383,-0.7613,-0.716,-0.6966,-0.7201,-0.6619,-0.6253,-0.6122,-0.6106,-0.6137,-0.6207,-0.6468,-0.6636,-0.6705,-0.6766,-0.6762,-0.6659,-0.6034,-0.559,-0.5312,-0.5289,-0.5426,-0.5553,-0.4248,-0.3707,-0.3669,-0.3539,-0.3359,-0.3243,-0.3603,-0.4083,-0.4455,-0.3808,-0.4362,-0.5186,-0.4536,-0.4442,-0.4502,-0.418,-0.3841,-0.3579,-0.3519,-0.3495,-0.351,-0.3581,-0.365,-0.3699,0.0,0.0,0.0,-0.5312,-0.526,-0.5039,-0.5088,-0.5088,-0.5328,-0.6112,-0.6319,-0.6481,-0.6785,-0.7565,-0.8261,-0.8673,-0.8737,-0.8931,-0.9418,-0.9537,-0.9749,-1.0144,-1.0496,-1.0833,-1.1255,-1.1347,-1.1577,-1.1972,-1.1991,-1.2027,-1.2101,-1.1952,-1.1803,-1.1703,-1.1553,-1.1402,-1.1301,-1.1301,-1.1301,-1.1301,-1.1301,-1.1301,-1.1301,-1.1301,-1.1301,-1.1267,-1.0998,-1.0744,-1.047,-1.0128,-0.9836,-0.9588,-0.3487,-0.3551,-0.3664,-0.4105,-0.4273,-0.4451,-0.4782,-0.5305,-0.5922,-0.6591,-0.6765,-0.6941,-0.729,-0.6914,-0.6784,-0.7137,-0.6772,-0.6565,-0.6649,-0.6757,-0.6826,-0.6857,-0.6499,-0.6052,-0.5515,-0.5444,-0.5561,-0.5858,-0.5889,-0.606,-0.6361,-0.6659,-0.6616,-0.625,-0.6053,-0.5744,-0.5389,-0.55,-0.5407,-0.5161,-0.4976,-0.5118,-0.5358,-0.4753,-0.412,-0.3472,-0.295,-0.314,-0.3686,-0.3875,-0.4553,-0.528,-0.5193,-0.5179,-0.5085,-0.4516,-0.4161,-0.3873,-0.3579,-0.3495,-0.351,-0.3581,-0.365,-0.3699,-0.3699,0.0,-0.4164,-0.4491,0.0,-0.4821,-0.5058,0.0,0.0,-0.4613,-0.5163,-0.5491,-0.5133,-0.578,-0.6566,-0.733,-0.7421,-0.7739,-0.8562,-0.8958,-0.9336,-0.9739,-0.9813,-1.0015,-1.041,-1.0759,-1.1145,-1.1568,-1.1577,-1.1752,-1.2101,-1.1852,-1.1728,-1.1703,-1.1452,-1.1318,-1.1301,-1.1301,-1.1301,-1.1301,-1.1301,-1.1301,-1.1301,-1.1301,-1.1301,-1.1267,-1.0998,-1.0744,-1.047,-1.0128,-0.9836,-0.9588,-0.3388,-0.3629,0.0,-0.4215,-0.4384,-0.4592,-0.492,-0.5544,-0.6184,-0.6728,-0.6796,-0.6933,-0.7261,-0.6932,-0.6939,-0.7575,-0.7089,-0.6934,-0.7342,-0.6908,-0.6738,-0.7014,-0.6194,-0.5677,-0.5567,-0.5396,-0.5372,-0.5514,-0.5702,-0.5967,-0.6299,-0.6437,-0.6447,-0.6309,-0.6018,-0.5546,-0.5023,-0.5508,-0.5564,-0.538,-0.6005,-0.6195,-0.6002,-0.5102,-0.3408,-0.157,-0.1983,-0.2151,-0.2392,-0.3907,-0.4575,-0.4926,-0.5742,-0.5678,-0.5246,-0.4998,-0.4596,-0.4228,-0.425,-0.4137,-0.4035,-0.4107,-0.3999,-0.3843,-0.3724,-0.3786,-0.3994,-0.447,0.0,0.0,0.0,0.0,0.0,0.0,-0.4697,-0.4725,-0.4835,-0.5106,-0.5696,-0.673,-0.6858,-0.722,-0.8183,-0.7893,-0.7684,-0.7769,-0.8545,-0.9087,-0.9253,-1.0082,-1.0842,-1.1494,-1.1489,-1.1697,-1.2101,-1.1828,-1.1703,-1.1703,-1.1427,-1.1301,-1.1301,-1.1301,-1.1301,-1.1301,-1.1301,-1.1301,-1.1301,-1.1301,-1.1301,-1.1251,-1.082,-1.0598,-1.047,-1.0334,-0.9991,-0.9588,-0.3508,0.0,0.0,-0.4282,-0.4433,-0.4686,-0.5196,-0.5816,-0.6403,-0.6875,-0.6942,-0.7106,-0.7577,-0.7213,-0.7215,-0.7913,-0.7624,-0.7528,-0.7836,-0.7206,-0.6823,-0.6814,-0.6001,-0.5507,-0.5457,-0.534,-0.5235,-0.5166,-0.5498,-0.5827,-0.6168,-0.6253,-0.6353,-0.6405,-0.604,-0.5521,-0.4953,-0.5547,-0.5858,-0.6003,-0.6712,-0.6687,-0.6076,-0.458,-0.2556,-0.0589,-0.1119,-0.1119,-0.123,-0.3579,-0.438,-0.4641,-0.6076,-0.6135,-0.5621,-0.5461,-0.5097,-0.4775,-0.4908,-0.4729,-0.4522,-0.457,-0.4286,-0.3981,-0.3879,-0.3861,-0.402,-0.4556,-0.4544,0.0,0.0,0.0,-0.4876,-0.4659,0.0,-0.4185,-0.4362,-0.4429,-0.4875,-0.5969,-0.6297,-0.6689,-0.7301,-0.6905,-0.6675,-0.6859,-0.7455,-0.8113,-0.8793,-0.9335,-1.0086,-1.1145,-1.1283,-1.1508,-1.1887,-1.1774,-1.1678,-1.1653,-1.1418,-1.1301,-1.1301,-1.1301,-1.1301,-1.1301,-1.1301,-1.1301,-1.1301,-1.1301,-1.1301,-1.1251,-1.0871,-1.0624,-1.047,-1.0308,-0.9984,-0.9588,-0.4034,-0.4086,0.0,-0.4111,-0.4217,-0.4616,-0.5547,-0.603,-0.6543,-0.7195,-0.7278,-0.7577,-0.8368,-0.7757,-0.7456,-0.7866,-0.8177,-0.8105,-0.7554,-0.76,-0.7113,-0.5893,-0.6054,-0.5754,-0.484,-0.5084,-0.5084,-0.4812,-0.5157,-0.5482,-0.5827,-0.6153,-0.6368,-0.649,-0.6206,-0.586,-0.5482,-0.571,-0.6273,-0.7021,-0.6808,-0.6348,-0.5536,-0.2966,-0.1928,-0.1685,-0.049,-0.0045,-0.0399,-0.2747,-0.3927,-0.4653,-0.6129,-0.6586,-0.6433,-0.5865,-0.5668,-0.5611,-0.536,-0.505,-0.4794,-0.4794,-0.4389,-0.4047,-0.424,-0.4279,-0.4344,-0.4561,-0.4702,-0.4812,-0.4901,-0.4852,-0.4557,0.0,-0.3952,0.0,0.0,-0.3397,-0.3945,-0.4757,-0.5538,-0.5878,-0.5516,-0.6164,-0.7,-0.7971,-0.6817,-0.7123,-0.9537,-0.8537,-0.8629,-1.0282,-1.0726,-1.1054,-1.1309,-1.1565,-1.1619,-1.1502,-1.1377,-1.1301,-1.1301,-1.1301,-1.1301,-1.1301,-1.1301,-1.1301,-1.1301,-1.1301,-1.1301,-1.1301,-1.1276,-1.0972,-1.0437,-0.9855,-0.9614,-0.9588,0.0,0.0,0.0,-0.4382,-0.4514,-0.4863,-0.5589,-0.6147,-0.6619,-0.6996,-0.716,-0.7497,-0.8175,-0.7873,-0.7957,-0.8754,-0.8476,-0.8424,-0.8792,-0.8193,-0.7654,-0.7275,-0.68,-0.624,-0.5613,-0.5459,-0.531,-0.5125,-0.5109,-0.534,-0.5796,-0.592,-0.6044,-0.616,-0.6129,-0.577,-0.5223,-0.502,-0.4957,-0.4934,-0.4405,-0.4064,-0.3708,-0.2108,-0.1143,-0.0589,-0.0157,0.0,-0.0301,-0.2242,-0.3307,-0.4105,-0.5798,-0.6452,-0.6566,-0.6353,-0.6177,-0.6043,-0.6137,-0.5792,-0.5448,-0.5675,-0.4992,-0.4318,-0.4526,-0.4326,-0.4145,-0.4307,-0.4519,-0.4666,-0.4639,-0.4724,-0.4711,0.0,0.0,-0.4108,0.0,-0.3907,-0.4099,-0.4374,-0.4648,-0.4858,-0.4985,-0.493,-0.4949,-0.5109,-0.452,-0.4821,-0.6378,-0.7611,-0.9014,-1.0652,-1.0837,-1.1164,-1.1694,-1.1706,-1.1619,-1.1502,-1.1352,-1.1301,-1.1301,-1.1301,-1.1301,-1.1301,-1.1301,-1.1301,-1.1301,-1.1301,-1.12,-1.1023,-1.0845,-1.0514,-1.018,-1.0205,-0.9932,-0.9588,-0.4271,-0.445,-0.46,-0.4728,-0.4893,-0.5187,-0.5698,-0.6134,-0.6548,-0.6929,-0.725,-0.7643,-0.8194,-0.8147,-0.8342,-0.8998,-0.8645,-0.8645,-0.9239,-0.8555,-0.8236,-0.848,-0.7453,-0.67,-0.6324,-0.5903,-0.56,-0.5405,-0.5203,-0.534,-0.5796,-0.5796,-0.5874,-0.6006,-0.6044,-0.5703,-0.5088,-0.4826,-0.4036,-0.3027,-0.3671,-0.3519,-0.2899,-0.2899,-0.1695,-0.0045,-0.0346,-0.0268,-0.0253,-0.1928,-0.2948,-0.3846,-0.5857,-0.6613,-0.6747,-0.6747,-0.6613,-0.6526,-0.6693,-0.6354,-0.5999,-0.621,-0.5501,-0.4819,-0.5067,-0.4795,-0.4545,-0.4728,-0.4777,-0.4743,-0.4629,-0.4654,-0.462,0.0,0.0,-0.4154,0.0,-0.4108,-0.4145,-0.4007,-0.4237,-0.4438,-0.4511,-0.4383,-0.421,-0.4045,-0.3736,-0.4265,-0.5887,-0.7143,-0.8637,-1.0422,-1.0754,-1.1068,-1.1396,-1.161,-1.1603,-1.1427,-1.1352,-1.1301,-1.1301,-1.1301,-1.1301,-1.1301,-1.1301,-1.1301,-1.1301,-1.1301,-1.115,-1.0871,-1.0701,-1.0385,-0.9999,-1.0154,-0.9932,-0.9588,-0.4442,-0.453,-0.4704,-0.5149,-0.5329,-0.5533,-0.5863,-0.6019,-0.6349,-0.7024,-0.7556,-0.8035,-0.8429,-0.8555,-0.8603,-0.8627,-0.8675,-0.877,-0.8912,-0.8683,-0.879,-0.9347,-0.7997,-0.716,-0.6914,-0.6311,-0.5881,-0.5628,-0.5415,-0.5467,-0.5796,-0.5796,-0.5874,-0.599,-0.599,-0.568,-0.513,-0.5067,-0.3569,-0.1497,-0.4499,-0.4563,-0.3065,-0.5047,-0.3501,-0.0375,-0.1011,-0.0702,-0.0226,-0.1734,-0.2831,-0.3954,-0.6217,-0.6953,-0.7,-0.7,-0.7,-0.7,-0.7,-0.6711,-0.6402,-0.6415,-0.59,-0.5488,-0.5828,-0.5646,-0.5474,-0.5733,-0.5433,-0.5069,-0.4862,-0.4656,-0.4307,0.0,0.0,-0.4054,-0.368,-0.3945,-0.4045,-0.3671,-0.4301,-0.4575,-0.4056,-0.4447,-0.4748,-0.4793,-0.4475,-0.5375,-0.7925,-0.717,-0.7595,-0.9638,-1.0465,-1.0776,-1.0525,-1.1288,-1.1553,-1.1301,-1.1301,-1.1301,-1.1301,-1.1301,-1.1301,-1.1301,-1.1301,-1.1301,-1.1301,-1.1301,-1.1124,-1.0871,-1.0871,-1.0488,-0.994,-0.9699,-0.9588,-0.9588,-0.4416,-0.4935,-0.536,-0.5487,-0.553,-0.5669,-0.5998,-0.6211,-0.6538,-0.7107,-0.75,-0.787,-0.8168,-0.8542,-0.8783,-0.8885,-0.8928,-0.8996,-0.9118,-0.9066,-0.8952,-0.8813,-0.8303,-0.7728,-0.7139,-0.6486,-0.6091,-0.5971,-0.5563,-0.5522,-0.5796,-0.5796,-0.5811,-0.5858,-0.5858,-0.576,-0.556,-0.4611,-0.2716,-0.0571,-0.329,-0.3494,-0.2417,-0.4871,-0.5185,-0.3966,-0.1289,-0.0188,-0.015,-0.1151,-0.2779,-0.4554,-0.5448,-0.6319,-0.7,-0.7,-0.7,-0.6979,-0.6929,-0.6657,-0.6434,-0.6591,-0.6015,-0.5505,-0.5949,-0.5718,-0.5448,-0.5621,-0.5587,-0.5472,-0.5218,-0.4967,-0.4743,-0.4571,-0.4231,-0.3991,-0.4037,-0.4008,-0.3991,-0.4037,-0.4228,-0.4301,-0.4163,-0.3818,-0.3938,-0.4739,-0.5077,-0.5884,-0.7354,-0.747,-0.8164,-0.9657,-1.038,-1.08,-1.0951,-1.1356,-1.1477,-1.1301,-1.1301,-1.1301,-1.1301,-1.1301,-1.1301,-1.1301,-1.1301,-1.1301,-1.1276,-1.1074,-1.0845,-1.0573,-1.0334,-1.0017,-0.9699,-0.9614,-0.9588,-0.9588,-0.434,-0.481,-0.5238,-0.544,-0.5575,-0.5806,-0.6247,-0.6585,-0.6931,-0.7326,-0.7735,-0.8068,-0.8214,-0.8582,-0.8831,-0.891,-0.891,-0.8962,-0.9113,-0.9061,-0.8959,-0.8794,-0.8499,-0.8092,-0.7508,-0.6929,-0.6491,-0.6184,-0.5714,-0.5554,-0.5663,-0.5663,-0.5663,-0.5663,-0.5663,-0.5686,-0.5619,-0.4104,-0.2424,-0.0871,-0.1812,-0.1744,0.0,-0.2701,-0.3261,-0.3045,-0.1382,-0.0449,-0.011,-0.083,-0.2456,-0.4329,-0.5202,-0.6186,-0.7,-0.7,-0.6985,-0.695,-0.6914,-0.6665,-0.6478,-0.6579,-0.6225,-0.592,-0.62,-0.6079,-0.5901,-0.5975,-0.5851,-0.5676,-0.5464,-0.5164,-0.4905,-0.479,-0.4247,-0.3934,-0.4132,-0.4056,-0.4056,-0.4262,-0.4262,-0.4299,-0.4447,-0.3909,-0.3884,-0.47,-0.5275,-0.6073,-0.7141,-0.7415,-0.8092,-0.9313,-1.0052,-1.0387,-1.0264,-1.1081,-1.134,-1.1036,-1.1224,-1.1301,-1.1301,-1.1301,-1.1301,-1.1301,-1.1301,-1.1301,-1.1276,-1.1023,-1.0744,-1.047,-0.9991,-0.9725,-0.9588,-0.9588,-0.9588,-0.9588,-0.426,-0.4504,-0.4793,-0.5209,-0.5529,-0.5947,-0.6544,-0.7001,-0.7361,-0.7629,-0.8092,-0.8402,-0.8402,-0.8637,-0.8804,-0.8804,-0.8804,-0.8857,-0.8962,-0.8857,-0.8857,-0.8962,-0.8607,-0.825,-0.7972,-0.7382,-0.684,-0.6356,-0.5783,-0.551,-0.5491,-0.5491,-0.5491,-0.5491,-0.5491,-0.5529,-0.5465,-0.3799,-0.26,-0.1692,-0.049,0.0,-0.0036,-0.034,-0.0459,-0.0593,-0.1647,-0.1345,-0.0546,-0.1122,-0.2501,-0.4173,-0.5379,-0.6327,-0.7,-0.6979,-0.695,-0.6893,-0.6851,-0.6675,-0.6498,-0.6483,-0.6447,-0.641,-0.6462,-0.6483,-0.6483,-0.6483,-0.6162,-0.5839,-0.5694,-0.532,-0.4949,-0.4673,-0.4186,-0.391,-0.4117,-0.4117,-0.4164,-0.433,-0.4303,0.0,-0.4704,-0.4356,-0.4275,-0.4679,-0.5289,-0.6038,-0.6966,-0.7166,-0.7714,-0.8694,-0.9582,-0.9783,-0.9275,-1.0728,-1.1237,-1.0772,-1.1122,-1.1301,-1.1301,-1.1301,-1.1301,-1.1301,-1.1301,-1.1276,-1.1226,-1.0972,-1.0616,-1.0257,-0.9725,-0.9484,-0.9432,-0.9432,-0.9432,-0.9458,-0.4298,-0.4682,-0.5002,-0.5191,-0.5629,-0.6158,-0.675,-0.7014,-0.7338,-0.793,-0.8232,-0.8402,-0.8402,-0.8637,-0.8804,-0.8804,-0.8804,-0.8811,-0.8831,-0.8804,-0.8804,-0.8831,-0.8556,-0.8375,-0.8322,-0.7036,-0.6463,-0.6624,-0.56,-0.5241,-0.5491,-0.5491,-0.5491,-0.5491,-0.5491,-0.5475,-0.538,-0.4506,-0.3239,-0.1693,-0.0485,0.0,-0.0213,-0.2152,-0.2887,-0.2918,-0.3129,-0.3064,-0.2955,-0.339,-0.4807,-0.6343,-0.6167,-0.6513,-0.6979,-0.6929,-0.6914,-0.6851,-0.6632,-0.6547,-0.6483,-0.6432,-0.641,-0.6395,-0.641,-0.641,-0.641,-0.641,-0.6358,-0.6239,-0.6052,-0.5589,-0.5166,-0.4885,-0.4393,-0.4117,-0.4312,-0.4209,-0.4096,-0.4071,-0.4101,-0.4201,-0.4374,-0.4555,-0.4702,-0.4783,-0.545,-0.5906,-0.6038,-0.699,-0.7614,-0.7819,-0.9088,-0.9726,-0.9614,-1.0748,-1.1292,-1.1207,-1.1267,-1.1301,-1.1301,-1.1301,-1.1301,-1.1301,-1.1301,-1.1175,-1.0947,-1.0667,-1.0051,-0.9244,-0.9133,-0.8896,-0.8606,-0.8606,-0.8606,-0.8705,-0.4299,-0.45,-0.4701,-0.4951,-0.5256,-0.5786,-0.6717,-0.6713,-0.7023,-0.8105,-0.8344,-0.841,-0.841,-0.8508,-0.8586,-0.8586,-0.8666,-0.8692,-0.8692,-0.8752,-0.8804,-0.8804,-0.8612,-0.8415,-0.8263,-0.7348,-0.6773,-0.6541,-0.5538,-0.5168,-0.5404,-0.5404,-0.5404,-0.5404,-0.5404,-0.5381,-0.5284,-0.4336,-0.3273,-0.2175,-0.1767,-0.1573,-0.1626,-0.2765,-0.3838,-0.4775,-0.4987,-0.4885,-0.4645,-0.4702,-0.5745,-0.6873,-0.6159,-0.6433,-0.6979,-0.6914,-0.6851,-0.6751,-0.6547,-0.6462,-0.6447,-0.641,-0.6395,-0.6395,-0.6395,-0.6395,-0.6395,-0.6395,-0.6395,-0.6331,-0.6132,-0.5757,-0.5401,-0.52,-0.4557,-0.4132,-0.4232,-0.3975,-0.3806,-0.3836,-0.3813,-0.3968,-0.4404,-0.441,-0.4479,-0.4685,-0.5539,-0.603,-0.5956,-0.6798,-0.7547,-0.8096,-0.8948,-0.9364,-0.9331,-1.0632,-1.1104,-1.0685,-1.1112,-1.1301,-1.1301,-1.1301,-1.1301,-1.1293,-1.115,-1.0888,-1.0515,-1.0087,-0.9446,-0.8718,-0.8929,-0.8745,-0.8395,-0.8395,-0.8395,-0.8448,-0.4306,-0.429,-0.4345,-0.4651,-0.4833,-0.5288,-0.6323,-0.6268,-0.6659,-0.8198,-0.8289,-0.8256,-0.8395,-0.8395,-0.8395,-0.8395,-0.8501,-0.8547,-0.8547,-0.8666,-0.8725,-0.8725,-0.8501,-0.8306,-0.8165,-0.7551,-0.6944,-0.6371,-0.5625,-0.5248,-0.5205,-0.5388,-0.5447,-0.5394,-0.5521,-0.5541,-0.5435,-0.4541,-0.3818,-0.328,-0.3485,-0.3428,-0.3243,-0.3509,-0.458,-0.6029,-0.6609,-0.6496,-0.6052,-0.59,-0.6366,-0.688,-0.6187,-0.6428,-0.6964,-0.6872,-0.6772,-0.6623,-0.6511,-0.649,-0.6461,-0.6407,-0.648,-0.6528,-0.6419,-0.6437,-0.6461,-0.6407,-0.6395,-0.6349,-0.6192,-0.5902,-0.5627,-0.5464,-0.4763,-0.4207,-0.4076,-0.3839,-0.3682,-0.3643,-0.3714,-0.3956,-0.4466,-0.4337,-0.4378,-0.473,-0.5538,-0.6101,-0.6233,-0.6702,-0.7421,-0.8425,-0.8796,-0.9024,-0.9124,-1.048,-1.0899,-1.0362,-1.101,-1.1301,-1.1301,-1.1301,-1.1276,-1.12,-1.0998,-1.0574,-0.9987,-0.951,-0.889,-0.8289,-0.8606,-0.8474,-0.8129,-0.8129,-0.8129,-0.8129,-0.4332,-0.4252,-0.4173,-0.439,-0.461,-0.4888,-0.5374,-0.5655,-0.6442,-0.8171,-0.7931,-0.7791,-0.8342,-0.8395,-0.8395,-0.8395,-0.8421,-0.8421,-0.8421,-0.8421,-0.8427,-0.8427,-0.7904,-0.7833,-0.8356,-0.7026,-0.632,-0.6304,-0.5976,-0.5491,-0.4866,-0.572,-0.595,-0.5681,-0.6226,-0.6338,-0.6129,-0.6262,-0.5963,-0.5384,-0.5186,-0.4753,-0.4374,-0.5471,-0.5998,-0.6321,-0.739,-0.7592,-0.737,-0.7592,-0.7366,-0.6986,-0.69,-0.6905,-0.6893,-0.6751,-0.6617,-0.6505,-0.6432,-0.6586,-0.6714,-0.6449,-0.6775,-0.7,-0.6498,-0.6599,-0.6702,-0.6443,-0.6395,-0.6389,-0.638,-0.6143,-0.5889,-0.5621,-0.5109,-0.4539,-0.4001,-0.4143,-0.4095,-0.35,-0.4118,-0.4499,-0.4257,-0.4703,-0.5062,-0.5226,-0.538,-0.5843,-0.6691,-0.6786,-0.7173,-0.7946,-0.8351,-0.8884,-0.9547,-1.0345,-1.0908,-1.1198,-1.1267,-1.1301,-1.1301,-1.1301,-1.1175,-1.0947,-1.0922,-1.037,-0.9458,-0.9159,-0.8527,-0.7777,-0.7803,-0.7589,-0.7219,-0.7219,-0.7219,-0.7219,-0.4335,-0.4334,-0.4289,-0.4285,-0.4416,-0.4665,-0.5117,-0.5082,-0.5524,-0.6897,-0.688,-0.6826,-0.7047,-0.7074,-0.7235,-0.7595,-0.7369,-0.7364,-0.7723,-0.7477,-0.7477,-0.7851,-0.7197,-0.7117,-0.7717,-0.6761,-0.6104,-0.5828,-0.6023,-0.5918,-0.5531,-0.579,-0.5872,-0.5843,-0.6375,-0.659,-0.6526,-0.612,-0.584,-0.5717,-0.5977,-0.5941,-0.5875,-0.7252,-0.7767,-0.7824,-0.8263,-0.8263,-0.8053,-0.8156,-0.7796,-0.731,-0.731,-0.7229,-0.7072,-0.6781,-0.6596,-0.6483,-0.641,-0.6583,-0.6781,-0.6678,-0.6927,-0.7109,-0.6738,-0.6732,-0.6732,-0.6449,-0.6395,-0.6395,-0.6395,-0.6304,-0.6155,-0.5882,-0.5455,-0.4962,-0.4405,-0.4473,-0.4395,-0.3886,-0.4164,-0.4441,-0.4549,-0.4522,-0.4924,-0.5943,-0.5934,-0.6146,-0.6762,-0.6987,-0.7449,-0.8239,-0.8615,-0.9153,-0.9893,-1.0431,-1.0772,-1.0951,-1.119,-1.1301,-1.1301,-1.1301,-1.1074,-1.065,-1.0198,-0.9543,-0.8784,-0.8685,-0.8129,-0.7375,-0.7616,-0.7456,-0.7112,-0.7112,-0.7112,-0.7112,-0.4208,-0.428,-0.4214,-0.4117,-0.4202,-0.4401,-0.4769,-0.4647,-0.4791,-0.5609,-0.5691,-0.5828,-0.6154,-0.6209,-0.6372,-0.681,-0.6529,-0.6524,-0.6961,-0.6669,-0.6664,-0.709,-0.6438,-0.6362,-0.6961,-0.6329,-0.5778,-0.534,-0.5927,-0.6057,-0.5765,-0.6005,-0.6129,-0.6188,-0.6778,-0.701,-0.6933,-0.6609,-0.6527,-0.6637,-0.7073,-0.7252,-0.7369,-0.8397,-0.8804,-0.8804,-0.8752,-0.8559,-0.8327,-0.8394,-0.8059,-0.7603,-0.7477,-0.7311,-0.7103,-0.6742,-0.6609,-0.6566,-0.6434,-0.672,-0.7,-0.6848,-0.7103,-0.7321,-0.7,-0.6987,-0.6945,-0.6577,-0.6443,-0.6395,-0.6395,-0.6395,-0.6319,-0.604,-0.5722,-0.5303,-0.4683,-0.4745,-0.4655,-0.4123,-0.4277,-0.4536,-0.4804,-0.467,-0.5025,-0.6118,-0.616,-0.6386,-0.6946,-0.6924,-0.729,-0.8151,-0.8392,-0.893,-0.9832,-1.0212,-1.0516,-1.0769,-1.1048,-1.1226,-1.1293,-1.115,-1.0794,-1.0308,-0.9725,-0.9126,-0.8553,-0.8448,-0.7963,-0.73,-0.7456,-0.7354,-0.7112,-0.7112,-0.7112,-0.7112,-0.3939,-0.3957,-0.391,-0.391,-0.396,-0.4053,-0.4199,-0.4388,-0.4519,-0.4519,-0.4519,-0.4952,-0.6073,-0.6209,-0.6209,-0.6209,-0.6209,-0.6209,-0.6209,-0.6209,-0.6209,-0.6209,-0.5632,-0.5605,-0.6209,-0.5628,-0.521,-0.5009,-0.5682,-0.5727,-0.5238,-0.6498,-0.6978,-0.6828,-0.7698,-0.779,-0.735,-0.8342,-0.8758,-0.8758,-0.8765,-0.8771,-0.8771,-0.8804,-0.8804,-0.8778,-0.8659,-0.8384,-0.8132,-0.8319,-0.8177,-0.7815,-0.7425,-0.7109,-0.685,-0.6579,-0.663,-0.6744,-0.6468,-0.6987,-0.7461,-0.6939,-0.7357,-0.7778,-0.7297,-0.7401,-0.7437,-0.6914,-0.6592,-0.6395,-0.6395,-0.6395,-0.6319,-0.604,-0.5897,-0.5521,-0.4707,-0.4951,-0.4903,-0.4095,-0.4585,-0.4958,-0.4906,-0.5372,-0.563,-0.5512,-0.5811,-0.6417,-0.7338,-0.6462,-0.6375,-0.739,-0.7352,-0.794,-0.9198,-0.9555,-1.0097,-1.0888,-1.0896,-1.1049,-1.1276,-1.0744,-1.0342,-0.9999,-0.9725,-0.9361,-0.8956,-0.856,-0.8129,-0.7643,-0.7273,-0.7112,-0.7112,-0.7112,-0.7112,-0.7112,-0.386,-0.4033,-0.4104,-0.4104,-0.4052,-0.4012,-0.4068,-0.4121,-0.4242,-0.4463,-0.4491,-0.4625,-0.5007,-0.5034,-0.5199,-0.555,-0.5254,-0.5199,-0.555,-0.5254,-0.5199,-0.5578,-0.5062,-0.5007,-0.5578,-0.5391,-0.5089,-0.4668,-0.5566,-0.5962,-0.5906,-0.7242,-0.7559,-0.7041,-0.7816,-0.8158,-0.8133,-0.8502,-0.8718,-0.8804,-0.8804,-0.8804,-0.8778,-0.8692,-0.8659,-0.8633,-0.8501,-0.839,-0.8326,-0.8369,-0.8258,-0.8016,-0.7525,-0.7301,-0.7138,-0.6634,-0.6636,-0.6787,-0.6708,-0.7127,-0.7552,-0.7382,-0.7629,-0.7832,-0.7527,-0.7394,-0.7279,-0.7109,-0.6866,-0.6684,-0.6684,-0.6516,-0.6319,-0.604,-0.6046,-0.5829,-0.5178,-0.5273,-0.5234,-0.4744,-0.4909,-0.5107,-0.5168,-0.5292,-0.5577,-0.6144,-0.6207,-0.6276,-0.6431,-0.6315,-0.6475,-0.697,-0.7626,-0.8311,-0.8997,-0.9557,-1.0099,-1.0624,-1.0624,-1.0667,-1.0752,-1.0573,-1.018,-0.9569,-0.9316,-0.8784,-0.8096,-0.7963,-0.767,-0.7268,-0.7166,-0.7112,-0.7112,-0.7112,-0.7112,-0.7112,-0.3743,-0.3888,-0.3971,-0.3971,-0.3916,-0.3858,-0.3858,-0.4049,-0.4242,-0.4384,-0.4463,-0.4463,-0.4408,-0.4463,-0.4625,-0.4979,-0.468,-0.4653,-0.4979,-0.468,-0.4653,-0.4979,-0.468,-0.4653,-0.4979,-0.5007,-0.4846,-0.4491,-0.5329,-0.577,-0.5898,-0.7182,-0.7662,-0.7425,-0.7724,-0.8109,-0.8487,-0.8262,-0.8395,-0.8778,-0.8725,-0.8699,-0.8718,-0.858,-0.8527,-0.8501,-0.8368,-0.8321,-0.8321,-0.8242,-0.8162,-0.8008,-0.761,-0.7468,-0.7357,-0.6775,-0.6767,-0.6957,-0.6957,-0.7321,-0.7679,-0.7498,-0.7677,-0.7859,-0.7737,-0.7515,-0.7346,-0.7346,-0.706,-0.6805,-0.6805,-0.6592,-0.6334,-0.6179,-0.6184,-0.6032,-0.5518,-0.5539,-0.5471,-0.5083,-0.514,-0.525,-0.5332,-0.5336,-0.5553,-0.605,-0.5937,-0.5818,-0.5779,-0.6125,-0.6345,-0.6394,-0.7196,-0.7842,-0.8282,-0.8928,-0.9542,-1.0095,-1.036,-1.0419,-1.0316,-1.0154,-0.9784,-0.9237,-0.8903,-0.8474,-0.7937,-0.7777,-0.7563,-0.7295,-0.7166,-0.7031,-0.695,-0.695,-0.695,-0.6918,-0.3583,-0.3583,-0.3613,-0.3613,-0.3613,-0.3613,-0.3613,-0.4079,-0.4384,-0.4193,-0.4328,-0.4384,-0.4221,-0.4353,-0.4463,-0.4491,-0.4491,-0.4491,-0.4491,-0.4491,-0.4491,-0.4491,-0.4491,-0.4491,-0.4491,-0.4491,-0.4491,-0.4491,-0.5034,-0.5304,-0.5332,-0.6485,-0.7327,-0.7821,-0.7402,-0.767,-0.8354,-0.7702,-0.7943,-0.8752,-0.8566,-0.8533,-0.8573,-0.8448,-0.8401,-0.8374,-0.8215,-0.8168,-0.8141,-0.7955,-0.7901,-0.7853,-0.7654,-0.7595,-0.7492,-0.6987,-0.7024,-0.723,-0.723,-0.7562,-0.7781,-0.7358,-0.7587,-0.7901,-0.7901,-0.7756,-0.7625,-0.7625,-0.7218,-0.6866,-0.6866,-0.6629,-0.6419,-0.6419,-0.6309,-0.609,-0.5745,-0.5747,-0.5621,-0.5159,-0.5277,-0.54,-0.5416,-0.5529,-0.5549,-0.5442,-0.5275,-0.5242,-0.5383,-0.5901,-0.6062,-0.5726,-0.6255,-0.6777,-0.7309,-0.7913,-0.8599,-0.9335,-1.0051,-1.0205,-0.987,-0.9517,-0.9204,-0.8903,-0.8501,-0.8342,-0.8262,-0.7803,-0.7643,-0.7589,-0.7187,-0.6891,-0.6674,-0.6674,-0.6674,-0.662,-0.3413,-0.3499,-0.3613,-0.3613,-0.3613,-0.3613,-0.3613,-0.3722,-0.3805,-0.3749,-0.3777,-0.3916,-0.4166,-0.4162,-0.4215,-0.4487,-0.4491,-0.4491,-0.4491,-0.4491,-0.4491,-0.4491,-0.4491,-0.4491,-0.4491,-0.4491,-0.4491,-0.4491,-0.5034,-0.5304,-0.5308,-0.6073,-0.6647,-0.7036,-0.6745,-0.6907,-0.7434,-0.7477,-0.7877,-0.848,-0.8454,-0.8421,-0.8421,-0.8295,-0.8248,-0.8221,-0.8035,-0.7981,-0.7955,-0.7928,-0.7901,-0.7853,-0.7654,-0.7595,-0.7528,-0.7206,-0.7297,-0.7504,-0.7504,-0.7695,-0.7871,-0.7772,-0.7811,-0.7901,-0.7901,-0.7853,-0.7832,-0.7832,-0.7618,-0.7407,-0.7407,-0.703,-0.6714,-0.6714,-0.65,-0.6208,-0.5771,-0.5722,-0.5615,-0.5298,-0.5291,-0.5404,-0.5614,-0.5657,-0.5657,-0.5636,-0.582,-0.5749,-0.5345,-0.5873,-0.6118,-0.5941,-0.655,-0.7032,-0.7363,-0.8018,-0.8456,-0.8633,-0.9021,-0.9047,-0.8791,-0.8883,-0.8593,-0.799,-0.791,-0.7696,-0.7381,-0.7079,-0.6945,-0.6891,-0.6561,-0.6372,-0.6317,-0.6317,-0.6317,-0.6317,-0.3441,-0.3527,-0.3613,-0.3613,-0.3613,-0.3613,-0.3613,-0.3613,-0.3613,-0.3613,-0.3613,-0.3697,-0.3888,-0.3941,-0.4049,-0.4242,-0.427,-0.4325,-0.4491,-0.4408,-0.4408,-0.4491,-0.4491,-0.4491,-0.4491,-0.4491,-0.4491,-0.4491,-0.4791,-0.4924,-0.4952,-0.5523,-0.6046,-0.6512,-0.6372,-0.6804,-0.7574,-0.7295,-0.7643,-0.8401,-0.8242,-0.8215,-0.8295,-0.8115,-0.8062,-0.8062,-0.7928,-0.7901,-0.7901,-0.7901,-0.7901,-0.7877,-0.778,-0.7731,-0.7707,-0.7562,-0.7558,-0.7625,-0.7727,-0.7814,-0.7901,-0.7901,-0.7832,-0.7798,-0.7871,-0.7901,-0.7901,-0.7901,-0.7737,-0.7595,-0.7595,-0.7164,-0.6805,-0.6805,-0.6477,-0.6105,-0.5754,-0.5676,-0.5556,-0.5328,-0.5405,-0.555,-0.5685,-0.5701,-0.5701,-0.5701,-0.5761,-0.5744,-0.5637,-0.5853,-0.5935,-0.5863,-0.6432,-0.6838,-0.7067,-0.7731,-0.8076,-0.8076,-0.8441,-0.8547,-0.8395,-0.8335,-0.809,-0.7696,-0.7509,-0.7241,-0.6896,-0.6756,-0.662,-0.6458,-0.6263,-0.6132,-0.6028,-0.6028,-0.6028,-0.6,-0.3416,-0.353,-0.3613,-0.3613,-0.3613,-0.3613,-0.3613,-0.3613,-0.3613,-0.3613,-0.3613,-0.3613,-0.3613,-0.3747,-0.3885,-0.3941,-0.3941,-0.4079,-0.438,-0.4273,-0.4273,-0.4436,-0.4491,-0.4491,-0.4491,-0.4491,-0.4491,-0.4491,-0.4491,-0.4491,-0.4519,-0.4979,-0.5445,-0.5937,-0.5937,-0.6669,-0.7842,-0.7058,-0.7327,-0.8295,-0.8002,-0.8008,-0.8141,-0.7955,-0.7901,-0.7901,-0.7901,-0.7901,-0.7901,-0.7901,-0.7901,-0.7901,-0.7901,-0.7901,-0.7901,-0.7901,-0.7792,-0.7685,-0.7868,-0.7901,-0.7901,-0.7901,-0.778,-0.7691,-0.7847,-0.7901,-0.7901,-0.7901,-0.7768,-0.763,-0.763,-0.7224,-0.6866,-0.6866,-0.6389,-0.5959,-0.5737,-0.565,-0.5545,-0.5328,-0.555,-0.5701,-0.5701,-0.5734,-0.575,-0.575,-0.5567,-0.5615,-0.5932,-0.582,-0.575,-0.575,-0.6196,-0.6557,-0.6757,-0.7327,-0.7616,-0.7616,-0.8017,-0.8209,-0.8182,-0.7777,-0.7616,-0.7589,-0.7214,-0.6923,-0.6701,-0.6593,-0.6404,-0.6127,-0.6073,-0.5918,-0.5713,-0.5713,-0.5713,-0.5686,-0.2886,-0.3249,-0.3613,-0.3613,-0.3613,-0.3613,-0.3613,-0.3613,-0.3613,-0.3613,-0.3613,-0.3613,-0.3613,-0.3638,-0.3638,-0.3666,-0.3666,-0.3749,-0.3993,-0.4135,-0.4221,-0.4249,-0.4408,-0.4491,-0.4491,-0.4491,-0.4491,-0.4491,-0.4491,-0.4491,-0.4491,-0.457,-0.468,-0.4763,-0.4763,-0.5418,-0.6507,-0.6344,-0.6945,-0.7981,-0.7928,-0.7928,-0.7955,-0.7901,-0.7901,-0.7901,-0.7901,-0.7901,-0.7901,-0.7901,-0.7901,-0.7901,-0.7901,-0.7901,-0.7901,-0.7901,-0.7871,-0.7847,-0.7889,-0.7901,-0.7901,-0.7901,-0.7871,-0.7874,-0.7889,-0.7901,-0.7901,-0.7901,-0.7865,-0.7868,-0.7868,-0.7454,-0.7139,-0.7139,-0.6594,-0.6064,-0.574,-0.573,-0.566,-0.533,-0.555,-0.5701,-0.5701,-0.5852,-0.5942,-0.5942,-0.6126,-0.6083,-0.5771,-0.5879,-0.5942,-0.5942,-0.6409,-0.6768,-0.7031,-0.7144,-0.7192,-0.7192,-0.7273,-0.73,-0.73,-0.7219,-0.7192,-0.7187,-0.6891,-0.6729,-0.6647,-0.6141,-0.59,-0.5845,-0.5544,-0.5407,-0.538,-0.538,-0.538,-0.5384,-0.3165,-0.3416,-0.3613,-0.3613,-0.3613,-0.3613,-0.3613,-0.3613,-0.3613,-0.3613,-0.3613,-0.3613,-0.3613,-0.3613,-0.3613,-0.3613,-0.3613,-0.3638,-0.3719,-0.3885,-0.4024,-0.4079,-0.4187,-0.427,-0.4328,-0.4436,-0.4491,-0.4491,-0.4491,-0.4491,-0.4491,-0.4491,-0.4653,-0.4924,-0.4924,-0.5418,-0.6209,-0.6534,-0.6999,-0.7494,-0.7794,-0.7901,-0.7901,-0.7901,-0.7901,-0.7901,-0.7901,-0.7901,-0.7901,-0.7901,-0.7901,-0.7901,-0.7901,-0.7901,-0.7901,-0.7901,-0.7901,-0.7901,-0.7901,-0.7901,-0.7901,-0.7901,-0.7901,-0.7901,-0.7901,-0.7901,-0.7901,-0.7901,-0.7901,-0.7901,-0.7901,-0.747,-0.7086,-0.7086,-0.6525,-0.597,-0.5636,-0.5701,-0.5678,-0.5335,-0.555,-0.5701,-0.5701,-0.5884,-0.5996,-0.5996,-0.6103,-0.6213,-0.6245,-0.6082,-0.6114,-0.6371,-0.672,-0.6972,-0.7112,-0.7112,-0.7112,-0.7112,-0.7112,-0.7112,-0.7112,-0.7112,-0.7112,-0.7085,-0.681,-0.6593,-0.6404,-0.5982,-0.5686,-0.5521,-0.5356,-0.5297,-0.5297,-0.5297,-0.5297,-0.5297,-0.3304,-0.3388,-0.3388,-0.3388,-0.3388,-0.3388,-0.3388,-0.3499,-0.3613,-0.3613,-0.3613,-0.3613,-0.3613,-0.3613,-0.3613,-0.3613,-0.3613,-0.3613,-0.3613,-0.3691,-0.3799,-0.3938,-0.3993,-0.4052,-0.4193,-0.4356,-0.4436,-0.4436,-0.4463,-0.4491,-0.4491,-0.4491,-0.4708,-0.5117,-0.5117,-0.5523,-0.6236,-0.6701,-0.7058,-0.7327,-0.7735,-0.7901,-0.7901,-0.7901,-0.7901,-0.7901,-0.7901,-0.7901,-0.7901,-0.7901,-0.7901,-0.7901,-0.7901,-0.7901,-0.7901,-0.7869,-0.7842,-0.7869,-0.7901,-0.7901,-0.7901,-0.7901,-0.7901,-0.7901,-0.7901,-0.7901,-0.7901,-0.7901,-0.7901,-0.7901,-0.7901,-0.7441,-0.7084,-0.7084,-0.6556,-0.604,-0.5785,-0.5853,-0.5853,-0.5583,-0.5728,-0.5869,-0.5869,-0.6051,-0.6162,-0.6162,-0.6162,-0.6302,-0.6613,-0.6285,-0.6275,-0.6698,-0.6907,-0.7031,-0.7112,-0.7112,-0.7112,-0.7112,-0.7112,-0.7112,-0.7112,-0.7031,-0.7004,-0.6977,-0.6652,-0.6354,-0.6077,-0.5786,-0.5517,-0.5297,-0.5297,-0.5297,-0.5297,-0.5297,-0.5297,-0.5297,-0.2747,-0.2775,-0.2775,-0.2775,-0.2775,-0.2775,-0.2775,-0.3249,-0.3613,-0.3613,-0.3613,-0.3613,-0.3613,-0.3613,-0.3613,-0.3613,-0.3613,-0.3613,-0.3613,-0.3613,-0.3663,-0.3796,-0.3938,-0.4052,-0.4193,-0.4221,-0.4221,-0.4221,-0.4408,-0.4491,-0.4491,-0.4491,-0.4515,-0.4574,-0.4574,-0.5171,-0.6209,-0.6236,-0.6891,-0.7848,-0.7875,-0.7901,-0.7901,-0.7901,-0.7901,-0.7901,-0.7901,-0.7901,-0.7901,-0.7901,-0.7901,-0.7901,-0.7901,-0.7901,-0.7875,-0.7756,-0.7723,-0.7756,-0.7869,-0.7901,-0.7901,-0.7901,-0.7901,-0.7901,-0.7901,-0.7901,-0.7901,-0.7901,-0.7901,-0.7901,-0.7901,-0.7558,-0.7287,-0.7287,-0.6862,-0.6542,-0.6525,-0.6422,-0.6336,-0.6315,-0.6331,-0.6342,-0.6342,-0.6521,-0.6661,-0.6661,-0.6661,-0.658,-0.6428,-0.6385,-0.6482,-0.6704,-0.6725,-0.6838,-0.7106,-0.7112,-0.7112,-0.7112,-0.7112,-0.7112,-0.7085,-0.6837,-0.6729,-0.6701,-0.6114,-0.585,-0.5795,-0.5462,-0.5329,-0.5297,-0.5297,-0.5297,-0.5297,-0.5297,-0.5297,-0.5297,-0.2691,-0.2691,-0.2691,-0.2691,-0.2691,-0.2691,-0.2691,-0.2886,-0.3054,-0.3054,-0.3249,-0.3471,-0.3583,-0.3499,-0.3471,-0.3583,-0.3613,-0.3613,-0.3613,-0.3613,-0.361,-0.3663,-0.3799,-0.3855,-0.3833,-0.3996,-0.4107,-0.4193,-0.4273,-0.4384,-0.4491,-0.4491,-0.4491,-0.4491,-0.4491,-0.4736,-0.5199,-0.5909,-0.6453,-0.6918,-0.7628,-0.7901,-0.7901,-0.7901,-0.7901,-0.7901,-0.7901,-0.7901,-0.7901,-0.7901,-0.7842,-0.7783,-0.7783,-0.7783,-0.7756,-0.7723,-0.7643,-0.7595,-0.7628,-0.7762,-0.7875,-0.7783,-0.7842,-0.7901,-0.7901,-0.7901,-0.7901,-0.7901,-0.7901,-0.7875,-0.7783,-0.7471,-0.72,-0.7112,-0.6862,-0.6626,-0.6485,-0.6539,-0.6527,-0.6412,-0.6396,-0.6396,-0.6396,-0.6476,-0.6525,-0.6525,-0.6525,-0.6487,-0.6401,-0.6396,-0.6498,-0.6704,-0.6709,-0.6822,-0.7106,-0.7112,-0.7112,-0.7112,-0.7112,-0.7112,-0.7085,-0.681,-0.6701,-0.6674,-0.6064,-0.5795,-0.5768,-0.5434,-0.5297,-0.5297,-0.5297,-0.5297,-0.5297,-0.5297,-0.5297,-0.5297,-0.2691,-0.2691,-0.2691,-0.2691,-0.2691,-0.2691,-0.2691,-0.2691,-0.2691,-0.2691,-0.294,-0.319,-0.3385,-0.3357,-0.333,-0.3441,-0.3499,-0.3527,-0.3527,-0.3583,-0.3613,-0.3613,-0.3691,-0.3691,-0.3613,-0.383,-0.3993,-0.4079,-0.4107,-0.4218,-0.4353,-0.438,-0.4519,-0.4677,-0.4736,-0.4956,-0.5363,-0.6154,-0.6588,-0.681,-0.7574,-0.7901,-0.7901,-0.7901,-0.7901,-0.7901,-0.7842,-0.7869,-0.7901,-0.7788,-0.7735,-0.7696,-0.7643,-0.7595,-0.7568,-0.7568,-0.7521,-0.744,-0.7386,-0.7574,-0.7762,-0.7649,-0.7729,-0.7815,-0.7794,-0.7848,-0.7875,-0.7794,-0.7815,-0.7788,-0.7676,-0.741,-0.7197,-0.7108,-0.6952,-0.6789,-0.6633,-0.6746,-0.6789,-0.6633,-0.6611,-0.6579,-0.6509,-0.6503,-0.6471,-0.6401,-0.632,-0.6261,-0.6244,-0.6239,-0.6329,-0.6545,-0.6634,-0.6786,-0.6977,-0.7058,-0.7112,-0.7112,-0.7112,-0.7058,-0.6972,-0.6674,-0.6485,-0.6381,-0.5873,-0.5631,-0.5626,-0.538,-0.5297,-0.5297,-0.5297,-0.5297,-0.5297,-0.5297,-0.5297,-0.5297,-0.2691,-0.2691,-0.2691,-0.2691,-0.2691,-0.2691,-0.2691,-0.2691,-0.2691,-0.2691,-0.2691,-0.2772,-0.2963,-0.3188,-0.3244,-0.3102,-0.3272,-0.3385,-0.3413,-0.3527,-0.3613,-0.3613,-0.3613,-0.3613,-0.3613,-0.3744,-0.3796,-0.3796,-0.3938,-0.3993,-0.3996,-0.4138,-0.4515,-0.5105,-0.5222,-0.5959,-0.7085,-0.7085,-0.7408,-0.7901,-0.7901,-0.7901,-0.7901,-0.7901,-0.7901,-0.7875,-0.7756,-0.7783,-0.7848,-0.7601,-0.7595,-0.767,-0.7542,-0.7419,-0.729,-0.729,-0.729,-0.7257,-0.7139,-0.73,-0.7494,-0.7494,-0.7595,-0.767,-0.7542,-0.7708,-0.7821,-0.7547,-0.7595,-0.7643,-0.7521,-0.7392,-0.729,-0.729,-0.7198,-0.7112,-0.7112,-0.7112,-0.7112,-0.7112,-0.7112,-0.6993,-0.6731,-0.6709,-0.6618,-0.6412,-0.6159,-0.5963,-0.5912,-0.5899,-0.5996,-0.6199,-0.6507,-0.6701,-0.6696,-0.6972,-0.7112,-0.7112,-0.7112,-0.695,-0.6701,-0.6344,-0.605,-0.5795,-0.5439,-0.5297,-0.5297,-0.5297,-0.5297,-0.5297,-0.5297,-0.5297,-0.5297,-0.5297,-0.5297,-0.5297,-0.1429,-0.213,-0.2691,-0.2691,-0.2691,-0.2691,-0.2691,-0.2691,-0.2691,-0.2691,-0.2691,-0.2719,-0.2772,-0.2914,-0.3051,-0.3102,-0.316,-0.3244,-0.3385,-0.3527,-0.3613,-0.3613,-0.3613,-0.3613,-0.3613,-0.3638,-0.3719,-0.3796,-0.3852,-0.391,-0.3996,-0.4052,-0.4159,-0.4349,-0.4814,-0.5226,-0.5609,-0.6399,-0.6912,-0.7214,-0.7515,-0.7676,-0.7756,-0.7655,-0.7628,-0.7601,-0.7568,-0.7574,-0.7601,-0.7521,-0.7467,-0.7413,-0.7365,-0.7279,-0.7171,-0.7257,-0.723,-0.7144,-0.7112,-0.7166,-0.7246,-0.7338,-0.7467,-0.7547,-0.7521,-0.7574,-0.7601,-0.7521,-0.7542,-0.7521,-0.7392,-0.7317,-0.7257,-0.7171,-0.7112,-0.7112,-0.7112,-0.7112,-0.7112,-0.7112,-0.7112,-0.6993,-0.6731,-0.6709,-0.6618,-0.6412,-0.6023,-0.5847,-0.5955,-0.5782,-0.5738,-0.585,-0.5817,-0.5744,-0.5648,-0.6623,-0.7112,-0.7112,-0.6923,-0.6783,-0.668,-0.6168,-0.5873,-0.5795,-0.5439,-0.5297,-0.5297,-0.5297,-0.5297,-0.5297,-0.5297,-0.5297,-0.5297,-0.5297,-0.5297,-0.5297,-0.0898,-0.1486,-0.213,-0.2607,-0.2691,-0.2691,-0.2691,-0.2691,-0.2691,-0.2691,-0.2691,-0.2691,-0.2691,-0.2775,-0.2858,-0.2938,-0.2996,-0.3107,-0.3272,-0.3441,-0.3527,-0.3527,-0.3583,-0.3613,-0.3613,-0.3613,-0.3638,-0.3716,-0.3716,-0.3774,-0.383,-0.3882,-0.4045,-0.4294,-0.4952,-0.5363,-0.5637,-0.6561,-0.7025,-0.716,-0.7408,-0.7547,-0.7622,-0.7542,-0.7494,-0.7494,-0.744,-0.7467,-0.7494,-0.7381,-0.7279,-0.723,-0.723,-0.7171,-0.7112,-0.7198,-0.7171,-0.7112,-0.7112,-0.7112,-0.7112,-0.7198,-0.7311,-0.7413,-0.7359,-0.7413,-0.7467,-0.7354,-0.7386,-0.7386,-0.7252,-0.723,-0.7198,-0.7112,-0.7112,-0.7112,-0.7112,-0.7112,-0.7112,-0.7112,-0.7112,-0.6993,-0.6731,-0.6607,-0.641,-0.6064,-0.5877,-0.5756,-0.5682,-0.5515,-0.5327,-0.5148,-0.5136,-0.5014,-0.48,-0.5682,-0.6197,-0.6359,-0.6238,-0.6101,-0.5915,-0.5824,-0.5615,-0.5273,-0.5292,-0.5297,-0.5297,-0.5297,-0.5297,-0.5297,-0.5297,-0.5297,-0.5297,-0.5297,-0.5297,-0.5297,-0.0898,-0.0898,-0.1289,-0.2493,-0.2691,-0.2691,-0.2691,-0.2691,-0.2691,-0.2691,-0.2691,-0.2691,-0.2691,-0.2691,-0.2691,-0.2691,-0.2833,-0.2942,-0.3077,-0.3272,-0.3385,-0.3385,-0.3499,-0.3583,-0.3555,-0.3583,-0.3613,-0.3613,-0.3613,-0.3638,-0.3694,-0.3799,-0.4181,-0.4783,-0.5523,-0.61,-0.6615,-0.7219,-0.7467,-0.7494,-0.7467,-0.7467,-0.7494,-0.7467,-0.7467,-0.744,-0.7338,-0.7365,-0.744,-0.7192,-0.7112,-0.7112,-0.7112,-0.7112,-0.7112,-0.7112,-0.7112,-0.7112,-0.7112,-0.7112,-0.7112,-0.7112,-0.7198,-0.7257,-0.7139,-0.73,-0.7386,-0.7139,-0.7198,-0.7257,-0.7112,-0.7112,-0.7112,-0.7112,-0.7112,-0.7112,-0.7112,-0.7112,-0.7112,-0.7112,-0.7085,-0.6967,-0.6679,-0.6427,-0.607,-0.5575,-0.574,-0.5647,-0.5151,-0.5055,-0.4766,-0.4221,-0.4432,-0.44,-0.4066,-0.4287,-0.4641,-0.5148,-0.5251,-0.5072,-0.4687,-0.5333,-0.5193,-0.4481,-0.4981,-0.5187,-0.5187,-0.5187,-0.5215,-0.5242,-0.5187,-0.5215,-0.5242,-0.5242,-0.5242,-0.5242,-0.0898,-0.0898,-0.1289,-0.2493,-0.2691,-0.2691,-0.2691,-0.2691,-0.2691,-0.2691,-0.2691,-0.2691,-0.2691,-0.2691,-0.2691,-0.2691,-0.2833,-0.2916,-0.2942,-0.3079,-0.316,-0.316,-0.3357,-0.3357,-0.3216,-0.3471,-0.3613,-0.3613,-0.3613,-0.3833,-0.4298,-0.4325,-0.4649,-0.5195,-0.5823,-0.6182,-0.6317,-0.6918,-0.7252,-0.7338,-0.7225,-0.7252,-0.7338,-0.7225,-0.7192,-0.7192,-0.7166,-0.7166,-0.7166,-0.7112,-0.7112,-0.7112,-0.7112,-0.7112,-0.7112,-0.7112,-0.7112,-0.7112,-0.7112,-0.7112,-0.7112,-0.7112,-0.7112,-0.7139,-0.7112,-0.7139,-0.7166,-0.7112,-0.7112,-0.7139,-0.7112,-0.7112,-0.7112,-0.7112,-0.7112,-0.7112,-0.7112,-0.7112,-0.7112,-0.7112,-0.6923,-0.6668,-0.6422,-0.6143,-0.5911,-0.5739,-0.5641,-0.5293,-0.4606,-0.4517,-0.4168,-0.3536,-0.3432,-0.3263,-0.303,-0.2827,-0.3404,-0.4722,-0.4538,-0.443,-0.4396,-0.4335,-0.4227,-0.4118,-0.4229,-0.4273,-0.4273,-0.4273,-0.4494,-0.4798,-0.4411,-0.4494,-0.4829,-0.4829,-0.4829,-0.4857,-0.0898,-0.0898,-0.1094,-0.1737,-0.2326,-0.2691,-0.2691,-0.2691,-0.2691,-0.2691,-0.2691,-0.2691,-0.2691,-0.2691,-0.2691,-0.2691,-0.2775,-0.2805,-0.2805,-0.2942,-0.2996,-0.2996,-0.3163,-0.3216,-0.3102,-0.3272,-0.3413,-0.3499,-0.3555,-0.3913,-0.4491,-0.4491,-0.4791,-0.5332,-0.5937,-0.6209,-0.6236,-0.6837,-0.7139,-0.7198,-0.7139,-0.7139,-0.7198,-0.7139,-0.7112,-0.7112,-0.7112,-0.7112,-0.7112,-0.7112,-0.7112,-0.7112,-0.7112,-0.7112,-0.7112,-0.7112,-0.7112,-0.7112,-0.7112,-0.7112,-0.7112,-0.7112,-0.7112,-0.7112,-0.7112,-0.7112,-0.7112,-0.7112,-0.7112,-0.7112,-0.7112,-0.7112,-0.7112,-0.7112,-0.7112,-0.7112,-0.7112,-0.7112,-0.7058,-0.6918,-0.6783,-0.6526,-0.6098,-0.6057,-0.5913,-0.5595,-0.5398,-0.5033,-0.4426,-0.4187,-0.3745,-0.3071,-0.2971,-0.2775,-0.2511,-0.2328,-0.2682,-0.3559,-0.3636,-0.3673,-0.3696,-0.3856,-0.3839,-0.3631,-0.3883,-0.3996,-0.3993,-0.3852,-0.3962,-0.4128,-0.3738,-0.3821,-0.4184,-0.4184,-0.4184,-0.4184,-0.0842,-0.0898,-0.0898,-0.0898,-0.1737,-0.2382,-0.2382,-0.2579,-0.2691,-0.2691,-0.2691,-0.2691,-0.2691,-0.2691,-0.2691,-0.2691,-0.2691,-0.2691,-0.2691,-0.2805,-0.286,-0.286,-0.2996,-0.3049,-0.3021,-0.3077,-0.3188,-0.3413,-0.361,-0.4024,-0.4625,-0.4736,-0.5089,-0.5637,-0.6127,-0.6344,-0.6399,-0.6891,-0.7112,-0.7112,-0.7112,-0.7112,-0.7112,-0.7112,-0.7112,-0.7112,-0.7112,-0.7112,-0.7112,-0.7112,-0.7112,-0.7112,-0.7112,-0.7112,-0.7112,-0.7112,-0.7112,-0.7112,-0.7112,-0.7031,-0.6977,-0.7085,-0.7031,-0.6977,-0.7085,-0.7112,-0.7112,-0.7112,-0.7112,-0.7112,-0.7112,-0.7112,-0.7112,-0.7112,-0.7058,-0.7058,-0.7085,-0.7004,-0.6891,-0.6729,-0.6598,-0.6327,-0.5768,-0.5918,-0.5809,-0.5242,-0.5101,-0.479,-0.4257,-0.3881,-0.3408,-0.2774,-0.275,-0.2594,-0.2329,-0.2329,-0.235,-0.244,-0.2819,-0.2996,-0.295,-0.3508,-0.3531,-0.3142,-0.3589,-0.3744,-0.3688,-0.3461,-0.3375,-0.3375,-0.301,-0.3095,-0.3403,-0.3403,-0.3458,-0.3486,-0.0589,-0.0898,-0.0898,-0.0898,-0.1037,-0.115,-0.115,-0.2018,-0.2691,-0.2691,-0.2691,-0.2691,-0.2691,-0.2691,-0.2691,-0.2691,-0.2691,-0.2691,-0.2691,-0.2719,-0.2719,-0.2719,-0.2858,-0.2858,-0.2747,-0.2993,-0.3188,-0.3413,-0.3879,-0.4484,-0.5195,-0.5719,-0.629,-0.6864,-0.695,-0.6977,-0.6977,-0.7058,-0.7112,-0.7112,-0.7112,-0.7112,-0.7112,-0.7112,-0.7112,-0.7112,-0.7112,-0.7112,-0.7112,-0.7112,-0.7112,-0.7112,-0.7112,-0.7112,-0.7112,-0.7112,-0.7112,-0.7112,-0.7112,-0.6729,-0.6453,-0.6977,-0.6701,-0.6453,-0.6977,-0.7112,-0.7112,-0.7112,-0.7112,-0.7112,-0.7112,-0.7112,-0.7112,-0.7112,-0.6896,-0.6842,-0.7058,-0.6647,-0.6426,-0.6674,-0.625,-0.5763,-0.5411,-0.5407,-0.5238,-0.4802,-0.4774,-0.4401,-0.3583,-0.3374,-0.3066,-0.265,-0.2518,-0.2424,-0.2399,-0.2399,-0.2444,-0.2562,-0.2641,-0.2667,-0.2667,-0.2748,-0.2772,-0.2783,-0.2852,-0.2717,-0.2434,-0.2406,-0.2488,-0.2595,-0.2151,-0.2263,-0.2651,-0.2651,-0.2871,-0.3148,-0.042,-0.0898,-0.0898,-0.0898,-0.0898,-0.0898,-0.0898,-0.1345,-0.1821,-0.2155,-0.1905,-0.1962,-0.2635,-0.2691,-0.2691,-0.2691,-0.2691,-0.2691,-0.2691,-0.2691,-0.2691,-0.2691,-0.2747,-0.2747,-0.2691,-0.2828,-0.316,-0.3738,-0.4039,-0.4752,-0.58,-0.6073,-0.6507,-0.7112,-0.7112,-0.7112,-0.7112,-0.7112,-0.7112,-0.7112,-0.7112,-0.7112,-0.7112,-0.7112,-0.7112,-0.7112,-0.7112,-0.7112,-0.7112,-0.7112,-0.7112,-0.7112,-0.7112,-0.7112,-0.7112,-0.7112,-0.7112,-0.7112,-0.7112,-0.6615,-0.615,-0.6421,-0.5987,-0.5605,-0.615,-0.6258,-0.6426,-0.6972,-0.7112,-0.7112,-0.7112,-0.7112,-0.7058,-0.6896,-0.6783,-0.6674,-0.662,-0.6372,-0.6213,-0.6196,-0.5791,-0.5466,-0.5329,-0.5105,-0.4884,-0.4719,-0.4245,-0.3802,-0.3413,-0.309,-0.2821,-0.2609,-0.2541,-0.2521,-0.2521,-0.2521,-0.2566,-0.2659,-0.2659,-0.2659,-0.2659,-0.2659,-0.2682,-0.2691,-0.2493,-0.2324,-0.2183,-0.1849,-0.1737,-0.179,-0.1428,-0.1512,-0.182,-0.182,-0.193,-0.2068]}]]